GFSSGP_700_spd_000.txt.gz
Wind_Speed
13 9 10 12 8 8 13 17 10 5 4 9 6 5 7 7 10 7 12 12 11 10 11 14 13 9 7 5 3 3 5 5 7 5 3 2 2 2 2 2 3 3 5 7 7 8 9 10 11
11 8 11 12 10 14 15 12 14 10 12 8 6 4 2 9 8 9 11 12 13 13 12 14 14 10 7 3 2 3 4 4 5 2 3 2 2 2 3 3 4 5 7 8 9 10 11 11 11
11 8 12 10 12 17 20 9 6 11 14 8 5 4 4 7 9 11 13 14 14 15 13 11 14 11 8 4 2 2 2 3 2 2 3 3 3 4 5 5 6 7 8 9 10 11 12 12 11
10 7 12 14 16 22 16 14 4 8 10 8 6 5 5 8 10 12 12 14 14 15 14 14 13 9 7 4 3 3 4 3 4 4 5 5 6 6 7 7 8 9 9 11 12 13 13 12 11
10 4 9 11 17 17 15 10 13 10 3 7 6 5 9 9 11 12 12 13 14 15 14 14 12 10 7 5 5 6 6 5 7 7 7 8 8 8 8 9 10 10 11 12 13 13 13 12 11
9 4 8 14 14 19 14 14 10 8 5 10 7 8 13 10 12 11 11 12 14 15 15 13 12 9 7 6 7 8 8 8 8 9 10 11 10 10 10 10 11 12 12 13 13 13 13 13 12
10 8 13 14 16 18 16 17 12 11 6 14 10 4 11 13 11 12 12 13 14 14 16 14 12 10 8 9 9 10 11 12 11 12 13 14 13 13 12 11 12 13 13 14 14 15 15 15 14
10 12 15 14 15 16 14 17 19 14 13 14 12 4 13 8 13 15 15 14 14 14 15 15 13 13 11 10 11 13 14 15 16 16 16 16 15 16 14 12 13 13 14 14 15 16 16 16 15
12 15 12 11 8 16 14 15 18 20 18 16 18 18 15 14 16 16 17 16 15 14 14 15 15 13 12 11 13 15 16 18 19 20 18 18 16 16 14 14 14 14 14 15 16 16 16 16 16
13 14 12 9 13 15 12 12 19 17 19 22 23 19 17 17 18 18 17 17 17 15 15 15 15 15 15 14 14 15 16 17 18 17 17 17 16 15 14 14 14 15 15 16 17 18 17 17 18
14 19 13 13 15 21 20 15 9 21 16 15 21 22 20 18 20 20 19 19 18 17 16 16 17 16 15 16 16 17 15 17 16 16 16 16 16 16 16 15 16 15 16 16 17 18 19 20 20
17 17 17 14 11 23 23 20 15 15 17 17 18 21 23 20 20 22 21 20 18 18 19 20 20 20 19 18 18 17 18 17 17 17 17 17 18 17 17 19 17 17 16 17 16 18 19 20 23
18 19 17 14 15 20 16 20 18 18 16 21 24 22 26 24 23 24 24 23 21 21 23 23 23 23 23 21 20 20 20 21 20 20 21 21 20 19 20 20 20 19 20 18 17 18 18 20 23
13 11 18 12 15 13 17 15 17 17 17 17 24 24 26 26 25 26 25 25 26 25 26 27 28 27 27 26 24 23 23 23 23 23 23 23 23 23 23 21 22 22 21 22 21 19 21 22 23
17 21 15 18 16 11 17 20 21 14 19 19 21 24 25 27 26 27 26 27 26 28 30 32 33 30 31 30 30 28 25 24 24 24 26 26 26 26 27 25 24 24 24 24 24 23 24 24 25
12 16 18 14 13 16 13 20 4 6 16 17 18 17 17 22 22 23 26 29 30 32 34 34 34 35 32 32 31 31 30 28 25 23 25 27 27 27 27 26 25 26 25 26 26 25 26 27 29
11 17 16 13 18 12 15 12 10 7 15 16 14 15 15 15 18 22 27 30 32 29 28 30 33 35 35 32 34 34 32 31 30 28 26 25 27 28 27 27 27 27 28 27 27 27 28 29 30
11 16 16 18 16 14 14 20 14 17 21 21 17 14 16 21 25 28 28 29 28 27 24 26 29 33 36 34 34 35 36 34 33 31 30 32 33 32 29 28 30 32 31 29 29 31 31 31 32
12 7 15 8 12 11 14 10 13 19 15 8 14 19 20 20 18 15 12 13 15 17 19 20 24 27 31 34 33 34 36 36 36 35 34 35 36 36 32 31 33 34 35 34 33 34 33 32 32
8 5 8 9 11 15 7 10 10 8 6 7 12 11 8 7 8 10 10 11 12 12 15 17 20 24 29 31 32 31 30 34 37 36 37 36 36 36 35 35 36 36 37 37 37 37 36 34 31
8 11 4 2 5 7 7 6 6 5 3 7 6 5 4 6 8 10 11 13 14 15 16 17 18 19 22 28 29 29 30 31 32 34 34 32 33 33 36 38 39 38 40 40 39 39 40 39 34
11 11 9 6 4 5 8 3 8 9 7 5 5 5 5 7 10 13 15 15 15 15 14 14 15 16 17 21 24 24 29 31 30 33 35 35 36 38 39 40 40 40 41 42 42 42 41 40 36
6 7 6 4 7 8 10 6 16 14 12 9 6 5 7 10 11 11 12 12 13 14 16 16 17 16 16 16 18 23 28 31 32 35 36 36 39 41 41 39 39 41 42 42 43 43 43 39 38
4 6 5 5 3 5 8 8 21 23 19 15 9 8 10 10 10 10 11 13 16 17 19 20 19 18 17 17 18 22 27 30 31 32 34 35 36 38 38 37 36 37 40 42 40 41 40 39 40
8 3 3 3 4 3 5 6 13 17 21 16 16 11 11 9 9 11 13 14 15 17 20 21 21 20 20 20 20 21 22 24 25 27 29 30 32 33 36 39 39 37 37 37 37 38 38 38 42
8 6 4 3 3 2 2 5 3 14 19 24 17 15 13 13 15 18 20 21 22 25 28 28 27 26 26 25 24 24 25 26 26 27 27 28 29 31 33 35 37 37 36 35 36 38 40 41 44
9 7 6 4 3 1 5 6 10 16 17 16 15 15 18 18 19 21 22 24 28 33 36 36 34 30 30 30 30 30 30 29 29 29 30 29 29 29 30 32 34 36 38 40 41 43 43 43 44
9 9 4 5 2 3 5 6 11 19 18 14 16 18 25 22 20 22 26 32 38 42 43 40 35 32 30 30 29 30 32 33 32 32 33 33 34 35 35 35 36 36 37 38 40 43 44 45 46
13 11 7 5 2 1 1 2 6 4 13 11 13 20 25 25 27 30 35 36 41 45 41 34 33 31 29 29 29 30 31 32 32 34 35 36 37 39 41 42 42 42 42 42 43 43 43 44 45
12 9 8 4 2 5 2 8 9 11 9 14 15 22 31 32 34 36 39 40 40 37 35 31 33 32 34 34 33 34 35 36 36 36 37 39 40 40 41 42 43 45 46 45 43 42 40 42 43

GFSSGP_700_spd_003.txt.gz
Wind_Speed
15 6 7 9 8 8 12 15 8 15 3 7 5 7 5 5 7 4 10 11 12 13 13 13 14 12 9 8 4 3 2 1 1 2 2 3 3 3 3 3 5 6 6 6 8 8 8 10 10
15 7 6 11 8 10 15 10 14 10 10 10 5 6 6 5 6 7 12 14 13 14 14 13 13 11 8 6 2 1 1 1 1 2 3 4 4 4 3 5 6 7 8 9 9 10 10 11 12
15 7 6 8 12 18 14 3 13 11 9 10 8 4 6 7 6 9 11 13 15 15 14 14 13 11 8 4 3 0 1 1 1 4 5 5 6 5 5 7 8 9 10 10 10 11 12 12 13
14 5 7 11 13 16 18 6 8 3 8 7 9 6 7 7 8 10 13 14 15 16 15 14 12 11 7 4 1 3 1 1 4 5 6 7 7 7 7 9 11 11 12 12 12 13 14 14 14
13 6 6 10 14 11 9 9 12 5 8 6 8 9 8 8 10 12 13 14 16 16 17 17 14 11 7 5 4 4 3 4 5 6 7 9 9 9 9 11 12 12 12 13 14 14 14 13 13
10 6 6 9 8 9 11 11 7 5 7 9 9 9 9 10 10 12 14 16 17 16 17 18 17 13 9 7 6 5 6 7 8 9 9 10 10 11 12 13 13 13 13 12 13 14 13 13 12
10 9 11 10 8 2 5 18 18 9 12 10 14 13 9 10 11 12 15 17 19 18 16 17 17 16 12 9 8 8 9 10 11 12 11 13 12 13 14 14 14 13 13 13 13 13 14 15 15
10 11 12 15 10 4 15 5 12 19 17 13 16 12 12 11 10 14 16 18 19 19 18 16 17 16 14 12 10 11 12 13 14 15 15 14 14 15 16 14 14 14 14 13 13 13 15 16 16
11 13 14 13 9 10 10 9 10 10 14 15 16 15 18 15 16 17 18 18 19 20 18 16 15 16 15 14 12 12 13 13 15 16 16 15 15 14 14 14 15 15 15 14 14 15 15 15 16
11 15 15 10 13 15 17 12 12 13 13 17 22 18 19 19 19 19 20 20 19 20 19 18 16 15 15 16 16 15 15 15 15 15 14 13 12 12 13 15 16 15 16 15 15 15 15 15 16
14 16 13 11 15 14 18 16 16 18 20 10 14 16 19 17 20 19 21 22 22 21 21 20 19 18 18 16 17 17 17 17 16 15 15 14 13 14 14 17 17 15 16 16 16 16 16 16 16
16 13 13 11 16 14 17 21 22 17 16 14 14 15 17 20 19 19 23 23 24 23 22 23 23 22 22 22 22 21 19 19 18 17 16 17 18 18 19 20 19 19 18 18 17 17 17 17 18
11 11 11 14 16 17 17 18 19 25 15 12 18 18 19 21 22 23 24 25 26 24 24 25 26 25 25 25 26 24 22 20 20 19 18 19 20 20 21 21 21 21 21 21 19 18 19 18 19
15 16 12 12 14 12 17 16 16 18 13 14 16 18 20 22 23 24 25 24 26 26 25 27 29 29 30 30 30 29 27 25 23 22 23 23 25 24 24 25 24 23 23 23 22 21 21 20 19
13 18 20 20 17 15 14 21 12 3 12 15 13 18 20 19 22 23 25 25 24 26 28 29 31 33 33 31 30 29 30 29 26 24 24 23 23 23 24 25 25 24 23 23 23 23 23 22 24
12 15 17 7 9 6 11 22 6 5 10 11 12 16 19 16 17 19 21 23 23 26 28 29 31 32 32 32 30 31 30 30 28 27 26 25 24 24 26 26 25 24 24 24 24 24 25 24 25
12 13 11 8 5 9 15 17 2 5 8 13 13 12 15 19 22 23 25 27 28 27 22 21 23 22 23 25 29 32 32 30 29 29 28 28 29 30 31 33 32 27 28 29 31 29 28 27 28
10 9 16 14 8 12 20 20 14 10 17 15 19 21 22 22 23 24 26 28 25 18 16 18 21 21 20 21 24 26 29 29 30 30 30 30 31 32 34 34 33 34 32 32 34 34 33 33 31
7 6 13 12 6 14 15 16 7 11 17 22 22 25 24 20 16 11 8 8 11 14 16 17 20 22 23 23 25 24 24 26 27 27 29 31 32 33 35 36 36 35 35 35 36 37 35 33 33
10 9 4 4 7 11 16 18 11 16 20 19 18 19 16 10 7 7 8 9 11 13 15 17 19 19 20 23 25 26 24 26 27 26 27 28 28 32 34 34 34 35 36 37 37 37 39 39 36
17 13 7 5 6 13 9 12 13 14 11 13 13 10 7 6 6 8 11 13 15 15 14 15 15 16 17 18 21 26 27 25 25 25 27 26 28 30 32 33 35 37 39 40 38 38 39 40 38
17 15 11 10 12 5 7 3 15 14 13 11 9 8 6 5 7 10 11 12 13 14 13 13 15 16 17 18 18 20 21 20 21 25 28 29 32 33 33 34 37 39 41 40 39 39 39 40 41
13 12 9 9 7 11 11 8 16 19 19 15 10 9 8 8 10 11 12 13 13 14 16 18 20 21 21 21 21 21 22 22 24 26 29 30 31 32 33 35 36 37 38 38 38 38 40 40 40
10 10 9 8 5 4 14 16 14 27 23 16 12 10 10 10 10 11 12 13 14 16 18 22 26 28 28 27 26 25 25 25 25 27 27 28 29 29 31 33 34 35 35 36 36 36 37 37 38
13 8 2 0 1 5 9 10 18 23 19 14 13 14 12 10 11 12 14 15 18 19 19 23 27 30 30 29 28 27 28 28 28 29 30 31 32 33 33 35 35 34 34 34 35 35 36 35 37
17 11 4 3 3 3 6 6 6 9 12 17 18 17 15 12 14 16 19 22 23 24 27 34 38 38 33 27 27 28 28 28 29 30 31 32 34 34 35 36 36 37 38 39 40 41 41 40 41
14 12 7 3 6 2 4 4 4 10 21 23 19 17 18 16 17 20 22 25 27 31 35 37 39 36 30 27 24 24 25 26 28 31 33 34 35 36 37 38 38 38 38 38 38 41 43 45 44
10 11 7 8 3 2 5 5 6 22 23 20 18 17 17 17 18 22 25 29 33 38 39 39 34 29 27 25 25 27 29 30 31 32 33 35 36 37 39 40 41 43 44 44 45 46 46 46 46
18 11 7 4 3 4 2 0 6 11 18 12 13 17 17 21 27 29 32 35 35 39 39 32 30 29 28 28 30 32 32 33 35 36 38 38 38 39 40 41 43 44 44 45 46 45 46 48 49
14 15 12 5 2 3 1 3 1 3 1 10 11 13 20 25 28 32 35 38 41 41 39 35 32 33 32 33 34 35 36 37 39 39 39 40 41 41 41 40 41 42 43 43 43 43 43 45 47

GFSSGP_700_spd_006.txt.gz
Wind_Speed
11 7 7 10 8 9 12 7 7 5 4 2 5 10 7 6 6 3 8 10 13 15 15 15 15 15 11 9 7 4 5 5 5 3 2 3 3 3 5 5 5 6 7 9 9 9 11 12 12
11 8 6 10 9 14 10 2 7 9 7 5 8 9 7 5 5 7 9 11 14 16 18 17 15 14 12 7 5 2 4 4 4 3 3 3 4 5 6 6 7 8 9 10 10 10 11 12 11
12 10 6 8 12 16 7 4 6 1 4 6 9 12 6 5 5 8 11 12 13 16 18 18 16 14 11 7 4 2 2 3 3 4 3 3 4 7 8 9 9 10 11 11 11 11 11 12 11
9 9 7 12 10 13 17 11 13 2 3 6 11 11 9 6 6 9 12 13 14 16 18 18 18 15 12 7 4 3 4 4 4 5 4 4 5 8 10 11 12 12 11 12 12 12 12 12 12
10 8 9 11 13 11 10 5 5 7 5 3 8 12 10 8 8 10 11 13 15 16 17 18 18 16 13 8 6 5 5 5 6 6 6 7 8 10 10 12 13 13 13 13 13 12 12 12 13
10 9 7 11 9 7 6 6 5 13 10 7 11 9 11 11 10 10 11 14 16 16 16 16 16 16 14 11 8 8 7 7 8 8 8 9 10 11 12 13 14 14 14 14 13 12 12 12 12
11 11 10 11 10 9 4 6 7 12 12 10 10 11 14 13 11 9 13 14 16 17 17 17 16 16 15 13 10 9 9 10 10 10 10 12 11 13 14 14 14 15 15 13 13 12 13 13 13
12 12 12 11 13 9 1 8 7 8 13 9 10 12 14 11 12 13 16 16 16 18 18 17 16 15 15 14 13 11 10 10 10 12 12 13 14 15 15 14 14 15 15 14 13 12 13 14 13
13 14 14 13 11 11 6 4 5 4 9 11 13 16 15 16 17 18 19 18 17 18 17 16 16 16 15 15 14 13 13 12 11 10 10 10 11 12 12 12 13 15 15 15 13 13 14 14 15
15 17 16 12 12 14 13 11 8 11 13 14 17 19 19 18 17 19 20 19 19 19 17 16 16 16 16 15 15 15 15 15 13 12 11 10 10 10 12 13 15 16 17 16 15 14 14 14 15
20 19 14 11 14 16 18 17 14 13 15 16 16 15 16 16 18 20 18 17 20 20 19 18 18 17 16 18 18 17 16 16 16 15 14 13 12 13 14 17 17 19 19 18 17 16 15 14 14
22 19 16 13 12 18 21 22 21 19 16 13 18 16 16 13 14 17 18 20 20 22 21 21 21 20 20 20 21 21 19 19 18 17 17 18 18 17 18 19 19 19 20 19 18 18 17 16 16
21 18 16 16 13 20 24 23 22 27 22 17 18 18 17 16 17 19 21 22 22 22 22 22 24 24 25 25 24 25 23 21 20 18 17 17 17 16 17 19 20 21 20 20 19 18 19 19 20
22 20 19 18 14 19 23 25 27 19 13 21 21 15 15 16 17 20 21 20 21 21 20 22 25 27 30 30 27 27 26 23 22 20 17 17 18 18 18 17 17 18 18 18 18 18 19 20 21
22 22 21 18 18 19 16 21 13 11 17 19 17 14 15 16 19 19 21 22 24 24 23 23 25 27 28 25 24 25 24 22 21 20 20 19 20 21 21 20 20 23 22 20 19 20 20 20 22
17 17 18 13 13 14 18 18 6 7 8 12 15 14 18 20 21 22 23 22 21 21 20 22 20 18 19 18 18 20 21 22 21 21 21 22 22 22 23 23 24 26 28 30 28 25 26 26 27
16 15 14 10 8 9 18 6 2 9 12 10 10 14 19 20 21 21 22 23 22 22 18 13 12 14 17 18 19 20 20 21 21 22 23 24 26 27 29 30 31 32 33 33 32 30 30 30 30
18 15 9 10 8 12 17 11 4 10 18 16 14 18 21 22 22 22 23 24 19 11 10 12 12 14 17 19 19 20 21 20 20 21 23 25 28 31 34 35 34 34 33 32 32 33 34 35 35
19 10 8 5 10 12 12 13 11 11 19 16 16 20 23 24 22 19 14 8 11 13 13 15 16 18 19 20 21 21 22 22 22 23 23 23 25 27 31 33 33 34 34 32 33 35 36 36 37
24 20 8 6 5 7 11 15 18 19 18 17 21 19 15 16 15 10 8 9 11 14 16 17 19 19 17 18 19 21 21 22 22 21 23 26 26 28 29 31 32 33 34 34 35 38 39 41 39
22 18 11 10 7 11 15 18 15 17 18 19 19 17 14 11 10 9 9 10 13 13 14 14 14 15 15 16 18 19 21 21 21 20 21 25 28 31 33 35 36 37 38 38 40 42 43 45 41
24 17 13 15 14 8 3 5 14 20 17 16 12 11 12 12 10 9 10 11 12 12 11 10 13 17 21 23 23 23 23 23 24 23 23 25 29 31 33 34 36 36 38 40 41 43 43 43 43
21 18 18 16 14 12 16 8 9 20 22 20 12 12 13 12 10 10 11 12 12 11 14 17 19 21 24 26 26 26 26 26 27 28 28 28 30 32 34 36 36 38 39 40 40 40 41 42 44
21 17 14 10 9 5 19 17 9 20 11 16 14 13 14 13 11 11 12 13 14 18 20 20 22 26 30 28 26 25 24 25 26 27 28 29 30 32 34 35 37 38 40 41 43 43 43 42 40
22 16 3 3 3 6 4 13 21 10 8 6 10 10 13 13 11 12 13 15 19 21 21 24 28 33 33 31 27 23 24 25 27 29 31 32 34 35 37 39 40 41 42 42 43 43 42 42 41
25 18 6 6 4 3 9 8 8 8 16 19 15 14 13 13 13 13 16 19 20 22 26 30 31 31 28 26 25 24 24 25 27 29 31 33 35 37 38 40 41 42 43 44 45 47 47 47 48
24 23 15 5 4 2 6 9 11 9 9 19 20 16 13 12 10 11 16 20 24 28 30 32 33 29 27 26 25 25 26 28 30 32 34 35 37 38 39 40 42 43 44 46 48 49 49 49 50
15 23 11 9 3 4 4 7 10 8 12 17 19 16 13 9 11 18 22 27 31 33 35 35 31 30 30 30 30 30 31 33 35 36 37 39 40 42 42 42 43 43 44 46 48 49 49 50 50
21 18 10 7 4 4 1 3 1 8 10 11 11 12 10 12 16 19 26 32 35 34 33 31 31 31 32 31 32 33 35 36 37 40 43 44 45 45 45 45 45 44 44 44 46 48 49 48 49
24 20 17 6 5 5 1 4 2 2 4 12 10 9 14 15 19 28 33 32 31 32 33 33 35 35 34 34 35 37 40 42 43 45 47 48 48 46 45 45 44 43 43 43 44 45 46 48 49

GFSSGP_700_spd_009.txt.gz
Wind_Speed
11 10 6 10 9 9 11 4 5 5 4 3 6 7 8 9 9 3 8 11 13 15 17 19 18 18 17 13 10 6 6 6 5 6 6 5 3 2 2 4 5 5 8 9 9 10 10 11 12
11 10 5 10 9 12 9 6 1 5 8 8 7 7 7 8 9 8 8 11 13 15 17 19 20 19 18 13 9 5 5 4 3 5 4 3 2 3 3 5 6 7 9 10 11 10 11 12 12
12 10 5 7 12 13 8 8 2 4 5 6 8 8 8 9 10 8 10 11 12 15 16 18 20 19 17 12 9 6 5 4 3 4 3 3 3 5 5 6 8 9 10 11 11 11 11 11 11
10 10 6 12 11 9 13 11 5 6 4 5 8 9 9 10 11 8 9 10 13 14 16 17 18 19 17 11 8 7 7 7 5 5 7 5 5 6 8 8 9 11 11 12 12 12 12 12 11
10 11 8 11 14 9 6 9 10 10 5 5 7 7 10 11 11 10 9 11 13 15 15 15 16 18 18 14 9 7 7 8 7 7 7 8 8 8 10 11 11 12 13 14 13 13 12 10 11
10 11 10 12 13 11 7 8 8 14 10 10 12 7 9 11 12 11 8 12 14 16 16 15 15 15 16 15 11 8 7 8 9 9 9 9 10 11 11 12 13 14 14 14 13 13 12 11 12
13 12 15 14 14 9 4 1 9 15 8 10 12 11 12 10 11 10 11 14 15 16 17 16 14 14 13 14 13 11 9 10 11 11 12 12 12 12 13 13 13 13 14 14 14 14 13 12 13
15 13 17 16 12 10 6 4 6 18 13 11 10 11 11 12 12 13 15 15 15 15 16 15 14 13 14 13 13 12 11 10 11 11 12 12 13 12 13 13 12 12 13 14 14 14 14 13 13
16 17 18 16 11 12 10 7 7 15 13 14 12 11 12 14 15 16 16 16 16 14 16 15 14 13 13 13 14 13 14 13 12 11 11 10 10 10 11 11 10 12 13 14 14 14 14 14 14
19 21 18 14 14 15 15 12 12 15 17 13 12 15 17 18 19 18 17 17 14 14 15 16 15 15 14 15 15 15 15 16 14 13 12 11 10 11 11 12 13 14 15 16 15 15 15 14 14
23 25 16 15 15 18 20 19 19 18 17 14 16 17 18 19 17 16 14 14 14 16 16 17 17 17 16 16 18 19 18 18 17 15 14 12 12 12 13 14 15 16 17 17 17 16 15 14 14
26 23 18 19 16 20 21 25 26 22 21 17 17 18 19 17 15 15 14 16 18 18 17 17 18 18 18 19 19 21 21 20 18 16 13 12 11 11 12 14 15 16 17 16 16 16 16 16 17
28 23 20 19 18 20 23 27 28 29 21 22 22 20 16 18 17 17 18 20 18 18 18 17 19 19 20 21 21 20 19 18 18 15 12 11 11 11 10 10 10 12 13 14 15 15 14 15 17
26 23 23 21 18 21 23 27 30 25 18 24 29 27 18 17 16 18 18 18 18 20 20 22 20 20 20 20 19 17 17 17 16 15 15 13 12 12 12 12 12 14 16 17 17 18 18 17 18
27 24 24 25 21 23 23 28 27 8 20 27 26 27 23 21 19 18 18 19 20 19 19 17 19 19 17 16 15 14 14 16 16 16 17 16 16 17 18 19 19 19 21 23 24 25 25 24 24
24 22 23 20 17 21 19 27 7 12 14 18 22 24 21 19 17 16 18 20 20 19 19 20 20 16 14 15 15 13 13 14 15 15 17 20 21 22 24 25 24 25 27 29 30 32 32 31 29
21 18 15 15 11 12 15 17 9 11 12 13 16 19 18 16 16 17 18 20 20 20 18 15 13 12 14 16 18 18 17 16 15 16 18 20 24 27 30 32 31 31 32 32 34 35 35 34 33
21 19 19 18 7 9 15 16 9 8 17 18 17 17 17 17 18 20 20 19 18 9 7 8 10 12 14 16 17 18 19 18 17 17 19 22 25 27 31 31 30 31 33 32 33 35 37 37 37
20 19 17 13 8 16 15 19 15 12 15 17 23 20 19 19 20 17 16 13 8 10 10 11 12 12 12 13 13 15 16 17 18 20 22 24 27 30 31 31 31 32 32 33 35 37 38 39 41
26 23 19 11 8 12 14 16 17 20 20 17 13 16 17 15 12 14 11 9 10 12 13 13 13 13 12 11 13 14 16 17 18 20 20 22 23 25 30 32 33 34 36 36 38 41 42 43 43
26 28 23 19 11 14 20 28 26 27 22 17 14 14 14 14 15 10 9 10 11 12 12 13 12 12 13 15 17 20 20 20 21 21 23 24 25 27 29 32 35 36 39 39 40 42 44 46 45
28 25 20 16 14 13 10 9 19 15 19 16 13 12 12 12 11 10 10 10 10 11 11 14 17 18 19 21 24 25 23 23 23 24 25 27 29 30 32 33 35 37 38 39 39 41 44 45 48
26 19 15 15 17 19 21 12 9 15 22 19 15 12 11 11 12 11 10 10 10 12 16 20 21 22 25 28 29 26 24 23 24 25 27 29 31 33 35 36 38 39 41 42 43 43 44 45 47
20 14 14 15 16 7 25 19 12 17 13 16 17 14 12 13 13 11 9 8 11 15 18 19 23 26 28 28 26 23 22 23 24 26 27 29 31 34 36 38 40 42 44 45 46 47 47 47 47
23 16 2 3 3 6 6 12 26 7 9 6 12 11 10 12 11 10 8 10 14 16 19 23 26 28 29 26 24 24 25 25 25 27 29 31 33 35 37 39 41 43 45 46 48 49 50 51 52
26 24 9 6 4 4 7 9 8 6 10 14 13 13 11 11 10 9 9 11 14 18 24 27 29 29 26 25 26 26 25 26 28 31 33 36 37 39 40 42 43 44 45 47 48 50 50 51 51
28 27 23 7 9 3 6 10 15 12 7 13 18 16 13 10 8 9 10 16 20 25 27 26 27 26 27 27 27 26 27 29 32 35 38 40 43 44 45 46 46 46 47 48 49 50 51 52 54
21 25 17 12 3 4 5 9 13 4 6 9 12 14 13 9 9 11 16 20 24 25 25 26 27 28 29 30 30 30 31 32 36 40 42 44 46 47 47 47 47 47 47 48 49 50 50 52 54
28 20 20 10 9 3 2 4 3 7 9 3 5 7 8 8 11 16 20 25 25 24 25 26 29 31 31 32 32 33 35 39 44 45 47 49 48 48 47 47 47 47 47 48 48 49 50 51 51
29 25 24 14 7 7 3 6 3 1 4 8 5 6 7 12 15 19 24 26 21 22 25 28 31 33 33 34 36 38 40 43 45 49 53 51 48 47 47 46 46 46 46 46 47 47 48 49 49

GFSSGP_700_spd_012.txt.gz
Wind_Speed
9 13 10 8 9 9 11 6 8 8 5 2 5 6 6 9 10 5 10 11 12 14 15 17 18 18 16 14 11 8 5 4 4 5 6 3 4 4 2 3 3 4 4 5 8 9 9 10 9
9 11 9 8 7 9 9 12 6 8 9 7 6 5 7 9 9 9 11 11 12 13 14 16 18 19 16 13 10 8 7 5 4 4 4 2 2 4 3 3 4 5 5 6 7 9 10 11 10
10 11 9 5 10 8 5 11 5 8 10 8 7 5 6 7 9 9 11 11 12 13 13 15 16 18 17 13 9 7 6 5 5 4 4 1 4 5 4 4 5 6 7 7 8 9 11 11 11
10 12 9 9 8 5 10 10 11 6 8 9 7 6 6 7 8 8 10 11 13 14 14 15 16 17 17 14 9 7 6 5 5 6 7 5 7 7 6 5 7 8 9 9 9 10 11 11 12
12 12 8 8 10 9 4 10 16 10 10 7 6 6 4 7 9 8 8 11 14 15 16 15 15 15 15 15 12 8 6 5 6 6 7 7 8 9 10 9 9 9 10 10 10 10 10 11 12
14 12 12 11 10 10 7 7 12 15 12 7 8 6 5 5 8 8 7 10 14 15 15 15 14 14 14 14 14 12 10 8 8 8 9 10 10 11 11 11 11 11 11 10 10 11 11 11 12
16 14 15 13 13 9 8 6 9 15 16 9 8 9 8 6 7 6 8 12 14 14 14 14 14 14 14 13 13 13 12 11 10 9 9 11 11 12 13 12 12 12 11 11 11 12 12 13 13
18 16 17 14 12 11 10 7 7 11 15 13 12 10 10 8 8 9 11 13 13 13 13 13 13 13 13 13 13 12 12 12 11 10 10 9 9 9 10 10 9 10 10 10 11 12 13 13 14
19 18 19 15 13 11 9 13 9 12 18 17 14 14 14 12 11 12 13 13 13 12 12 12 13 13 14 14 13 13 13 13 12 11 11 10 9 8 8 8 9 9 10 11 13 13 14 14 15
22 23 20 14 12 16 13 16 14 16 18 16 16 17 16 15 16 15 17 16 11 11 13 13 13 13 13 14 15 14 14 14 14 13 11 10 9 8 9 10 11 12 13 15 15 15 16 17 16
28 29 22 16 14 17 16 15 20 20 21 15 18 18 18 15 16 15 15 12 11 13 13 14 14 13 13 14 15 16 16 15 14 13 11 10 9 8 9 10 12 14 15 17 17 17 18 18 20
29 27 24 18 14 18 19 19 21 28 24 18 19 20 20 19 18 14 13 14 14 15 16 16 17 15 15 17 17 16 16 13 13 12 11 9 8 8 8 8 9 10 11 13 14 15 16 16 18
31 28 23 19 18 19 22 21 23 31 27 22 23 25 23 20 17 18 17 17 18 17 18 19 19 18 17 18 18 17 16 13 11 10 11 10 10 10 10 10 10 12 14 15 15 15 16 17 19
32 27 25 24 22 22 23 25 28 23 25 24 28 28 29 27 20 19 19 17 18 17 16 17 15 14 15 17 17 15 14 14 13 12 13 13 13 13 14 14 14 14 17 19 20 21 23 24 25
26 26 26 27 25 22 26 33 26 20 18 26 30 32 27 26 23 21 19 17 18 18 18 18 18 17 18 16 14 13 12 13 14 15 16 17 18 19 21 21 22 22 24 26 28 29 30 31 32
24 26 29 28 20 19 22 32 21 10 19 21 22 21 20 21 22 21 18 17 18 18 18 20 21 20 17 15 15 15 14 14 14 15 17 20 22 24 26 28 28 29 30 32 33 34 34 34 34
20 22 19 17 10 15 18 28 8 11 15 14 12 11 16 20 21 20 17 16 17 18 18 17 15 14 14 14 14 15 15 15 14 14 17 19 23 26 29 30 30 30 30 30 33 34 36 36 36
24 24 21 21 12 15 19 26 10 10 12 14 14 12 13 18 19 18 18 19 17 15 9 9 11 12 13 14 14 14 14 14 15 16 18 20 22 25 28 31 32 32 32 32 34 35 36 39 40
23 24 14 14 11 20 18 22 19 15 17 18 15 15 19 20 19 19 16 12 11 9 9 10 11 12 11 11 9 9 11 12 15 17 18 19 21 24 26 28 29 32 34 35 38 40 41 41 43
26 16 21 20 15 17 19 22 20 18 21 20 17 16 17 21 19 13 10 10 7 8 10 10 10 9 8 8 9 11 14 16 17 19 21 22 24 26 28 30 32 34 35 36 38 41 43 44 42
31 28 20 19 16 22 24 29 22 15 21 25 19 19 17 16 12 10 9 7 7 8 8 7 8 9 11 13 16 18 20 19 19 20 23 24 26 28 30 32 34 36 38 39 40 42 44 46 44
32 25 20 17 18 14 12 11 30 24 20 16 18 17 14 13 11 8 7 7 6 5 7 11 13 15 16 19 22 22 19 18 18 19 21 23 26 28 31 33 35 37 39 41 42 43 45 47 50
27 25 21 18 18 20 22 13 11 15 17 14 17 16 12 11 10 9 8 5 4 8 11 13 16 19 22 23 23 21 20 19 20 21 23 25 28 30 32 34 36 38 40 42 45 45 46 48 51
25 12 6 13 12 7 19 18 15 8 6 12 18 16 12 11 11 9 6 3 6 10 13 16 20 23 25 23 21 20 20 20 21 21 23 25 27 30 33 36 38 41 43 44 46 47 47 49 50
29 12 3 3 3 6 6 8 21 7 10 11 9 16 13 12 12 10 5 5 8 11 16 21 24 24 23 21 21 22 23 23 24 26 28 31 33 35 38 40 42 44 45 46 47 48 49 50 52
25 26 8 6 4 4 6 9 4 5 9 12 13 14 15 12 12 8 6 8 9 14 21 24 23 23 22 22 23 24 26 27 29 32 34 37 41 43 45 46 46 46 47 48 49 50 51 52 53
20 34 22 3 3 2 6 10 14 14 11 8 13 15 16 12 10 8 9 8 12 18 22 22 22 22 23 25 26 28 30 31 32 34 38 42 44 48 50 50 49 48 48 49 49 50 50 51 52
23 28 17 14 3 4 4 8 10 7 5 7 11 17 17 14 11 10 9 11 16 23 20 22 22 24 26 29 31 32 34 34 35 38 42 45 49 52 52 50 49 49 47 47 47 47 47 49 49
28 29 22 11 9 4 1 3 4 7 8 7 7 12 13 12 10 10 12 16 21 22 20 23 25 28 30 33 35 35 36 36 39 43 47 55 54 51 50 49 47 46 46 46 47 48 49 50 50
28 28 28 16 6 9 5 13 21 13 4 9 10 11 12 11 12 13 16 20 26 20 21 26 29 32 34 36 37 39 39 40 43 48 58 54 47 47 47 45 45 46 46 47 48 49 51 52 54

GFSSGP_700_spd_015.txt.gz
Wind_Speed
9 11 13 4 9 8 12 9 10 7 5 4 5 4 4 6 8 4 11 12 12 13 13 14 15 16 14 10 8 7 4 3 1 1 1 2 3 3 3 2 3 3 3 5 5 6 6 7 8
10 10 12 6 8 9 9 13 7 10 11 7 6 4 5 6 5 7 10 11 11 12 13 13 14 15 14 9 6 6 6 5 3 2 0 0 2 3 3 2 4 4 3 4 6 6 7 8 8
11 10 10 4 8 9 5 9 12 11 11 10 8 6 5 4 5 6 9 9 11 13 13 14 14 13 14 11 6 6 6 5 4 3 2 0 2 4 5 4 6 6 4 5 6 7 8 9 9
13 12 9 6 8 4 9 13 13 9 9 11 10 7 6 4 4 5 7 8 11 13 14 14 14 13 13 14 10 6 5 4 3 3 1 0 2 5 6 6 8 7 7 7 8 9 10 10 10
14 15 10 7 7 9 6 13 15 14 10 9 10 9 6 5 3 5 5 6 11 12 13 13 14 13 13 13 13 10 6 4 4 3 3 3 3 5 7 8 9 9 9 9 9 10 11 12 11
16 15 13 12 9 7 9 8 12 17 14 11 9 11 7 5 3 4 5 6 10 12 12 12 12 13 13 12 12 11 10 7 6 5 4 5 6 7 9 10 11 11 10 10 10 11 11 13 13
19 18 17 15 12 8 8 10 9 13 17 13 10 10 7 7 6 5 4 7 9 10 10 11 11 12 11 11 11 10 10 9 9 7 6 5 6 7 8 10 11 10 10 10 11 12 13 13 14
20 20 19 17 13 9 7 12 9 10 13 16 13 11 12 11 9 7 7 8 9 9 9 10 10 11 11 10 10 10 10 10 9 8 8 7 6 6 6 9 9 9 10 10 12 13 14 14 16
22 23 23 19 14 10 9 12 13 13 14 15 16 17 15 13 11 11 11 11 9 10 9 9 10 10 11 11 10 10 10 11 10 9 8 7 7 7 8 10 10 11 12 13 14 16 16 16 17
25 28 25 21 15 12 11 11 15 17 17 15 16 17 19 15 15 14 15 16 13 11 10 10 10 11 12 12 12 12 12 12 12 11 10 9 8 9 10 10 12 13 14 15 15 16 17 17 18
29 32 24 23 19 16 14 11 16 20 21 14 18 19 20 17 17 15 16 16 14 14 13 13 13 14 14 14 15 15 13 13 12 12 10 9 8 9 9 9 11 11 12 13 14 15 16 16 17
33 31 26 24 20 19 17 16 14 22 22 20 19 21 21 21 20 19 18 18 17 16 15 17 17 17 16 16 17 17 16 15 13 11 10 8 8 9 9 10 12 12 13 14 14 14 15 15 17
36 31 27 23 21 21 21 18 20 23 25 26 24 24 26 25 22 18 18 20 19 19 18 17 16 16 16 14 16 18 17 16 15 13 11 10 10 10 11 13 14 15 17 18 19 20 21 22 23
36 29 27 26 24 24 24 22 23 11 19 22 29 29 31 30 27 24 21 20 19 18 16 15 15 15 15 14 17 17 14 14 15 16 16 16 15 16 18 19 20 21 24 25 26 27 28 29 31
31 27 28 28 25 25 24 29 22 21 22 20 26 30 33 32 29 24 22 20 19 19 19 18 18 17 17 17 17 15 14 13 13 16 17 19 20 22 25 26 27 28 30 31 32 32 33 34 36
28 29 29 28 25 21 21 32 16 16 9 16 16 20 27 26 23 19 20 20 18 18 18 19 20 20 21 18 17 15 15 15 15 16 18 20 23 25 26 27 29 31 32 34 35 35 35 35 37
24 25 29 27 23 19 18 26 9 9 6 9 8 14 17 15 13 15 17 18 18 17 19 20 17 12 12 11 14 15 16 18 18 18 19 20 21 24 25 27 29 31 32 34 36 36 38 38 38
24 28 17 18 10 14 15 25 19 10 14 14 14 14 13 10 12 16 17 17 18 18 14 9 9 9 7 7 9 10 12 14 15 17 18 20 22 23 25 26 27 28 28 30 32 34 36 38 39
27 22 22 19 14 19 18 24 18 14 16 18 19 18 16 14 14 14 16 17 13 10 7 7 7 6 5 4 4 6 8 11 13 16 18 20 21 23 24 26 27 28 29 31 33 35 37 37 40
22 19 20 17 17 16 20 28 21 17 17 21 22 19 17 16 16 14 14 10 8 6 5 4 3 3 4 6 8 10 12 14 15 17 18 20 21 23 24 25 27 29 30 32 35 39 41 41 42
29 26 19 13 11 16 24 28 21 15 18 22 25 22 18 17 15 12 10 9 6 4 3 3 5 6 7 9 12 14 15 16 16 17 18 19 21 23 24 27 29 32 35 37 39 41 44 46 44
34 27 22 16 13 7 10 10 25 18 17 21 21 20 18 17 14 11 10 8 5 4 4 5 7 9 10 13 16 16 15 14 15 16 18 20 21 24 26 29 32 35 38 40 42 43 45 48 50
28 26 19 16 13 16 18 10 10 20 17 19 13 17 17 15 14 12 10 7 5 5 5 7 9 12 16 18 16 14 14 15 17 19 20 23 25 28 30 33 36 38 41 43 45 46 46 48 51
23 17 12 12 11 6 18 15 13 2 5 4 11 16 15 13 12 12 10 7 6 5 7 11 15 18 19 18 16 16 16 18 19 20 23 25 28 31 34 38 41 42 44 46 47 47 48 49 50
25 19 3 2 5 5 5 8 18 16 12 6 2 13 15 13 12 12 10 8 6 5 10 15 19 21 20 18 18 18 19 21 23 25 27 29 31 35 39 42 44 46 46 46 45 45 45 46 47
25 30 8 5 4 3 8 8 3 2 3 5 10 13 16 13 13 13 10 9 7 8 13 19 22 22 21 20 21 23 24 26 29 31 33 35 37 40 45 47 45 43 43 43 44 44 45 46 48
27 27 14 2 2 1 5 8 11 9 8 8 8 17 17 15 12 11 10 9 8 10 16 22 24 24 23 24 25 27 29 32 34 35 36 38 40 46 45 43 42 43 44 44 45 45 45 45 47
24 27 17 8 4 3 3 7 6 5 7 4 7 17 19 17 13 11 11 11 12 14 20 24 24 25 25 27 29 32 35 36 36 36 38 41 45 49 46 42 42 42 43 44 45 45 45 47 49
29 21 15 13 7 3 0 2 3 8 15 5 7 16 19 16 12 11 12 14 15 19 25 24 25 27 28 31 33 37 38 36 37 41 44 46 48 47 42 42 43 44 44 44 46 48 51 53 55
25 27 28 13 4 12 2 8 18 17 6 5 9 13 16 15 14 14 15 16 17 24 24 23 27 29 31 34 37 39 38 39 43 45 48 49 45 44 43 43 43 44 45 47 51 54 56 59 61

GFSSGP_700_spd_018.txt.gz
Wind_Speed
10 10 11 8 4 8 12 8 10 9 7 7 7 8 3 3 3 3 8 10 11 12 12 13 14 15 15 9 6 6 3 0 2 2 3 3 3 3 3 4 5 5 7 8 8 9 9 10 11
10 10 11 8 6 11 12 11 12 15 12 8 7 7 6 4 2 4 7 8 9 11 13 13 13 14 14 10 5 4 3 3 2 2 2 3 4 4 3 5 6 7 9 9 10 10 10 11 12
12 11 11 5 6 9 7 8 15 11 12 11 8 8 6 2 3 3 5 5 8 11 13 13 13 13 13 11 6 3 3 2 1 2 3 5 5 5 5 6 8 9 9 10 12 11 12 12 13
14 12 12 6 8 7 11 10 15 14 11 13 11 8 9 5 4 4 4 4 7 10 11 12 12 12 11 11 9 5 3 2 1 1 3 5 6 6 7 8 9 11 11 11 14 15 14 14 15
15 14 10 9 7 8 9 15 13 15 11 12 14 10 9 6 6 5 4 4 6 8 9 10 11 11 11 10 9 8 5 3 3 4 3 4 6 7 8 9 10 12 13 14 15 15 15 15 16
15 16 13 13 9 8 11 13 13 15 15 10 13 15 12 8 7 6 7 6 6 7 7 8 9 10 10 10 9 8 7 6 4 4 5 6 8 9 9 10 12 13 14 16 16 17 16 16 17
21 14 17 15 12 9 9 14 12 12 18 17 14 14 13 11 10 9 9 8 7 8 8 7 7 8 8 9 9 8 8 7 6 5 5 6 6 8 9 11 12 12 13 15 16 17 16 17 18
23 20 17 16 13 8 10 12 14 12 13 17 16 12 9 14 13 12 11 9 9 9 9 8 7 8 7 8 8 9 9 9 8 8 7 7 8 8 9 9 9 10 12 13 15 16 16 17 18
25 19 22 19 15 9 10 10 16 16 15 18 17 18 18 17 14 12 11 12 13 12 12 10 10 9 9 10 10 10 11 12 11 11 10 10 10 9 10 11 12 13 14 15 17 18 18 18 19
29 23 24 18 18 16 14 12 15 18 20 17 18 20 22 19 17 15 15 17 17 17 16 14 14 12 12 13 14 13 13 14 14 13 12 11 11 11 12 13 14 15 16 17 18 19 20 20 20
31 29 23 27 22 21 18 15 16 19 23 20 20 22 23 20 18 17 17 16 17 17 18 17 17 17 17 16 18 17 16 17 16 15 14 13 12 12 13 14 14 15 15 17 17 18 19 18 20
31 34 26 28 25 22 22 22 17 22 24 23 22 24 25 24 21 20 18 20 18 17 19 19 20 20 19 19 18 18 17 18 18 16 15 14 14 14 13 15 15 17 18 20 22 23 23 24 25
37 26 30 30 27 25 24 25 24 24 19 25 26 27 27 28 26 23 20 18 19 19 20 21 20 18 18 16 16 17 18 18 17 18 18 18 18 18 19 19 20 22 23 25 27 27 28 29 30
26 35 30 28 28 25 26 27 29 12 17 23 28 31 32 30 29 26 24 23 21 19 20 20 17 17 18 16 16 18 19 16 15 17 19 20 22 23 24 24 26 27 28 30 32 33 34 35 36
32 23 23 31 30 27 27 32 29 20 21 18 22 31 34 35 33 29 27 25 22 19 20 20 20 20 19 20 21 21 21 17 16 18 19 20 22 24 25 26 28 30 32 34 36 37 38 38 39
34 28 28 25 22 27 26 30 19 20 12 10 16 22 27 31 32 28 25 22 19 19 20 19 20 20 21 22 23 22 21 19 19 20 20 21 23 24 24 25 27 30 32 33 35 36 37 37 39
29 28 31 25 20 20 22 22 13 14 14 14 11 14 16 18 16 16 15 15 15 17 19 20 21 15 13 14 16 18 19 19 20 20 20 21 22 23 24 25 27 28 30 31 31 32 33 34 35
25 25 22 26 20 24 23 30 23 19 15 15 16 15 13 11 10 13 13 14 15 17 18 17 12 10 8 9 10 13 15 15 17 18 20 22 24 25 26 27 28 28 29 31 31 32 33 36 39
29 26 22 17 19 17 19 25 23 19 18 17 20 18 15 13 12 12 12 13 14 13 11 8 6 5 5 6 8 9 10 13 15 18 21 23 24 25 25 26 27 27 29 31 32 34 36 37 41
27 26 23 17 19 18 17 27 24 21 19 19 19 20 18 15 16 17 16 14 11 9 8 6 5 5 6 7 9 12 14 17 19 20 21 21 22 23 23 25 26 28 30 32 36 39 41 43 44
25 24 20 16 12 14 18 26 21 22 20 20 22 21 22 19 16 16 14 11 10 10 8 7 6 7 7 9 10 12 14 16 17 17 18 19 21 23 25 27 30 33 35 38 41 44 46 49 47
30 23 18 14 8 8 5 7 12 13 15 17 20 19 23 22 18 16 13 12 12 11 9 8 8 8 9 11 14 16 16 16 16 17 19 20 22 25 28 31 34 37 40 42 44 45 47 49 50
24 22 20 14 12 13 12 8 9 7 12 15 17 16 21 21 18 16 14 14 13 12 10 8 7 8 11 15 15 14 15 16 17 19 21 24 27 29 32 35 37 40 42 43 44 43 43 44 45
16 18 15 13 7 9 16 12 6 5 2 5 15 16 18 20 18 17 16 16 15 12 10 8 8 11 15 18 17 16 16 17 20 21 24 27 30 33 34 36 38 41 41 39 38 39 40 41 42
23 22 6 6 6 6 7 9 13 5 12 8 4 13 19 19 17 17 18 17 15 12 10 10 11 16 19 19 18 17 19 21 23 26 29 31 31 32 35 38 41 41 38 38 39 40 40 41 43
33 24 6 6 6 6 11 7 3 5 2 6 8 15 19 19 17 19 19 18 15 13 11 12 15 20 22 21 21 22 24 26 29 33 33 32 34 37 39 40 40 39 40 39 40 41 42 44 45
29 23 11 3 3 4 6 5 8 5 1 8 11 20 22 20 17 20 20 18 16 14 14 15 18 23 25 24 24 27 29 32 35 36 35 36 39 41 41 39 39 39 39 40 41 42 43 45 47
29 26 12 3 5 4 4 4 4 3 8 3 9 16 23 22 20 21 21 18 16 16 17 18 22 26 26 26 28 31 34 37 39 38 39 42 42 43 41 40 39 39 40 41 42 44 46 49 51
22 21 13 10 3 2 3 4 11 5 8 5 8 16 23 24 21 20 19 18 17 17 18 21 25 26 26 29 32 35 38 40 41 41 43 45 44 42 40 39 40 40 41 43 45 47 51 54 56
26 19 19 9 6 5 1 2 6 6 5 2 4 14 22 22 20 19 19 18 18 18 19 23 26 27 29 32 34 37 40 42 42 45 46 46 42 40 39 40 41 42 43 46 49 51 54 56 58

GFSSGP_700_spd_021.txt.gz
Wind_Speed
12 9 9 8 2 8 15 14 10 8 5 10 11 12 7 4 5 5 7 8 9 10 12 12 13 14 14 13 8 8 7 5 3 3 3 5 4 6 6 6 5 6 7 9 9 11 12 14 15
12 11 9 9 5 13 14 14 10 10 9 10 9 8 8 2 7 6 6 6 7 9 11 12 13 13 13 12 8 6 5 4 2 2 3 5 5 7 6 6 7 7 8 10 11 12 15 15 16
14 12 7 6 8 12 10 7 9 10 14 13 5 7 7 3 7 7 5 5 6 9 10 11 12 11 11 11 9 6 4 3 3 3 4 5 6 8 8 8 9 10 10 11 13 14 16 16 17
15 10 10 11 13 10 14 7 9 8 6 12 12 5 10 10 9 8 7 5 6 8 10 10 10 11 11 9 9 7 5 5 5 5 5 7 8 10 10 10 11 11 12 13 14 16 17 18 19
15 12 14 16 13 11 11 13 11 14 10 14 16 7 6 11 11 11 9 7 6 7 9 9 9 9 9 9 8 8 7 6 6 7 7 9 9 11 11 12 13 13 13 15 16 17 19 20 21
16 12 17 17 15 10 11 12 12 11 10 9 9 14 10 14 12 11 11 9 7 7 9 9 9 10 9 8 8 8 7 7 8 7 8 9 11 12 13 14 14 15 16 17 18 18 19 20 21
20 17 20 20 18 15 12 13 9 11 11 9 16 12 9 18 14 14 12 11 10 8 9 10 11 11 11 10 9 8 9 8 9 9 10 9 9 10 11 12 13 14 16 16 17 18 17 18 19
20 20 24 21 20 18 12 12 10 12 12 17 18 8 9 18 15 15 14 13 11 11 11 12 13 13 13 13 12 11 10 11 12 12 12 13 13 12 13 13 13 13 15 16 17 16 18 19 21
27 23 26 23 20 17 13 9 10 18 18 17 19 20 17 17 17 15 13 12 14 15 13 15 15 16 16 16 15 15 14 13 15 15 15 16 16 16 16 16 16 16 17 18 19 20 21 22 23
27 27 29 20 19 18 14 12 14 16 15 14 14 14 18 20 17 15 14 15 16 17 18 18 17 17 17 18 19 18 18 17 16 17 17 18 18 18 18 18 19 19 19 19 20 20 20 21 22
28 34 23 23 22 19 19 17 14 17 22 15 12 14 13 19 19 17 17 17 17 17 17 18 18 19 19 20 21 21 20 19 19 18 18 19 20 19 18 19 19 20 21 21 22 21 22 23 24
33 28 31 23 23 22 25 22 22 19 22 20 22 21 23 26 23 21 20 19 18 19 19 18 19 19 20 21 19 20 19 18 20 20 19 20 20 21 21 21 22 22 24 24 25 25 26 27 28
32 31 27 28 24 23 25 29 30 27 22 20 23 26 27 27 28 28 25 22 20 19 19 20 19 20 20 18 18 18 19 19 20 20 19 19 21 22 23 24 25 26 27 28 28 29 31 32 33
28 31 31 25 26 26 25 30 27 27 20 20 21 25 31 32 30 29 28 25 24 24 23 20 19 18 17 20 20 20 21 21 20 20 20 19 20 22 24 25 27 28 29 30 31 32 34 35 36
33 29 26 34 27 25 23 31 32 28 18 23 23 23 31 35 33 33 30 29 28 28 24 21 19 19 20 22 23 23 23 22 21 21 21 21 21 22 24 25 27 29 30 30 32 32 34 34 35
37 31 35 28 28 27 23 34 19 13 17 17 15 20 26 29 35 36 33 32 29 27 23 21 19 18 20 23 24 24 23 22 20 21 22 22 22 23 24 25 27 29 30 32 32 33 34 35 36
28 37 39 27 26 26 25 29 19 20 23 19 15 14 17 19 22 25 25 24 22 20 19 18 19 20 20 19 21 21 20 21 20 21 23 23 23 25 26 28 30 32 33 34 34 35 35 36 37
31 39 27 32 27 27 27 30 25 20 18 17 14 14 20 16 15 14 16 16 15 15 16 18 18 16 12 11 12 14 16 18 19 21 23 23 25 27 28 31 32 33 33 34 34 36 36 38 40
32 27 32 23 23 29 30 29 28 24 23 21 17 17 20 21 15 14 14 15 15 15 15 14 11 9 8 9 10 10 12 14 17 20 23 23 26 27 28 30 30 31 32 34 36 38 40 42 44
37 27 30 24 18 20 21 23 24 24 26 23 20 20 21 22 18 16 16 16 15 14 12 10 9 7 7 8 9 11 14 17 20 23 23 24 25 25 26 28 29 31 33 36 39 42 44 45 45
34 38 29 26 19 19 17 26 29 29 26 25 26 21 24 22 20 18 19 17 15 13 12 11 9 9 8 8 10 13 16 18 19 20 20 21 23 25 27 29 32 35 38 40 42 44 45 46 44
42 30 26 23 13 14 14 9 7 15 27 28 27 29 30 26 24 21 19 17 15 14 13 11 10 9 8 9 11 14 15 16 17 18 20 22 24 27 30 34 36 38 40 41 41 43 42 42 42
32 25 25 19 18 12 13 9 17 13 19 18 21 23 28 26 27 22 20 17 16 16 15 13 11 8 8 10 13 15 17 17 18 20 23 26 28 32 34 36 36 37 39 40 41 39 38 39 41
29 31 20 14 11 9 20 18 15 17 14 15 21 24 26 28 27 23 20 18 18 18 15 13 11 10 10 12 16 17 16 17 19 22 25 29 33 35 33 35 37 38 38 38 37 37 38 40 41
28 36 8 5 6 7 9 18 13 5 12 7 7 18 22 24 25 22 21 20 20 18 16 14 13 12 13 15 19 19 18 20 23 27 29 33 35 34 36 37 38 38 37 37 37 38 39 40 41
34 30 12 7 8 12 10 9 9 17 18 12 14 10 19 22 23 21 21 22 21 19 18 16 14 14 16 20 22 21 22 25 28 31 34 38 37 37 39 39 38 37 36 37 39 40 41 43 44
34 34 4 3 3 11 11 11 6 9 6 10 13 17 21 22 21 21 23 24 22 21 19 17 17 17 19 24 25 25 27 30 33 36 39 41 40 41 41 40 38 39 39 40 41 42 43 45 46
32 27 13 5 8 5 9 10 8 10 3 5 14 17 21 23 23 23 25 24 23 21 19 19 19 21 23 26 27 28 31 34 37 40 43 44 43 43 42 40 39 39 39 40 41 43 45 47 49
33 23 11 7 1 3 6 7 12 5 2 4 10 14 20 26 25 23 24 25 23 21 21 21 21 23 26 29 30 31 34 37 40 43 45 45 44 43 41 39 39 39 40 41 44 46 47 50 52
31 20 18 14 5 4 5 7 15 2 3 2 4 9 18 24 24 22 23 23 21 22 21 21 23 26 29 32 32 34 36 39 43 45 45 45 44 42 40 40 40 41 43 46 48 48 50 52 54

GFSSGP_700_spd_024.txt.gz
Wind_Speed
11 10 9 9 3 3 9 16 11 4 8 8 11 11 7 4 6 4 6 6 7 9 11 13 13 13 13 13 11 8 8 8 6 3 3 4 5 6 7 7 6 8 7 8 10 10 11 12 13
12 11 9 8 4 7 13 9 14 13 12 12 9 8 5 1 9 9 6 6 7 9 10 12 13 14 14 13 12 9 8 7 6 5 4 4 5 5 7 7 7 8 8 10 11 11 12 13 14
13 12 9 5 10 12 11 4 4 11 13 10 6 5 5 5 9 9 7 6 6 9 10 11 12 13 13 12 11 10 8 7 7 6 6 5 6 6 8 8 9 9 11 12 12 13 14 15 17
15 10 10 13 15 12 9 13 14 11 11 6 8 4 10 12 12 9 8 8 7 8 9 11 12 12 13 14 13 12 10 8 7 7 7 7 9 9 10 11 12 12 13 14 14 15 16 17 19
16 13 14 14 17 14 13 8 14 17 14 10 11 12 6 9 12 12 11 10 9 9 8 10 11 12 13 13 13 12 11 10 9 9 8 8 9 11 12 13 14 14 15 16 16 17 18 18 20
17 13 14 19 18 15 11 10 15 11 5 10 13 17 11 11 14 14 12 12 11 10 8 9 10 12 13 13 13 13 13 12 11 10 10 10 10 11 12 13 15 16 16 17 18 19 19 20 20
21 18 20 18 21 17 8 13 16 6 14 7 14 14 11 12 15 16 14 12 12 12 11 9 11 12 13 13 15 14 14 14 14 14 13 12 13 14 14 14 15 16 16 17 17 17 18 18 19
23 18 23 23 21 22 14 17 19 17 15 13 14 10 9 13 13 16 14 13 13 15 14 11 12 15 14 14 15 15 16 16 17 17 16 16 15 15 16 15 16 17 18 18 19 20 20 20 21
20 26 28 26 23 19 16 15 11 14 18 17 17 20 14 17 14 17 13 11 12 13 14 16 17 16 15 13 16 16 17 18 19 18 19 19 18 17 16 16 16 17 18 18 19 19 19 18 19
32 28 37 22 19 19 19 14 17 16 14 17 9 7 14 19 19 17 14 14 13 13 15 16 17 17 18 18 16 17 18 19 19 18 18 20 20 18 17 16 16 16 16 17 17 18 19 19 19
33 41 30 26 23 19 24 23 16 14 18 16 13 14 16 14 20 18 16 15 17 16 14 15 17 17 17 18 20 19 18 17 17 17 20 20 19 19 18 17 17 18 18 19 20 20 21 22 23
30 33 28 30 22 23 27 30 30 21 21 16 20 21 25 22 23 19 17 19 16 17 18 16 17 16 18 18 20 20 20 19 18 17 20 18 18 19 20 20 21 21 21 22 23 25 26 28 28
37 32 29 27 28 25 23 32 33 29 27 22 19 21 23 22 24 23 24 24 19 19 20 20 18 19 18 20 18 18 20 19 18 18 19 17 18 19 20 21 22 23 25 25 26 28 29 30 30
25 35 32 29 28 27 27 29 26 30 25 23 23 19 23 23 27 30 25 25 24 24 24 23 21 20 19 18 19 22 21 21 19 20 19 16 18 19 21 22 23 25 26 27 28 30 32 32 33
29 29 27 37 30 30 23 36 35 30 26 22 22 19 19 23 30 29 29 27 25 28 26 25 24 21 19 21 22 22 23 22 23 21 20 19 19 20 21 23 24 26 27 29 31 33 34 35 35
18 31 37 40 33 35 26 38 32 20 11 16 19 18 21 25 26 28 31 31 29 30 29 27 23 21 19 20 23 25 25 23 23 21 21 21 22 22 24 26 27 29 30 33 34 34 35 36 36
28 33 46 38 32 24 32 38 36 24 21 20 23 18 21 23 20 22 23 25 28 28 27 23 20 18 20 22 24 24 23 22 20 19 20 21 22 24 27 29 30 32 33 34 35 35 36 37 38
32 35 35 37 33 31 31 35 32 17 13 21 19 15 18 25 22 14 15 17 19 20 18 16 17 18 19 18 18 18 17 16 16 18 20 21 22 25 28 29 29 31 33 33 34 36 37 40 43
30 27 27 34 25 34 33 32 34 31 28 25 21 17 16 27 24 15 14 15 15 15 15 16 17 16 14 13 13 12 12 12 15 17 20 23 25 26 27 28 28 30 32 35 37 40 42 42 45
34 33 33 28 28 30 31 36 31 29 34 25 23 20 20 31 23 17 17 15 16 16 16 15 13 11 10 9 9 9 11 14 16 18 20 21 22 24 25 27 29 31 34 37 40 42 42 42 43
35 39 39 33 28 27 25 31 30 35 30 27 28 23 24 32 24 20 19 18 18 17 15 14 12 11 10 8 8 10 12 14 16 17 18 19 20 23 25 28 31 34 37 37 38 39 41 40 37
39 42 40 35 35 18 24 6 20 21 31 32 33 24 31 33 30 23 21 21 20 18 16 14 13 11 9 8 8 9 11 13 15 16 17 19 21 25 29 32 35 35 36 37 38 38 38 39 39
45 42 45 38 23 18 18 11 22 17 18 22 29 30 35 37 34 25 25 22 21 19 17 15 14 11 10 9 8 9 12 14 16 17 20 22 26 28 32 34 34 35 36 36 36 36 36 37 39
41 40 39 33 28 12 21 18 10 17 24 21 24 27 34 37 33 29 27 24 22 21 19 17 15 13 11 9 9 12 16 17 18 20 24 27 30 32 35 35 36 37 37 36 35 35 36 37 38
43 37 16 5 4 4 29 18 13 7 26 21 23 24 31 34 30 26 27 26 25 22 21 18 16 14 12 11 12 16 20 21 21 24 27 30 33 36 37 38 38 38 36 36 36 37 37 39 40
55 48 8 6 7 5 14 12 5 25 14 20 17 17 26 29 25 25 27 27 25 24 22 20 17 14 14 14 16 20 23 23 25 28 31 34 38 39 40 40 40 38 37 37 38 38 39 41 42
36 42 38 5 18 11 9 8 13 17 20 20 20 20 17 20 20 25 27 26 25 25 23 20 18 17 17 17 20 23 26 27 29 32 34 38 41 42 42 42 40 38 38 39 40 41 42 44 45
40 38 16 5 8 6 10 21 10 21 17 17 20 19 17 18 21 25 26 26 27 26 23 21 19 19 20 21 24 26 29 30 32 34 37 40 43 44 43 42 41 40 40 41 42 44 45 47 46
29 29 11 5 2 4 5 5 13 16 12 12 16 17 16 21 24 24 24 25 27 25 24 22 20 21 22 24 27 29 32 33 35 38 41 43 45 44 44 42 41 41 42 43 45 46 47 48 48
18 24 10 1 5 1 5 5 14 12 10 9 12 14 15 21 24 24 24 24 25 25 24 22 21 22 24 27 29 32 34 35 38 41 43 44 45 46 44 42 42 42 43 45 47 48 48 49 50

GFSSGP_700_spd_027.txt.gz
Wind_Speed
12 12 12 10 5 4 7 10 9 7 9 7 5 13 7 3 4 6 5 5 6 6 9 11 13 14 15 15 14 11 9 9 8 6 4 4 4 5 5 6 6 7 8 9 9 9 10 11 12
13 13 12 10 5 5 7 5 11 6 8 10 9 9 3 2 3 7 8 4 4 5 8 11 13 14 15 16 16 15 12 10 9 8 6 5 5 4 5 6 6 7 8 9 10 10 11 12 13
14 14 13 5 6 9 5 9 5 2 7 10 12 5 3 5 7 9 8 7 5 5 7 10 12 14 15 15 16 16 16 15 12 10 8 7 6 6 6 7 8 9 10 11 12 12 13 14 14
16 13 13 14 15 9 12 10 12 12 4 12 13 5 5 8 9 8 9 8 6 6 5 7 10 12 14 15 16 15 16 15 15 14 11 9 8 8 9 10 10 11 12 13 14 14 15 16 17
17 17 17 16 16 13 7 17 19 15 13 10 16 9 7 7 6 9 12 11 9 8 9 8 9 11 12 13 14 15 15 14 14 15 14 13 12 11 9 10 11 13 13 14 15 15 17 17 18
21 18 17 20 20 14 10 13 16 20 15 7 8 12 10 10 11 11 12 13 11 9 9 8 8 10 11 12 13 14 14 14 14 15 15 15 14 13 12 11 11 11 12 13 13 13 14 15 15
25 22 24 21 22 20 11 13 16 15 11 11 11 11 10 6 10 11 12 14 11 10 10 8 8 10 12 11 12 13 14 14 15 15 16 16 16 15 14 13 12 12 12 12 12 13 14 14 15
26 26 29 27 24 22 10 11 15 18 16 16 10 6 4 9 9 10 12 13 12 10 11 10 10 11 13 12 11 13 14 14 15 16 16 16 16 15 15 14 13 12 12 12 12 12 12 12 12
28 31 36 35 29 25 13 13 16 19 22 20 15 12 10 12 13 13 14 14 12 11 13 10 11 13 12 11 12 13 15 15 15 16 16 16 17 15 13 13 13 12 11 11 11 12 12 12 14
35 41 42 36 28 23 14 18 19 19 23 17 18 9 6 9 14 20 18 16 15 13 14 12 10 11 12 11 13 14 15 15 15 14 14 16 16 13 11 11 11 11 12 13 14 15 16 17 18
38 46 37 36 28 22 23 21 22 24 25 18 13 17 10 10 10 16 16 19 17 16 13 12 13 13 13 12 13 16 15 13 14 13 13 15 12 11 11 13 15 16 16 17 18 19 20 21 22
36 39 39 37 29 31 30 23 27 28 31 23 18 22 23 22 22 20 18 19 19 19 16 12 13 14 15 17 17 18 14 14 15 14 14 15 14 13 13 14 16 17 18 19 20 21 22 24 24
36 35 32 35 34 33 31 27 27 35 35 35 27 20 24 29 28 25 25 21 21 20 19 16 16 16 17 18 19 19 18 18 18 16 16 18 16 16 16 17 19 20 22 23 23 24 25 26 27
24 31 37 34 33 30 35 35 29 36 33 33 29 25 23 26 25 28 27 24 21 22 22 20 18 19 20 20 20 19 22 21 20 19 17 17 17 16 17 19 20 22 24 25 26 28 30 31 31
32 33 34 44 38 38 29 38 38 35 31 27 20 23 21 23 22 24 26 24 24 22 22 22 21 21 21 21 21 22 23 22 22 20 20 17 17 18 19 20 21 23 26 27 28 30 31 31 32
29 34 42 36 38 38 33 46 37 33 31 22 17 17 17 18 20 22 24 24 26 26 25 24 22 23 22 23 24 22 24 25 24 21 18 18 18 20 21 23 24 26 29 30 30 30 31 32 34
29 28 32 39 32 33 39 44 38 33 30 21 19 15 16 23 23 20 19 22 23 26 26 23 23 22 22 23 24 24 24 22 18 17 17 19 19 20 21 24 26 27 29 29 30 32 34 36 37
30 30 33 31 40 36 37 40 36 37 30 22 26 19 20 25 22 19 17 16 18 20 21 22 21 20 20 20 22 23 20 18 16 16 16 18 19 21 22 23 25 27 28 30 32 34 36 40 42
24 24 23 29 26 22 42 39 35 32 29 25 19 25 21 23 20 19 17 16 15 16 17 17 17 17 18 19 18 16 15 13 13 13 16 18 19 20 22 23 25 28 30 33 35 37 37 37 39
33 36 38 33 20 26 32 37 39 39 36 31 29 25 25 28 22 22 19 18 15 15 15 15 15 15 13 13 13 12 11 11 12 14 16 16 18 20 21 23 26 29 32 35 35 35 36 36 40
35 34 39 35 27 28 29 38 38 35 34 32 32 31 28 32 26 26 20 19 17 16 16 15 15 14 13 14 12 10 10 11 12 13 15 16 18 19 22 25 28 32 34 34 35 36 36 35 35
34 33 30 32 23 21 17 11 33 37 36 39 38 31 29 32 30 30 25 20 19 19 18 17 15 14 14 12 11 10 9 9 11 14 15 16 18 21 25 28 30 32 32 33 34 35 36 36 35
41 30 26 28 30 31 34 16 36 25 33 39 39 39 36 36 34 30 28 22 22 21 19 17 16 15 13 11 10 7 6 8 12 14 15 17 20 24 27 30 32 33 33 34 35 35 35 37 37
31 32 26 17 27 18 32 24 18 28 30 24 27 40 36 39 35 35 32 26 25 23 21 20 18 16 14 12 9 7 8 12 15 16 18 21 24 27 30 33 34 35 35 36 35 35 36 36 37
29 25 6 7 8 12 23 28 26 12 25 30 25 33 41 40 37 35 34 29 28 24 23 22 20 17 15 12 9 10 12 15 18 20 23 26 28 31 34 36 37 37 37 37 36 36 37 38 39
38 35 11 7 9 11 25 14 19 14 10 24 20 21 32 35 36 34 29 28 29 27 24 22 20 18 15 13 12 13 16 19 22 25 27 29 32 34 36 38 39 39 38 37 37 38 38 40 41
35 36 45 10 8 4 18 20 22 24 21 17 23 23 20 21 26 29 29 29 29 27 25 23 22 19 16 15 15 17 19 23 26 28 30 32 35 37 38 39 40 39 38 38 38 40 41 43 45
34 31 21 23 3 7 8 13 13 28 31 26 26 24 18 18 20 23 27 29 30 28 26 25 23 20 18 17 18 20 23 26 28 30 33 35 37 39 40 41 41 39 38 39 41 43 45 46 46
40 30 25 23 23 3 5 5 18 30 27 26 24 21 20 17 19 23 26 28 28 27 27 26 23 21 19 19 21 23 26 28 31 33 35 37 39 40 42 42 40 39 40 41 44 46 47 47 48
31 30 31 20 14 37 8 1 17 20 20 18 16 18 19 17 20 22 24 25 26 26 26 25 24 22 21 21 23 25 29 31 33 35 38 40 40 42 42 42 40 40 41 44 46 47 47 48 49

GFSSGP_700_spd_030.txt.gz
Wind_Speed
13 14 12 10 7 5 8 3 6 9 8 8 6 10 11 9 6 1 1 4 5 5 6 8 11 12 13 13 14 14 13 11 11 11 9 7 5 4 4 4 5 6 7 8 8 8 9 9 10
15 14 12 11 8 9 3 5 8 7 8 10 7 8 5 5 6 4 5 5 4 4 4 7 9 11 12 13 14 14 14 14 12 11 11 9 7 6 4 4 5 6 7 7 8 8 10 10 11
17 16 13 8 11 15 4 1 5 4 6 11 12 17 6 5 7 6 6 5 4 4 4 5 7 9 11 13 13 14 13 14 14 13 12 11 9 7 5 5 6 7 8 8 9 10 10 11 12
19 17 15 16 18 12 13 5 8 9 8 8 12 15 9 7 8 7 5 6 5 5 4 5 6 8 10 11 12 12 12 13 13 13 13 12 12 10 9 9 9 10 10 11 11 11 12 12 12
21 20 19 19 21 15 14 8 7 12 17 12 12 10 10 8 10 8 8 8 8 8 6 5 6 7 8 9 11 11 12 12 12 12 12 12 12 10 10 9 8 9 10 10 11 10 11 11 11
24 23 21 27 27 16 15 4 7 15 15 14 16 14 13 12 10 10 8 9 8 10 9 6 5 6 8 9 9 9 11 11 11 12 12 12 11 10 10 9 10 9 9 9 9 8 9 10 10
27 27 31 30 27 22 18 8 9 14 16 13 11 9 10 10 13 11 8 9 10 11 11 7 5 6 8 8 8 8 10 11 12 13 12 11 11 11 11 10 9 9 9 9 9 9 9 9 9
28 29 34 33 30 26 17 12 8 14 15 14 16 8 8 9 11 11 10 11 10 11 11 8 6 7 9 9 8 8 10 11 11 12 12 11 12 12 10 9 8 8 8 8 8 8 9 10 11
32 34 40 38 34 28 22 13 10 14 18 17 17 14 11 9 10 11 13 12 9 11 12 10 8 9 9 9 9 10 10 12 12 12 11 11 12 12 10 8 8 8 8 9 10 11 12 12 14
36 43 46 39 35 30 25 22 14 17 22 21 17 22 16 13 12 14 15 13 13 13 12 11 10 9 10 10 10 11 12 12 11 11 12 12 13 12 11 10 10 11 12 13 14 15 17 18 19
40 49 43 40 37 31 29 28 19 17 24 25 25 20 16 17 13 16 19 18 18 16 16 13 11 10 9 9 10 13 14 13 12 12 12 12 12 11 10 11 12 13 14 16 17 18 19 20 20
40 44 42 40 38 35 33 30 29 27 22 24 27 22 22 20 19 17 16 18 19 18 19 15 12 11 10 11 12 13 14 13 14 14 12 13 14 13 12 12 14 15 15 16 17 18 19 20 21
38 40 40 41 39 39 33 38 36 34 27 22 25 26 23 28 26 25 22 24 24 23 21 17 15 14 14 14 15 16 15 14 16 16 15 15 15 15 15 15 16 16 17 17 19 20 22 23 23
32 36 39 38 39 41 41 41 40 40 32 30 30 34 32 30 28 32 33 32 28 26 23 20 19 18 16 17 18 18 18 18 18 17 16 14 14 15 15 17 17 18 19 20 22 24 25 26 26
34 35 35 40 39 38 31 46 49 41 38 36 37 33 29 33 31 27 25 28 28 27 23 22 21 19 18 19 20 21 23 22 21 21 19 14 14 16 17 18 19 20 21 23 24 25 26 27 28
27 33 35 35 32 39 32 57 42 41 39 38 39 32 28 29 27 24 21 22 24 25 24 26 25 22 21 22 23 24 22 22 22 21 18 15 15 16 18 19 21 22 22 24 24 25 28 30 31
24 25 25 28 33 27 38 54 42 38 39 42 41 28 25 23 27 24 19 20 20 24 26 28 28 25 25 25 25 22 21 23 21 19 16 15 16 18 19 20 21 22 24 25 27 30 32 33 34
26 28 31 32 19 30 37 48 44 41 37 41 38 25 23 23 23 19 21 21 20 20 23 28 29 27 25 24 22 22 23 22 19 16 15 15 16 18 19 21 22 23 25 28 30 33 35 36 34
30 25 32 34 16 25 31 40 43 42 44 41 40 32 28 27 25 23 23 21 19 19 22 25 26 25 22 20 20 22 21 18 16 14 14 15 17 18 19 21 22 25 28 30 32 33 33 35 35
33 40 42 27 23 22 27 40 37 40 45 40 31 32 25 29 32 25 23 21 18 18 18 20 20 19 18 19 19 18 17 14 13 13 14 16 17 18 19 22 24 27 30 32 33 32 33 34 36
35 37 35 32 28 31 29 42 38 40 36 42 41 35 31 30 33 31 26 21 18 18 18 16 16 16 16 16 17 15 13 12 12 12 13 14 16 18 20 23 26 29 31 32 32 32 32 33 36
35 32 30 28 20 14 4 16 30 32 40 38 40 44 39 35 37 33 30 24 20 20 19 17 16 15 15 15 14 14 12 11 10 10 12 15 17 20 23 25 27 30 31 31 32 33 34 35 36
36 30 26 17 19 24 33 20 35 31 37 41 36 41 35 37 39 37 32 27 24 21 21 18 16 15 16 16 15 13 11 8 7 9 12 15 19 22 24 27 29 30 31 32 34 35 36 37 37
32 24 18 17 20 13 40 23 27 35 34 34 30 36 39 39 38 37 34 30 27 24 23 20 18 18 18 16 14 12 10 8 8 11 14 17 21 24 27 29 31 33 34 35 36 37 37 37 38
28 25 6 10 9 12 13 22 45 19 35 21 25 28 35 44 42 41 37 34 31 26 25 21 20 20 18 16 14 13 11 10 11 14 18 21 24 27 30 33 34 35 36 37 37 37 37 37 38
32 35 11 6 4 9 13 15 27 30 28 17 27 31 36 41 45 43 37 34 32 27 26 24 23 21 18 17 16 14 12 13 15 18 21 25 28 30 33 36 37 38 39 39 38 37 38 39 41
27 32 43 14 11 6 17 28 40 30 26 28 24 31 31 33 43 39 37 35 32 26 27 26 24 22 20 18 17 15 15 16 18 21 25 28 31 33 36 37 38 39 40 40 39 39 40 42 43
36 25 16 21 4 5 8 21 29 32 33 25 24 32 28 29 39 38 36 34 30 26 29 28 25 23 20 19 17 17 17 19 21 25 28 31 33 35 38 38 39 40 40 39 40 41 43 44 45
41 39 23 23 16 3 3 10 28 40 39 30 24 26 23 22 28 32 33 30 27 29 30 28 26 23 21 20 19 19 19 22 25 28 31 33 35 38 39 39 40 40 39 40 42 43 45 46 48
50 48 41 18 14 18 6 12 20 30 32 35 25 23 25 21 22 24 26 25 27 30 29 28 26 24 23 22 21 20 22 24 28 31 33 35 37 39 40 41 40 40 41 42 44 45 47 49 50

GFSSGP_700_spd_033.txt.gz
Wind_Speed
16 16 13 12 7 6 6 4 3 8 4 6 6 9 11 11 4 3 5 1 1 3 4 6 8 10 10 11 12 13 14 12 11 11 10 9 6 5 4 3 3 4 5 5 6 7 7 7 9
19 16 14 12 10 10 6 9 5 2 6 7 6 7 10 13 8 6 4 3 3 3 3 4 6 8 9 10 10 11 11 12 13 12 10 9 7 5 3 2 4 5 5 6 7 7 8 8 9
21 18 16 10 14 19 7 10 5 6 3 7 9 9 9 10 10 7 4 3 4 3 2 3 5 6 7 9 9 10 9 10 11 11 12 11 8 6 5 4 5 6 7 7 8 9 9 10 11
22 20 18 19 21 12 15 9 4 5 3 8 11 8 10 13 11 10 8 5 5 5 4 2 3 4 5 7 8 9 9 10 10 10 10 10 9 8 7 6 6 6 7 8 9 10 10 11 11
23 23 23 22 26 22 16 13 9 8 6 11 14 14 10 11 12 11 11 9 7 6 6 5 3 3 4 6 7 7 8 9 9 9 9 8 7 7 6 6 6 6 6 6 7 8 8 9 9
26 26 24 31 31 22 18 12 10 12 8 12 14 16 17 13 10 12 10 10 10 9 8 7 4 3 4 6 6 6 7 8 9 9 9 8 8 8 8 7 7 7 7 7 8 9 10 10 10
29 30 33 34 32 26 19 16 12 12 11 15 15 14 17 17 13 14 13 10 10 10 10 9 6 4 5 6 6 6 7 8 9 9 9 8 9 10 9 8 8 8 8 8 9 9 10 11 11
29 30 34 37 36 31 20 18 14 12 8 12 13 13 15 14 14 13 13 14 12 11 11 10 9 7 6 7 7 7 7 8 9 9 9 8 10 11 9 7 6 6 6 6 7 8 9 10 11
31 33 41 42 38 31 22 22 18 16 12 12 14 14 14 15 17 14 14 13 12 11 12 12 11 9 8 8 8 8 9 9 10 9 10 9 9 11 8 7 6 7 8 9 10 10 11 13 13
34 40 46 43 37 32 28 24 20 19 17 16 16 17 16 16 17 16 17 16 14 12 12 12 12 11 9 8 9 9 10 11 11 10 9 10 10 11 11 10 9 10 11 11 12 12 13 14 15
38 46 42 41 36 35 31 33 28 24 24 17 17 18 19 21 22 24 23 19 15 15 13 14 13 12 11 9 9 10 11 13 12 11 11 10 12 12 12 12 11 13 13 14 15 15 15 16 17
37 40 41 42 38 37 35 34 33 33 28 21 15 19 19 22 24 26 26 24 22 19 16 16 16 14 12 11 11 12 13 14 14 12 13 13 13 14 14 14 14 14 14 15 16 17 18 19 20
36 38 38 38 39 40 39 40 38 39 35 27 24 21 20 21 25 26 23 23 24 23 19 17 18 17 15 14 14 15 16 17 16 15 15 16 16 16 15 14 15 15 16 16 17 19 20 22 22
29 33 39 39 38 39 43 44 41 42 37 36 30 28 26 25 25 26 28 27 27 25 22 22 23 22 19 19 18 18 19 20 18 19 18 16 17 16 15 16 17 17 18 18 20 22 22 23 22
32 35 36 34 35 38 39 49 53 44 39 41 39 35 32 31 29 33 33 32 34 32 31 29 25 25 23 21 22 22 22 22 21 19 17 15 15 15 15 16 17 18 20 21 22 23 23 24 24
23 30 34 33 33 32 32 60 41 41 42 45 44 41 40 38 31 32 35 32 29 24 24 27 28 28 26 25 26 25 23 24 21 19 18 15 14 15 16 16 18 19 22 22 23 24 25 26 28
28 26 24 24 29 27 32 49 40 41 37 46 48 46 45 41 33 35 32 27 26 22 21 24 28 29 29 28 28 26 24 23 23 19 19 17 15 16 17 17 19 21 22 23 25 27 29 30 31
23 22 24 28 23 20 31 47 42 38 36 40 44 47 47 40 31 27 29 26 24 21 21 22 26 31 31 30 29 27 24 24 22 19 18 17 16 16 18 19 20 23 24 26 29 31 33 33 32
31 19 20 26 17 24 35 38 42 46 43 43 44 44 45 34 27 27 27 25 23 21 21 23 25 26 28 29 28 25 24 24 23 19 17 15 16 17 18 20 22 24 26 28 30 32 33 33 32
33 34 34 35 25 24 37 47 43 43 49 47 44 45 43 37 33 32 29 26 22 21 21 22 23 23 24 25 24 24 24 23 21 17 16 14 15 17 19 20 22 25 28 30 31 32 33 33 33
35 37 32 32 28 34 37 54 47 45 43 44 47 42 45 38 35 30 32 26 24 20 19 19 18 18 20 22 22 23 23 21 17 14 14 13 15 17 19 21 24 27 29 30 31 31 32 33 35
34 33 27 30 22 16 10 14 32 29 39 43 44 47 41 35 37 33 33 31 28 21 18 17 17 17 18 19 21 19 16 15 14 13 12 13 15 17 20 24 26 28 30 31 31 32 33 35 37
25 17 22 22 23 24 37 20 22 24 38 42 40 41 42 41 41 37 34 29 30 25 22 18 17 19 19 18 18 17 16 14 13 12 11 12 15 18 22 25 27 30 31 32 32 34 36 37 37
35 23 26 19 27 17 30 23 27 34 41 36 33 32 37 38 43 40 37 34 33 29 24 20 18 20 19 19 17 16 15 14 13 11 12 13 17 21 24 27 30 32 33 34 35 37 38 38 38
26 26 6 10 12 10 6 25 43 9 26 38 28 27 34 31 41 45 42 38 33 30 25 22 20 21 21 19 18 17 17 15 13 13 14 16 20 24 27 30 32 35 35 36 38 39 39 38 38
34 32 11 5 4 6 19 15 37 36 47 24 27 25 32 35 37 42 39 34 30 29 26 23 21 24 23 20 19 18 17 15 14 15 16 19 23 27 30 33 35 37 38 39 40 40 39 39 40
24 34 35 19 17 6 12 32 49 49 38 29 23 26 31 33 32 38 40 33 31 29 26 24 23 26 24 21 20 20 18 17 16 17 20 23 26 30 33 36 38 40 40 41 41 40 40 40 42
37 23 13 20 6 6 12 18 26 24 40 36 31 30 30 31 32 36 39 35 34 32 28 26 26 26 24 23 22 21 20 18 18 20 23 26 29 33 35 38 40 41 42 42 42 41 42 43 44
30 36 18 19 14 4 3 12 21 26 34 31 32 29 27 29 28 28 34 35 33 33 28 26 29 28 26 24 23 22 20 20 21 24 26 29 32 35 37 40 41 41 42 42 41 42 44 45 46
36 41 35 17 12 24 8 21 27 15 23 27 26 24 23 24 21 20 27 31 32 30 28 28 30 28 27 25 24 23 22 23 25 27 29 32 35 37 40 42 41 42 41 41 43 44 45 47 48

GFSSGP_700_spd_036.txt.gz
Wind_Speed
19 17 14 13 9 7 7 5 7 7 6 8 6 9 7 7 9 4 10 7 4 1 2 4 6 7 8 8 9 10 11 11 11 10 8 7 6 4 3 2 1 2 2 3 4 4 5 6 7
20 18 16 14 11 12 9 9 9 9 7 7 8 7 7 6 9 8 9 6 3 2 2 3 5 6 7 7 8 9 9 10 11 11 10 7 6 5 4 3 2 2 2 3 4 4 5 6 8
21 19 18 11 16 24 8 12 10 10 7 6 7 10 8 8 7 7 10 8 5 2 2 2 3 3 4 6 7 7 8 8 8 9 8 8 7 6 3 2 1 2 3 3 5 6 6 7 8
23 20 20 21 23 14 17 14 9 10 8 5 4 8 10 11 10 10 9 8 6 5 3 2 2 2 3 5 5 6 7 7 7 7 7 6 6 5 4 3 3 3 3 4 5 7 8 8 9
23 23 24 22 28 27 16 15 10 11 9 6 7 10 11 10 11 13 11 9 7 6 5 4 3 2 2 4 4 5 6 6 7 7 7 6 6 5 4 4 3 3 4 4 5 6 7 7 8
25 25 23 30 33 26 20 17 16 14 13 10 7 9 12 13 13 15 13 11 9 10 9 7 5 4 3 4 4 4 5 6 7 7 7 6 6 7 6 5 4 4 5 5 6 7 8 8 9
27 29 30 32 33 27 21 20 16 15 16 13 10 11 11 15 16 14 14 13 11 10 9 8 8 7 5 5 6 6 5 7 7 7 7 6 7 7 6 5 4 4 4 5 6 7 7 7 8
26 28 32 36 37 33 23 21 17 17 14 12 10 10 11 14 15 17 18 16 14 13 11 11 10 8 7 6 7 7 7 7 8 8 7 7 7 8 7 6 5 5 4 5 5 6 7 8 9
26 29 37 39 37 34 26 23 21 19 18 14 12 12 9 11 14 16 17 17 15 13 12 12 12 11 10 7 9 9 9 8 8 8 8 7 8 8 8 7 7 7 7 7 8 9 10 10 11
29 34 37 38 35 34 28 27 15 22 20 18 13 12 11 12 14 15 18 19 15 13 13 14 14 14 12 10 10 10 10 10 10 10 9 9 9 10 10 10 9 10 10 10 11 11 12 12 13
32 37 35 36 32 33 35 31 29 27 27 18 18 16 15 15 13 19 21 18 17 17 15 13 14 14 14 13 12 11 12 12 12 11 11 11 11 12 13 12 12 12 13 13 13 13 14 14 15
31 33 35 38 38 36 36 34 36 36 34 24 21 20 18 16 15 16 21 23 23 21 18 16 15 14 14 14 14 14 14 14 14 13 13 13 14 14 14 14 14 14 14 14 15 16 17 18 19
30 30 33 36 38 38 40 41 39 42 37 36 29 25 25 22 18 20 23 24 23 23 22 20 16 14 16 16 15 16 17 17 17 16 16 17 17 16 15 15 15 16 15 15 16 17 19 20 20
27 26 29 35 38 38 40 43 42 44 39 39 38 33 30 29 25 24 27 25 24 23 21 22 19 17 19 20 19 19 21 21 19 19 18 18 17 17 17 17 17 16 17 17 18 20 21 21 22
29 30 31 33 31 33 33 47 49 43 41 42 41 42 36 33 31 29 26 29 27 27 27 27 26 25 23 23 24 24 24 23 22 20 19 17 16 17 17 16 16 17 18 19 20 21 21 22 24
20 24 27 25 26 31 31 50 42 31 40 44 41 44 45 41 38 33 30 32 33 33 30 27 27 27 27 26 27 27 26 24 24 20 20 19 16 16 16 16 16 17 18 19 20 22 23 24 25
22 24 24 21 16 19 25 38 35 35 36 39 40 45 47 47 44 40 33 33 32 29 31 28 26 25 27 27 29 28 27 26 24 21 20 17 18 16 16 15 15 17 18 21 23 24 26 27 27
17 21 25 27 22 24 31 39 37 40 37 39 40 42 49 50 49 44 37 34 35 30 28 26 24 23 27 28 30 29 28 27 25 22 20 20 17 17 15 15 16 18 21 23 26 28 30 29 28
26 20 19 21 17 25 32 41 42 42 43 46 46 45 47 52 49 47 41 34 32 28 28 27 24 19 22 27 31 31 29 26 25 23 17 21 19 16 15 15 17 19 23 25 28 30 30 30 30
28 30 32 31 30 32 40 54 47 45 47 47 47 48 46 46 47 47 41 34 28 26 28 25 22 19 20 23 25 25 25 25 24 23 22 19 17 14 14 16 18 21 25 27 29 30 31 31 30
29 32 30 32 30 32 37 60 53 48 48 46 48 46 44 44 44 40 37 32 29 28 25 22 20 19 19 20 23 25 26 25 24 21 22 16 14 13 14 17 20 24 26 28 30 31 31 31 33
29 25 24 24 21 15 9 19 40 38 36 37 43 45 43 43 42 41 39 36 32 29 25 19 18 17 18 18 20 21 21 21 21 19 20 15 13 13 15 18 22 25 28 30 31 32 32 33 35
26 21 13 12 20 26 33 16 31 20 32 40 33 37 40 38 39 40 40 37 33 31 25 21 19 16 18 18 19 19 20 20 20 17 15 14 13 14 17 20 23 27 29 32 34 34 34 36 37
21 17 17 21 22 16 31 27 53 39 42 47 30 29 32 32 36 37 39 39 35 33 31 25 21 17 19 20 20 19 18 18 17 17 15 14 14 16 18 23 26 29 32 34 36 36 36 38 38
22 22 4 6 9 10 8 22 44 25 15 21 24 34 25 27 31 42 42 42 38 34 30 25 22 19 20 20 19 18 18 19 19 18 16 15 16 18 21 25 29 32 35 37 38 38 38 39 39
17 31 12 5 4 4 10 15 42 47 32 37 43 24 23 32 30 36 42 42 39 34 29 25 22 20 21 21 20 20 21 21 20 17 16 16 18 21 25 28 32 35 37 39 39 39 40 40 40
14 32 34 25 31 10 14 27 38 41 42 43 39 23 25 24 26 30 33 40 41 35 30 26 24 22 23 23 21 21 22 21 19 18 18 19 21 24 27 31 34 37 39 40 40 41 41 40 41
28 12 12 23 6 7 10 20 31 21 27 24 20 36 21 23 25 30 32 35 36 33 28 26 25 24 25 24 23 23 23 22 21 20 20 22 24 27 30 34 37 39 41 42 42 42 42 41 42
26 34 22 21 15 5 3 11 17 5 7 21 24 17 31 24 23 25 24 30 33 32 30 27 25 26 26 26 25 25 24 23 22 22 23 25 27 29 33 37 39 41 42 43 42 42 42 42 44
34 37 39 13 8 18 18 30 22 19 22 27 17 20 19 25 25 25 27 31 35 35 31 28 26 27 27 27 26 26 26 25 24 24 26 27 29 32 36 39 41 42 42 43 43 42 42 44 46

GFSSGP_700_spd_039.txt.gz
Wind_Speed
19 18 15 13 9 7 8 5 7 8 8 9 9 10 13 9 10 9 9 10 8 5 3 2 4 5 6 7 7 6 6 7 7 5 4 3 3 3 3 4 4 3 2 1 1 2 3 4 5
20 18 16 14 10 12 10 9 9 9 9 10 10 9 11 11 11 6 10 12 8 5 2 2 3 3 4 4 5 5 6 6 6 6 7 6 4 4 4 3 3 2 2 2 3 3 4 5 6
22 20 17 12 16 24 8 9 12 10 8 7 10 10 10 10 8 11 15 9 7 6 5 3 2 2 2 3 4 5 5 5 5 6 6 6 5 4 3 2 0 1 2 2 3 4 4 5 7
23 21 19 20 22 14 16 8 15 12 10 8 8 7 11 10 9 10 13 13 11 11 7 5 3 1 1 2 3 4 4 4 4 4 4 4 3 2 2 1 1 1 2 3 3 5 5 6 8
24 24 24 21 29 26 14 14 13 14 12 11 10 8 8 10 11 11 13 14 15 12 10 6 4 3 3 2 3 3 4 4 4 4 4 3 2 1 0 1 2 2 3 4 4 5 5 6 7
25 26 22 30 33 24 20 18 18 16 14 12 10 8 7 11 10 12 14 15 14 13 11 9 7 5 5 4 4 4 4 4 4 4 4 3 3 3 3 2 3 3 4 5 6 6 6 6 7
25 28 29 30 31 25 22 22 19 20 20 15 14 12 10 11 13 13 15 15 15 14 13 12 11 9 8 7 6 6 6 5 5 5 5 4 3 4 4 4 3 3 3 4 4 4 4 4 6
25 27 26 33 34 32 25 22 19 20 20 19 17 12 12 12 13 16 17 15 15 15 15 14 13 13 11 9 7 7 7 7 7 7 7 6 5 5 5 4 4 4 4 4 5 5 6 7 8
25 26 32 35 33 32 21 21 23 22 20 18 16 14 10 10 12 13 15 17 17 17 16 16 16 15 14 12 10 9 9 9 9 8 8 9 8 7 6 6 6 7 7 7 7 8 9 10 11
27 30 33 33 32 32 29 26 24 18 24 22 20 17 14 11 11 12 15 17 15 15 16 17 17 16 15 14 13 11 11 11 10 10 10 10 10 10 9 8 8 9 9 9 9 10 11 12 13
28 31 30 32 32 32 32 30 30 27 26 27 25 22 20 18 16 18 17 17 16 17 15 14 15 17 17 16 15 15 13 13 12 11 11 11 12 12 12 11 11 11 11 11 11 12 13 14 15
28 28 30 32 33 34 33 31 30 34 32 29 28 27 24 24 22 20 20 20 21 20 17 17 16 15 15 16 16 17 16 15 15 14 12 13 14 14 14 14 14 14 13 13 14 15 15 16 17
28 28 30 32 34 36 36 39 38 38 34 35 34 28 27 27 27 25 22 22 21 20 22 21 18 16 16 16 16 17 18 18 18 17 15 14 15 16 16 17 17 17 15 14 15 16 16 18 18
26 25 27 31 33 36 38 38 39 39 34 38 40 40 32 31 29 29 27 25 25 23 23 23 22 19 17 16 18 19 20 21 21 21 18 16 17 17 17 17 17 16 16 16 15 16 18 19 20
23 27 28 29 29 33 31 40 45 34 36 38 39 43 42 38 33 34 30 27 27 27 25 23 23 22 20 20 21 23 23 24 25 24 21 18 18 16 17 16 15 15 15 16 16 17 18 20 21
18 22 24 20 22 27 29 44 33 25 30 36 39 41 44 45 43 39 35 31 30 29 27 26 26 24 25 26 27 27 26 26 27 25 23 21 19 16 16 15 14 14 14 16 16 17 19 21 23
23 22 23 19 17 19 24 34 28 25 31 35 35 36 42 48 48 46 42 38 34 34 31 29 29 28 26 29 30 31 29 27 27 25 22 22 19 17 16 15 13 13 15 16 17 19 21 22 24
11 17 18 19 16 21 31 43 38 32 33 35 35 35 39 46 50 49 47 44 40 37 34 31 26 28 28 30 31 31 30 27 28 25 23 19 17 21 16 14 13 14 15 17 20 22 24 24 24
20 20 22 23 21 29 36 44 41 36 39 42 40 39 40 42 44 50 50 49 46 41 36 32 27 28 27 28 30 32 31 27 26 25 25 17 16 23 16 14 14 14 16 19 22 25 26 27 27
23 26 28 30 22 26 35 53 47 45 44 44 42 43 43 43 41 44 49 50 49 43 36 31 28 29 29 27 25 26 27 27 26 27 25 22 17 22 17 14 14 14 17 20 24 26 28 29 28
24 27 25 27 29 31 35 57 47 41 43 42 43 43 45 42 41 43 45 48 46 44 35 31 29 29 28 26 26 25 26 26 26 26 24 23 24 19 15 13 13 16 19 22 25 28 30 31 30
22 22 19 18 15 11 10 17 34 39 39 38 38 29 38 41 40 39 44 46 43 41 35 33 30 27 26 23 23 23 22 23 24 25 22 25 22 18 14 13 14 17 20 24 27 29 31 32 32
21 20 19 17 16 23 24 12 39 24 40 46 39 30 28 33 34 36 40 45 40 38 36 35 30 25 23 21 21 21 20 23 24 23 25 24 23 16 14 14 16 19 23 27 30 32 33 34 34
15 15 12 18 19 13 27 21 44 39 41 26 14 18 26 28 27 28 32 40 42 40 38 37 32 25 22 20 20 20 20 22 24 24 25 19 17 15 15 16 18 21 25 29 32 34 36 36 36
18 10 2 4 6 7 3 16 42 28 22 29 32 32 22 23 22 26 30 39 43 43 40 37 33 27 22 20 21 22 22 22 20 24 22 23 17 16 17 18 21 24 28 32 34 37 38 38 38
21 26 10 7 5 3 11 15 21 32 28 33 29 31 18 18 23 25 28 37 40 41 40 38 35 28 23 20 22 23 22 19 24 24 21 19 18 17 19 21 23 27 31 34 37 39 39 39 39
15 24 29 24 28 13 18 38 47 52 42 28 20 27 29 24 22 25 27 34 40 40 39 35 33 28 24 21 23 24 23 25 25 24 21 19 19 19 21 23 26 30 33 37 39 40 40 40 40
25 9 10 24 5 8 9 21 29 24 24 27 25 24 24 26 21 22 26 31 38 40 39 36 31 27 24 23 23 24 24 24 24 23 22 20 20 21 23 26 29 32 36 39 40 41 41 41 40
22 34 27 20 16 5 7 13 21 24 21 16 9 20 23 25 23 22 24 30 33 39 40 37 30 30 27 23 23 25 25 24 24 23 22 22 22 24 26 29 32 35 38 41 42 42 41 41 41
31 33 33 24 12 18 23 36 29 25 22 24 24 30 30 18 27 24 23 27 30 35 40 37 31 28 26 24 25 26 26 25 24 23 23 23 25 27 28 31 34 37 40 42 42 41 41 41 42

GFSSGP_700_spd_042.txt.gz
Wind_Speed
21 19 16 14 6 7 10 7 11 5 8 16 14 12 11 11 7 10 10 12 10 8 5 4 3 3 3 4 5 4 4 4 4 4 4 4 3 1 2 3 4 4 4 3 2 2 3 4 5
22 20 17 14 9 14 12 11 9 8 12 11 13 13 12 10 11 10 8 14 12 8 6 4 2 2 1 2 4 4 4 3 3 3 3 2 2 0 1 2 3 3 3 3 4 4 5 6 7
22 21 16 10 15 21 10 11 10 13 11 11 13 13 13 13 13 13 11 12 9 7 6 5 3 3 1 1 2 2 3 3 3 3 3 2 2 0 2 2 3 3 4 4 5 6 7 7 9
23 22 21 17 21 15 17 9 13 13 12 13 15 12 14 12 15 14 14 17 17 14 10 7 5 4 2 1 1 1 1 2 3 3 3 2 2 2 2 2 3 3 4 5 5 6 7 8 9
23 24 18 19 27 21 15 15 17 16 14 14 15 9 13 14 12 15 17 18 16 14 13 12 9 6 4 3 3 3 3 3 3 4 3 3 3 4 4 5 5 4 5 5 5 5 6 6 8
24 24 18 27 27 21 23 18 20 19 16 14 15 15 13 14 13 15 17 18 17 18 19 16 12 10 8 7 6 6 6 5 4 5 5 4 4 4 5 5 5 5 5 6 6 6 7 7 8
24 23 26 24 26 24 23 23 24 19 19 14 17 12 12 15 16 14 15 17 17 18 19 18 16 14 12 11 10 8 8 7 6 6 6 6 6 6 5 4 3 3 3 4 4 4 5 5 7
26 21 21 26 29 28 19 24 25 25 18 23 19 15 13 16 15 17 15 15 17 19 21 20 19 17 15 14 12 10 9 9 9 8 7 7 7 7 7 5 4 4 4 4 5 5 6 7 9
26 21 25 27 23 23 23 25 26 26 25 25 23 22 22 20 16 14 15 17 17 19 20 21 20 19 17 16 15 13 11 11 11 10 10 9 8 8 8 8 7 6 6 7 7 8 9 10 11
26 22 25 22 25 21 20 24 24 24 27 26 24 24 23 21 20 18 16 16 18 20 22 22 22 21 20 18 17 15 14 13 12 11 11 10 10 10 10 9 9 9 9 9 10 11 11 12 13
27 26 23 30 29 32 31 29 29 28 27 27 23 26 27 24 22 21 21 20 19 19 18 20 22 22 21 20 18 18 17 16 14 13 12 12 12 11 11 11 11 12 11 12 12 13 13 13 14
26 26 29 26 28 31 30 28 30 31 32 25 31 32 30 29 26 26 25 22 20 18 19 19 18 18 19 19 19 19 19 19 18 16 14 14 14 14 14 14 14 14 14 13 14 14 14 14 15
25 27 29 30 30 30 33 35 36 36 30 33 34 35 35 34 31 30 28 28 28 24 22 21 19 19 19 18 18 18 18 20 20 19 17 16 16 17 17 17 17 17 16 15 15 15 15 15 16
24 25 27 30 31 34 35 37 37 38 31 37 38 41 39 37 35 33 33 31 30 27 26 26 24 22 20 19 18 19 20 20 21 21 20 19 18 19 18 18 17 17 16 15 15 15 15 16 18
23 24 27 27 28 31 32 38 42 32 33 38 40 41 45 42 37 38 36 35 32 30 31 29 27 25 23 21 19 20 22 23 23 24 22 22 21 21 19 17 16 15 14 15 14 14 15 18 20
14 19 15 22 22 25 28 36 23 22 27 32 39 40 44 47 45 41 39 38 37 35 33 31 29 27 26 24 24 26 27 27 26 27 27 25 24 21 19 17 15 13 13 13 13 14 16 20 22
15 12 14 17 19 20 25 23 24 24 28 32 34 34 39 45 50 51 47 44 41 38 36 34 31 29 27 29 29 29 30 32 30 29 28 25 25 21 20 17 14 12 12 12 13 15 18 21 23
9 12 13 14 11 20 27 34 33 33 33 34 33 33 38 39 45 51 53 51 47 43 40 37 34 31 29 29 33 32 34 35 33 30 28 26 24 21 17 20 15 13 12 12 13 17 19 21 23
15 11 14 16 21 27 34 39 35 38 40 39 37 40 38 38 41 45 54 54 54 50 47 41 38 35 31 30 32 33 35 35 33 30 28 25 27 23 19 22 17 15 13 13 15 18 20 22 24
18 19 20 20 18 20 27 48 40 42 43 41 40 40 40 38 39 40 47 55 56 55 52 48 42 38 33 31 31 31 32 32 32 32 29 27 27 22 20 20 16 15 14 14 17 19 22 24 26
19 20 19 20 20 25 28 46 22 15 22 24 31 35 38 40 40 39 41 49 55 56 55 51 45 38 34 31 34 32 30 31 31 32 30 30 26 25 22 20 16 15 14 16 18 21 23 26 27
18 17 17 15 12 10 5 16 28 30 30 29 26 24 20 26 31 36 38 43 50 55 53 51 47 41 35 33 33 31 31 30 31 32 28 28 27 24 21 17 16 15 15 17 20 22 25 27 29
11 10 8 11 15 20 18 12 32 19 30 27 21 18 22 25 29 28 30 38 44 49 51 49 46 40 34 34 33 31 30 30 29 29 28 28 25 26 22 18 17 16 17 19 22 25 28 30 32
12 10 11 11 11 11 21 22 36 24 18 13 5 6 13 20 17 30 29 35 41 47 47 46 45 38 35 34 32 31 28 24 27 29 27 24 26 25 21 20 18 18 20 22 25 28 30 33 35
18 11 3 5 7 8 3 17 40 16 20 21 25 19 20 23 24 20 29 34 40 47 48 44 41 40 37 34 32 28 27 25 25 28 24 23 25 21 19 20 19 21 23 25 28 31 33 36 37
19 18 8 6 5 8 6 15 20 19 25 17 26 31 24 23 24 21 25 30 39 44 47 45 42 41 37 35 31 27 27 26 27 24 23 25 22 24 23 21 22 23 25 28 31 33 36 39 39
10 19 18 23 25 16 17 32 43 36 31 27 21 15 16 21 21 27 26 26 35 43 47 45 42 39 37 35 29 26 25 25 24 24 20 28 25 22 22 22 24 25 28 31 33 35 39 41 41
17 7 5 12 5 9 13 27 27 21 21 18 18 25 23 18 23 33 29 28 33 39 43 45 42 38 37 34 29 25 24 25 23 23 28 25 25 23 23 24 26 27 31 33 35 38 41 42 42
20 25 15 13 13 6 10 19 16 17 11 14 20 22 11 13 18 28 29 29 32 37 42 44 42 37 34 33 28 25 24 24 26 29 28 25 24 24 25 26 27 30 33 35 38 41 42 42 43
19 19 24 17 11 19 25 41 27 26 24 24 25 23 28 28 24 24 29 28 30 38 43 44 41 37 34 30 27 24 23 25 25 29 25 24 24 25 26 28 30 33 35 38 40 42 42 42 42

GFSSGP_700_spd_045.txt.gz
Wind_Speed
22 20 16 13 7 10 16 15 13 8 8 11 12 13 9 13 5 12 10 16 11 10 8 4 1 3 6 6 6 6 6 6 6 6 6 4 4 4 2 2 3 4 5 6 6 5 5 5 4
22 20 16 9 12 18 17 14 11 10 10 10 12 14 10 8 14 13 6 11 12 11 8 5 3 6 5 3 4 5 5 5 5 5 6 5 3 2 2 2 2 3 3 3 3 3 4 4 5
22 20 13 12 21 25 18 9 11 12 8 7 8 15 9 9 15 14 9 11 13 10 8 6 5 4 3 3 1 3 4 4 4 4 5 5 5 5 4 4 3 4 4 4 4 5 6 6 7
20 19 16 19 22 19 20 12 10 9 7 11 10 8 15 14 15 12 12 12 12 10 8 8 7 7 5 4 2 2 4 5 6 6 7 7 6 6 6 6 5 5 5 6 6 6 7 7 7
21 16 20 22 29 24 17 15 12 11 9 8 11 12 10 18 15 16 16 15 16 17 17 14 11 10 9 6 5 4 3 4 5 6 6 6 6 7 7 7 7 7 6 6 5 5 5 6 6
18 17 22 28 28 22 21 18 13 14 12 11 11 12 10 18 18 15 18 19 20 20 19 16 16 14 12 10 8 7 6 5 5 5 6 6 6 7 7 8 7 7 7 6 6 6 6 6 6
21 20 27 27 25 23 22 20 19 15 15 14 11 13 13 18 21 20 19 19 19 21 22 21 19 16 15 13 12 10 9 8 7 7 7 7 7 6 7 7 7 6 5 5 5 5 5 5 6
19 23 28 28 29 28 20 20 19 17 19 16 18 14 14 19 22 20 19 19 19 20 20 21 20 19 18 16 15 13 11 10 9 9 9 9 8 8 7 7 7 7 7 6 6 7 7 8 9
26 23 30 28 27 26 20 19 18 16 20 19 16 18 22 22 20 20 21 20 20 21 21 22 22 22 21 20 17 15 13 12 12 12 12 11 11 10 8 8 8 8 8 8 9 9 9 9 10
24 25 27 20 21 25 19 20 14 20 23 24 18 19 29 26 23 22 20 21 22 22 21 22 22 23 23 23 20 18 16 15 15 14 13 12 12 11 11 10 10 10 10 10 11 11 10 11 12
18 27 19 22 25 24 18 20 20 20 20 19 21 19 27 27 26 25 24 22 24 22 23 23 24 25 25 25 23 22 20 18 17 16 15 14 13 12 12 12 13 13 12 12 12 12 12 12 14
22 20 23 19 19 28 29 21 23 23 29 19 20 25 27 29 28 27 26 25 21 25 25 23 21 22 24 24 23 23 22 21 20 19 17 16 15 14 14 15 15 16 15 15 14 13 13 14 15
20 20 17 24 26 27 27 28 26 24 27 32 28 30 38 32 33 31 30 29 27 28 27 23 23 21 20 20 20 22 22 21 21 21 19 17 16 16 17 18 18 18 17 16 15 15 15 15 15
8 21 24 23 27 28 30 34 30 33 27 33 35 39 37 36 37 35 33 33 33 31 30 28 26 25 23 21 20 20 21 20 21 20 19 18 18 18 19 20 19 19 18 17 15 15 15 15 16
21 23 22 27 28 26 25 34 37 30 31 34 35 37 39 42 41 42 38 37 35 34 33 33 33 31 30 27 24 21 21 21 22 22 21 21 20 19 20 21 20 19 18 17 15 15 14 15 16
12 16 15 10 18 19 22 27 9 10 21 28 33 36 39 42 47 46 46 42 41 40 38 36 36 33 32 29 28 25 24 26 24 24 24 24 23 23 23 25 20 18 17 16 15 14 14 16 18
13 13 14 15 16 13 19 19 12 19 26 26 25 28 30 38 45 49 49 46 42 43 43 41 38 35 33 31 30 27 27 29 29 28 28 28 27 28 23 23 21 17 15 15 14 15 15 16 19
14 17 14 15 8 13 19 28 29 26 30 31 30 28 29 34 38 45 52 53 48 43 46 44 44 39 35 34 33 30 31 32 31 31 32 30 30 29 24 21 20 17 16 14 14 14 15 17 19
11 7 12 14 14 23 27 30 30 32 36 38 37 36 37 38 36 40 43 55 60 56 54 52 48 42 38 35 34 32 33 33 36 34 32 30 30 28 24 21 21 19 18 15 15 15 16 17 20
15 16 17 19 18 20 24 40 36 38 40 39 38 39 38 39 37 37 40 46 53 61 61 56 52 49 44 39 36 35 37 37 35 33 32 32 30 27 24 20 21 19 19 16 16 16 16 18 21
15 16 16 18 19 24 28 44 22 17 22 21 23 27 31 34 36 36 38 41 44 53 61 61 57 54 49 46 41 39 39 35 31 29 31 31 30 28 26 22 21 22 20 18 17 17 18 20 21
13 12 14 15 13 9 4 15 27 27 26 27 24 21 24 23 27 29 34 40 42 44 53 59 60 57 54 51 47 42 35 33 32 30 29 30 31 31 29 23 23 20 20 19 18 18 19 22 25
8 6 6 9 13 19 19 13 30 13 20 19 18 19 19 21 22 25 29 36 42 42 47 53 57 59 58 54 48 41 36 37 34 32 30 31 31 31 29 24 25 23 21 20 19 20 22 25 28
11 7 8 10 11 10 21 23 29 11 10 8 14 15 11 11 17 24 30 34 38 44 47 51 54 54 58 56 48 42 40 36 33 32 30 30 33 30 27 24 21 23 23 21 21 23 25 28 31
13 5 2 5 5 8 4 15 30 15 21 17 14 16 17 21 22 29 33 31 40 42 48 52 51 51 52 51 46 41 41 33 32 30 27 28 30 29 26 28 25 23 22 22 24 26 28 31 34
15 13 6 5 4 8 9 12 11 7 15 20 20 22 21 27 22 25 28 33 37 42 42 52 48 49 49 47 43 43 36 32 31 30 31 30 28 26 26 25 23 23 23 24 26 28 31 35 37
7 17 12 18 25 15 15 24 29 27 21 19 20 25 21 18 17 22 27 30 33 41 40 46 47 47 45 43 45 40 34 31 28 30 30 30 27 28 24 25 25 25 25 27 29 31 34 37 40
13 6 5 9 5 7 12 23 24 22 22 20 21 17 18 19 28 27 28 26 33 31 37 37 42 47 43 44 42 37 31 29 28 29 30 25 23 27 28 28 25 25 27 29 31 34 37 40 41
19 22 12 11 12 5 10 15 14 20 17 17 19 20 22 18 22 24 21 24 32 28 33 35 43 48 46 43 39 34 30 28 27 28 26 23 24 25 26 26 26 27 28 31 34 37 40 42 43
17 14 21 12 9 14 19 39 31 27 17 22 23 20 19 18 29 32 26 26 28 27 34 36 44 47 44 39 34 33 29 27 26 27 22 27 28 28 27 26 27 28 30 33 36 40 42 42 45

GFSSGP_700_spd_048.txt.gz
Wind_Speed
19 17 14 12 7 9 15 18 11 8 6 12 13 12 12 7 7 8 7 12 12 10 8 6 3 2 9 10 8 7 7 6 6 7 7 7 7 6 4 4 2 1 2 2 3 5 7 6 3
20 17 14 10 11 15 21 14 14 14 10 11 17 19 14 5 13 10 3 8 12 11 9 7 4 4 8 9 8 7 5 6 7 7 8 7 6 6 5 3 2 2 2 3 3 3 4 4 3
20 17 14 7 18 24 19 9 7 7 17 16 2 5 8 12 14 19 9 7 11 11 9 8 5 4 5 5 5 6 5 5 6 7 7 7 7 6 6 6 5 4 3 3 3 4 4 4 5
19 18 19 19 23 19 19 15 10 12 13 7 9 6 16 11 11 17 13 10 12 13 11 8 6 7 7 6 6 5 5 5 6 6 6 6 6 6 5 5 5 6 6 5 5 5 5 5 6
20 20 18 18 29 25 20 15 8 11 7 6 8 10 9 15 18 14 12 13 13 13 12 11 10 10 9 8 7 7 6 6 6 7 7 8 7 6 7 7 7 6 6 6 5 5 4 4 4
23 25 15 26 27 21 19 17 21 16 13 8 14 15 9 13 18 16 15 15 17 16 15 16 14 13 13 11 9 9 8 7 7 7 8 8 8 8 8 9 8 7 6 5 5 5 5 5 5
27 24 26 23 24 21 20 16 21 15 14 16 11 12 16 18 17 18 16 17 18 20 17 18 18 17 16 13 12 11 10 9 7 8 8 9 9 9 8 7 7 7 6 6 5 4 3 3 4
27 23 26 25 26 27 19 14 26 24 20 12 17 18 11 15 16 21 20 18 19 20 18 19 20 19 18 16 15 13 12 10 8 8 9 9 9 8 7 8 7 7 7 6 6 5 5 6 6
23 26 29 29 26 25 18 23 17 24 20 18 21 21 17 16 15 18 21 21 21 21 21 21 19 20 20 19 18 16 14 13 11 10 10 10 10 9 7 7 8 8 8 8 8 7 8 8 8
30 33 31 24 20 23 24 26 25 23 21 27 15 21 25 23 18 19 21 23 23 23 23 23 23 22 23 21 21 19 18 16 14 13 13 12 11 9 8 8 9 9 10 10 10 10 10 11 10
30 36 23 25 21 27 25 19 22 20 22 23 23 19 23 29 27 22 23 24 23 25 25 24 25 24 23 23 23 22 21 19 18 15 15 14 13 11 10 10 11 11 13 13 12 12 11 13 14
24 18 25 22 16 26 33 29 23 22 31 24 18 19 21 31 29 31 29 27 26 28 26 27 26 25 25 24 25 25 24 23 21 19 17 15 14 13 12 13 13 14 15 16 14 14 13 13 13
18 20 22 20 27 26 31 34 41 36 28 28 30 32 29 30 29 29 29 29 26 21 31 29 26 24 25 23 23 26 25 24 23 21 19 17 16 15 14 14 15 16 17 17 17 17 17 15 14
11 21 24 23 22 32 34 33 31 33 26 30 33 38 40 41 36 33 32 33 32 30 27 31 27 27 24 24 23 23 22 21 21 20 17 16 16 15 15 16 16 17 19 19 18 18 17 16 15
26 20 20 27 32 32 27 36 37 28 28 33 34 34 41 43 44 42 38 37 35 34 29 33 30 29 29 25 22 22 23 22 20 20 19 17 17 17 17 17 17 16 24 22 19 18 16 16 16
18 22 23 20 19 21 22 37 19 6 17 30 34 35 37 39 40 40 41 42 41 40 37 35 36 34 34 34 30 25 26 26 23 22 21 20 19 20 20 19 19 22 23 27 20 18 16 16 16
12 11 15 9 13 12 21 25 12 8 22 24 24 27 32 37 40 41 42 44 46 45 43 40 38 40 36 36 32 29 27 30 30 26 26 25 23 22 22 23 23 20 19 19 20 18 16 16 16
9 17 14 13 11 16 18 25 27 24 25 27 28 30 31 34 34 36 40 44 48 48 47 45 44 46 39 37 37 32 31 33 32 28 30 28 27 25 25 24 24 21 19 17 16 19 17 16 16
11 12 8 10 12 21 26 33 32 30 33 34 36 35 34 34 31 33 36 38 46 52 47 43 50 51 45 42 41 37 33 36 33 32 30 30 25 25 26 26 24 22 18 18 18 19 18 17 16
15 16 17 17 15 20 27 37 34 31 33 32 33 34 33 33 33 33 35 36 39 49 56 52 48 53 55 48 44 39 37 36 32 32 31 31 29 25 26 27 25 23 20 18 21 20 20 18 17
14 14 14 17 19 24 25 39 15 8 17 16 17 21 28 32 34 34 36 37 38 41 47 61 58 55 55 52 45 45 42 41 35 34 31 29 28 25 26 26 24 26 23 22 27 23 22 19 18
8 9 11 13 10 5 8 12 33 26 25 28 25 23 26 31 32 32 30 36 36 39 41 42 58 62 58 56 51 50 47 44 37 33 30 29 26 27 27 27 28 29 25 24 23 23 21 20 20
10 12 11 6 10 17 13 10 28 21 22 18 16 18 17 21 23 23 27 34 39 39 38 40 43 51 55 61 58 56 52 47 41 35 32 30 28 29 28 29 30 30 26 23 23 24 22 22 22
11 9 9 6 7 7 13 18 20 6 4 11 6 17 19 14 19 19 19 24 30 36 45 45 41 43 47 52 57 60 55 50 45 38 34 31 30 30 31 31 31 30 28 26 27 24 23 23 25
13 5 2 3 3 6 3 17 28 9 15 18 20 19 22 21 20 23 23 28 29 29 35 41 48 42 45 50 52 56 58 52 46 40 34 32 30 31 31 33 30 28 28 28 26 24 24 25 27
15 11 4 4 2 4 7 12 12 11 11 15 17 19 24 27 30 34 38 39 37 37 33 32 46 50 47 50 47 44 54 52 47 41 36 33 30 28 31 33 29 27 27 25 26 25 25 28 30
9 15 5 5 12 7 11 14 24 21 24 20 23 16 19 18 24 31 38 40 34 31 35 32 35 51 52 49 40 45 48 44 42 38 36 33 29 30 31 28 30 29 26 28 27 26 27 30 33
8 6 5 6 2 5 7 18 18 3 8 7 9 13 15 19 25 30 33 34 30 26 29 31 31 41 46 46 44 47 41 35 36 36 33 29 29 31 30 26 26 27 30 28 27 27 30 33 36
23 18 8 5 7 3 4 6 6 14 19 22 27 24 23 23 25 31 39 32 25 22 26 29 27 30 39 42 47 45 37 37 36 33 31 29 30 28 30 27 27 27 29 27 27 30 32 36 39
15 16 22 6 5 11 10 15 19 10 17 24 24 39 28 24 30 36 34 28 26 25 23 29 27 32 37 43 42 34 34 34 33 31 28 27 28 26 23 28 27 28 27 28 29 32 35 38 41

GFSSGP_700_spd_051.txt.gz
Wind_Speed
19 17 15 14 8 9 14 11 9 7 13 13 13 9 9 6 8 8 2 9 9 9 8 6 6 2 3 6 9 10 9 7 7 6 6 6 6 5 5 5 5 3 3 2 0 2 2 2 2
21 18 16 13 12 14 18 9 9 8 18 16 17 16 10 9 11 10 2 6 9 8 8 8 6 2 3 7 7 6 4 5 6 7 7 7 7 7 6 5 5 4 4 3 2 2 2 2 3
22 21 18 14 18 24 19 11 8 12 14 16 14 13 17 12 14 14 10 4 9 10 10 10 8 4 2 5 6 6 5 4 5 6 7 7 6 6 6 6 6 4 3 2 3 3 4 4 3
22 22 21 20 23 23 23 13 5 13 12 12 12 5 12 10 14 16 14 11 11 11 12 11 8 4 7 5 8 6 6 6 6 6 6 7 7 6 6 5 5 4 3 3 3 3 3 2 3
24 24 26 23 32 24 15 13 1 9 10 10 14 11 5 17 16 14 18 15 12 13 13 12 9 7 7 7 9 7 8 7 7 7 7 7 7 7 6 6 5 4 3 3 3 3 3 4 4
24 26 20 31 31 24 22 15 16 15 15 12 10 15 12 11 11 15 20 16 15 16 15 13 12 10 9 10 10 7 9 8 7 6 7 8 7 7 6 6 6 6 5 4 2 2 2 3 3
28 29 34 29 28 22 17 9 11 17 21 18 15 14 15 18 13 13 19 18 18 17 16 15 15 14 14 13 13 11 10 9 8 6 6 8 8 7 6 5 5 6 6 5 4 3 1 2 3
29 30 33 33 33 28 15 18 20 23 29 22 21 16 22 13 15 16 19 20 18 18 17 18 17 17 17 16 15 14 12 11 9 7 6 7 8 8 7 6 5 5 5 5 5 5 5 5 5
27 33 34 35 32 29 21 21 9 23 23 22 23 20 21 19 16 17 19 24 23 21 19 18 19 19 18 18 17 16 15 14 12 10 9 8 9 7 6 6 6 6 7 7 6 7 7 7 7
35 39 40 33 30 24 18 22 19 22 24 22 24 24 22 19 21 19 19 20 22 23 23 22 21 20 19 19 19 19 18 17 16 14 12 10 8 7 6 6 6 7 8 8 9 9 9 9 9
35 40 36 31 23 25 28 26 21 19 24 26 29 28 27 27 30 25 23 23 22 22 25 24 24 24 22 21 20 20 20 19 18 17 16 13 10 8 8 7 7 8 8 9 10 11 12 12 12
30 34 32 25 23 28 28 32 29 28 25 26 29 32 27 26 32 31 30 26 26 26 25 25 26 26 24 23 23 21 21 21 20 19 19 15 14 12 11 9 9 9 9 11 12 13 15 15 15
23 27 24 23 29 31 32 35 37 34 32 35 32 35 32 23 29 34 32 32 31 32 31 31 29 27 27 25 25 25 24 23 20 20 20 18 16 15 13 12 12 11 11 11 14 16 16 15 14
14 18 19 27 27 32 35 40 39 45 31 35 32 35 35 29 30 30 36 34 30 31 35 34 33 29 27 27 26 25 24 22 22 21 20 18 16 15 13 13 14 14 13 15 15 17 20 18 16
20 21 24 32 29 32 41 43 45 33 30 38 41 37 44 38 40 39 33 36 35 33 33 37 36 33 28 26 26 24 22 22 21 20 19 18 16 15 14 15 16 16 17 19 21 16 19 21 17
27 25 29 24 21 27 31 45 34 25 25 32 36 39 37 47 49 47 43 41 39 36 37 38 39 39 33 29 27 26 25 25 23 23 21 20 19 17 17 18 18 18 18 19 21 20 17 19 20
21 17 18 14 16 14 23 31 22 19 29 28 27 27 36 38 43 47 45 43 44 43 40 38 38 42 39 34 31 30 29 28 25 27 24 25 24 22 22 23 22 20 19 20 19 20 20 20 19
14 17 14 13 8 16 22 28 25 21 25 31 29 27 29 31 35 36 40 42 42 45 46 45 42 43 44 41 35 33 32 28 27 30 27 27 24 24 26 23 22 20 20 20 19 20 20 20 19
17 7 11 12 8 17 23 27 32 28 29 32 33 31 29 28 25 30 32 35 38 42 47 45 46 44 44 46 44 38 36 34 30 33 30 28 25 21 24 24 23 21 21 22 19 18 18 21 21
15 15 17 16 17 21 30 40 36 30 30 26 25 28 27 27 28 29 31 33 35 35 41 49 47 44 45 48 48 43 39 37 34 35 31 29 25 22 22 26 23 22 22 23 21 20 23 23 24
19 20 21 17 22 23 32 39 24 16 17 13 14 15 18 22 26 30 33 34 37 38 38 44 48 45 42 44 48 49 45 41 39 38 33 30 25 24 22 26 23 23 23 24 23 23 24 24 24
19 17 13 14 14 9 8 11 24 18 20 23 15 17 20 22 24 27 29 31 38 42 41 43 48 52 48 45 47 53 52 47 44 41 36 32 29 26 24 25 24 25 25 27 26 25 23 24 23
12 12 14 15 15 19 18 11 14 15 19 14 16 17 11 11 15 16 18 21 24 31 42 43 44 55 56 54 50 51 54 48 44 41 39 36 31 29 26 27 27 28 27 28 27 26 25 25 25
13 14 9 9 9 5 12 13 5 4 3 3 7 9 8 11 16 17 20 21 20 22 30 38 40 42 48 61 59 57 60 55 48 45 42 40 36 33 29 29 30 32 30 28 27 32 28 28 28
17 8 2 1 2 6 3 11 18 5 5 9 14 11 11 18 23 25 27 27 27 27 27 31 42 43 43 44 56 61 60 60 55 49 43 39 35 34 31 31 31 33 32 30 28 26 30 28 29
18 10 4 5 3 4 2 10 5 12 17 14 12 14 18 19 21 23 30 34 35 34 36 35 32 39 46 44 47 48 50 51 46 45 42 41 38 36 34 32 32 32 33 28 31 28 29 28 29
12 14 4 3 6 2 8 9 20 4 11 14 20 18 14 21 25 31 37 34 33 35 38 38 37 35 39 49 46 47 47 45 40 39 42 40 39 38 36 34 32 31 28 27 27 32 29 29 30
8 8 6 5 0 4 7 9 15 7 5 6 10 12 14 18 21 28 35 38 39 35 32 33 28 27 30 42 46 49 46 41 35 35 37 37 39 39 36 34 30 28 30 30 27 31 33 28 32
21 11 7 5 4 4 2 8 8 8 18 24 21 24 25 27 26 27 32 35 39 35 35 30 25 22 28 33 44 45 43 38 32 31 34 38 35 34 34 30 25 31 31 30 35 30 25 32 33
18 21 16 5 3 8 4 14 8 12 18 21 34 44 46 42 45 39 33 36 40 40 33 28 18 22 28 29 35 41 38 36 32 31 32 31 32 33 29 27 27 27 31 28 30 30 26 31 33

GFSSGP_700_spd_054.txt.gz
Wind_Speed
20 19 17 15 10 11 15 12 15 6 5 8 11 10 8 10 6 5 3 12 14 15 13 10 8 6 2 3 7 9 7 5 5 5 5 5 4 4 4 4 3 3 3 2 0 1 1 2 0
22 20 19 16 14 18 21 16 11 10 9 8 14 17 9 9 10 8 3 12 17 16 13 11 10 8 4 3 7 9 7 5 4 5 5 5 5 4 4 4 4 4 2 2 1 0 1 1 0
24 22 20 16 20 27 25 12 5 5 9 11 16 15 18 16 17 13 8 4 12 14 13 11 10 7 3 2 4 6 5 5 6 6 6 6 5 4 4 3 3 3 3 3 2 3 3 3 3
26 24 24 23 25 27 25 15 8 6 10 15 12 14 15 18 22 17 13 8 8 12 12 12 11 8 2 1 3 4 5 5 4 5 5 6 5 5 4 4 3 3 2 2 2 2 3 3 4
26 27 29 26 34 31 23 20 9 10 7 16 15 14 10 15 13 14 15 14 11 12 12 13 12 8 4 4 4 6 6 7 6 5 4 4 5 6 5 5 5 4 3 2 2 2 3 4 5
27 30 23 34 35 31 25 15 13 9 9 14 18 18 12 10 13 12 15 13 12 16 16 15 14 9 7 6 8 8 5 8 7 6 5 5 5 6 5 5 5 5 4 3 3 2 2 3 4
30 31 34 33 33 30 23 19 18 16 16 20 20 19 20 16 13 12 10 16 14 17 18 17 15 11 11 10 10 11 10 7 8 6 5 6 6 6 5 5 5 5 5 4 3 2 2 4 5
31 32 34 35 34 32 20 19 19 18 17 22 24 23 22 22 21 18 14 12 16 18 19 19 17 15 14 13 13 13 13 11 10 9 7 7 7 7 6 5 4 4 4 4 5 5 6 6 7
31 36 38 38 35 33 20 22 21 12 14 22 31 27 22 21 21 20 18 18 19 20 21 21 19 18 17 16 16 15 15 14 12 12 10 9 7 7 6 5 4 4 4 5 5 6 6 8 9
36 42 41 39 35 27 26 27 26 16 13 22 29 27 25 25 25 25 21 19 18 22 21 20 19 19 19 18 17 16 17 16 15 14 13 12 9 7 7 6 6 6 6 6 7 7 8 9 11
39 43 42 32 34 29 32 28 26 16 21 26 27 26 28 27 27 25 25 22 20 18 19 20 20 19 19 19 19 19 19 19 18 17 16 14 12 10 8 8 7 7 6 6 8 9 10 11 12
36 39 38 33 31 28 30 32 32 24 24 28 31 28 23 25 31 31 30 28 25 24 24 22 23 23 22 21 20 21 20 20 20 19 18 16 15 14 11 10 10 9 8 7 8 9 11 14 15
36 34 35 33 29 28 33 34 36 37 27 30 34 35 33 33 34 39 38 32 32 30 28 28 27 25 24 23 23 22 22 22 22 21 20 19 17 16 14 14 13 12 11 10 9 10 12 12 15
22 31 28 30 30 36 35 37 40 42 35 32 34 37 38 41 41 41 41 38 36 35 36 33 32 31 30 29 27 24 24 22 21 22 21 20 18 17 15 15 14 15 14 13 13 15 16 15 15
26 16 18 24 31 34 35 45 50 41 38 40 39 39 40 40 43 46 44 42 37 36 35 36 36 34 33 30 28 25 24 23 21 20 19 17 17 16 16 16 16 16 15 15 16 16 17 18 18
21 19 23 23 23 27 27 51 43 37 36 39 42 47 50 43 44 44 43 45 39 36 35 34 34 34 33 30 28 26 25 24 20 20 21 19 19 19 18 16 17 18 18 19 19 17 18 19 18
16 20 23 24 21 27 31 39 33 27 36 38 36 40 47 47 47 53 50 46 43 40 38 38 40 38 37 35 31 29 29 27 24 25 25 22 22 21 21 20 22 23 21 20 19 18 18 19 19
15 19 22 23 14 13 24 31 27 24 27 27 30 35 39 39 42 44 54 53 49 44 42 41 43 43 40 38 38 35 32 30 30 29 27 22 21 21 21 21 23 22 20 19 18 18 19 19 18
13 11 10 15 15 21 26 29 31 28 32 32 28 27 30 29 25 36 45 49 52 51 51 48 45 45 45 42 41 40 37 34 33 31 30 27 23 23 22 20 23 21 18 18 18 18 19 18 18
20 18 16 17 17 22 27 34 32 30 32 29 28 29 27 29 27 28 32 37 43 45 48 51 53 50 49 47 43 46 41 39 37 34 34 31 26 26 23 21 22 22 20 20 20 20 20 19 21
14 20 20 18 20 23 30 38 33 25 28 26 24 22 25 27 26 27 30 32 35 37 37 39 45 52 50 48 43 45 44 43 41 38 36 36 29 27 25 22 22 23 23 22 23 22 21 21 23
13 17 19 20 17 10 12 10 22 17 19 15 14 16 16 19 21 23 27 34 38 38 39 39 40 44 54 53 47 48 48 47 45 40 38 38 35 31 26 24 22 24 25 26 24 26 25 24 23
14 15 16 15 15 18 20 9 9 8 12 11 14 13 12 12 16 17 18 23 28 35 40 43 43 44 45 52 54 51 48 47 46 43 40 40 39 35 31 26 23 25 26 29 28 27 27 27 24
16 14 10 11 12 4 7 12 8 2 7 5 1 5 7 10 14 13 13 14 16 23 31 38 42 47 45 50 54 54 52 47 46 47 44 42 39 38 33 29 27 26 29 31 30 30 30 29 29
19 10 1 2 1 6 2 6 10 6 1 1 7 12 12 12 15 18 21 23 25 24 23 21 27 37 42 50 55 59 57 54 51 46 46 43 43 39 36 32 30 28 30 32 32 33 32 29 30
19 14 4 5 2 4 4 6 2 3 9 10 8 9 11 13 14 18 22 23 24 25 27 29 28 28 29 37 47 53 56 52 50 47 47 45 43 45 42 34 30 29 31 35 34 35 33 29 35
14 11 10 2 4 2 5 5 10 2 4 9 12 15 17 21 23 25 27 30 32 33 34 34 32 36 36 36 39 46 49 47 43 43 50 46 45 43 41 36 33 32 35 38 35 35 34 34 30
7 12 6 5 1 3 6 9 10 5 3 5 8 12 17 22 27 31 34 37 37 36 36 38 39 35 33 31 34 43 44 46 43 40 41 38 38 39 39 37 35 37 39 37 36 33 34 31 33
18 14 7 5 3 3 2 8 4 6 10 18 24 18 27 31 35 38 39 43 44 41 42 38 39 37 33 30 30 34 39 43 43 40 37 35 36 36 37 37 37 38 33 30 29 41 34 31 40
23 17 16 4 3 3 2 10 2 5 13 19 26 38 40 30 25 27 28 27 31 36 33 39 41 39 28 25 28 25 32 36 37 36 34 33 32 32 35 37 38 32 29 33 32 37 37 34 32

GFSSGP_700_spd_057.txt.gz
Wind_Speed
23 22 20 17 11 12 17 12 11 9 9 7 6 4 6 9 7 6 7 13 12 12 12 8 8 6 3 2 8 10 10 8 8 7 5 5 5 5 6 6 5 5 4 4 4 3 3 3 1
24 23 22 18 16 20 21 18 11 8 10 10 7 7 11 10 10 5 7 13 15 16 15 12 12 9 5 4 7 7 7 6 5 5 5 5 4 4 3 4 4 3 3 3 2 2 2 1 1
27 24 23 18 23 32 24 17 10 9 11 11 9 10 13 14 13 10 5 10 14 15 15 14 13 10 6 3 4 4 5 5 6 6 5 5 5 4 4 3 3 3 3 3 2 1 1 2 3
28 26 26 25 28 31 30 18 13 8 14 11 8 14 13 11 16 17 12 7 10 15 16 15 13 10 5 3 1 2 4 5 5 6 6 5 4 4 4 4 4 3 3 3 2 2 2 3 3
29 30 31 28 37 33 26 23 21 11 14 11 12 15 13 15 14 18 20 12 8 12 15 14 13 12 8 3 4 1 1 6 6 6 5 5 5 5 5 4 4 4 4 3 3 3 4 4 4
30 33 25 38 37 33 29 23 17 18 14 13 11 13 14 14 16 14 16 16 12 12 15 15 14 15 9 6 6 4 5 2 6 6 5 5 6 7 6 5 5 5 4 4 4 4 4 4 4
33 35 37 35 36 34 29 25 23 19 19 17 13 15 15 16 15 15 14 17 14 12 18 18 17 17 11 9 8 6 8 7 4 5 5 5 7 8 7 6 5 4 4 5 5 5 5 6 7
32 34 37 37 35 36 29 26 21 21 23 20 20 20 20 14 18 14 14 15 18 16 16 20 19 16 13 11 11 9 10 9 7 7 8 7 6 7 7 6 4 4 4 5 5 5 5 5 6
33 36 39 37 35 34 27 22 22 24 22 23 23 24 23 19 18 22 21 18 17 19 15 17 19 18 17 14 13 12 12 11 11 9 10 10 9 6 6 7 6 4 4 3 3 4 6 7 8
37 43 42 37 35 31 29 26 25 25 19 18 19 25 29 27 24 20 22 19 19 17 19 20 19 18 19 16 15 15 15 14 13 13 12 12 11 9 7 6 7 6 5 4 5 6 7 8 9
41 45 42 38 37 33 33 29 32 29 25 17 18 22 29 28 25 23 23 24 20 18 18 22 21 20 18 17 17 18 17 16 16 16 15 14 13 12 10 9 7 8 7 7 7 7 9 10 12
40 43 40 38 34 30 37 32 33 32 29 24 22 25 27 27 26 24 24 24 21 21 21 19 20 20 18 19 18 18 18 19 18 18 17 16 15 14 13 12 11 10 10 10 9 8 8 11 13
40 37 37 35 33 34 37 33 33 38 34 30 28 27 30 32 32 28 26 26 26 26 23 22 22 23 21 20 19 19 18 19 19 19 19 19 18 17 16 15 14 13 12 13 12 10 10 12 14
28 38 34 31 33 34 35 34 37 39 36 36 36 31 32 33 32 33 33 34 35 35 34 29 26 26 25 23 21 21 20 20 21 21 21 20 20 19 18 17 15 15 14 14 14 14 15 14 15
31 15 27 34 30 32 32 41 45 39 36 39 39 39 36 36 37 37 36 38 39 40 37 36 34 33 33 31 28 26 24 23 21 20 20 18 19 19 17 17 16 16 16 16 15 16 16 17 17
21 25 19 24 29 29 28 48 34 31 37 37 43 45 43 40 41 41 41 40 42 43 43 40 37 35 35 35 32 29 26 24 22 21 20 19 18 18 17 17 17 18 17 17 18 18 19 19 18
22 14 27 22 22 20 27 36 35 32 34 37 39 45 49 47 46 44 42 44 45 42 43 44 40 35 34 32 30 28 26 27 25 22 22 20 20 20 20 19 19 21 20 20 20 19 19 19 18
21 21 17 21 17 22 26 32 34 31 30 27 32 38 43 47 49 47 48 50 47 42 42 42 42 39 37 36 33 32 33 31 30 27 25 24 24 23 22 21 21 21 21 21 20 19 19 17 17
20 16 17 17 16 25 30 29 26 26 32 34 31 32 33 35 33 38 38 46 55 55 53 47 44 43 42 42 41 40 37 35 33 31 28 28 27 25 23 22 21 21 22 22 22 20 19 18 18
13 14 15 15 18 19 26 31 29 29 31 28 25 27 29 32 32 31 32 35 38 48 54 55 49 47 47 47 46 45 42 40 36 34 32 32 32 29 27 24 23 24 23 23 23 22 20 20 20
16 18 19 19 17 18 24 32 25 21 26 26 27 27 31 31 30 29 31 32 32 38 46 51 53 55 51 49 47 47 49 45 45 43 39 35 34 32 29 26 25 25 25 24 24 25 23 22 22
15 12 13 17 15 6 10 9 24 20 17 11 5 8 11 16 19 20 28 33 35 38 39 42 45 47 54 59 62 57 53 53 45 40 35 35 34 35 33 31 28 27 25 23 26 26 28 27 25
11 11 11 14 15 15 16 7 11 6 5 5 9 13 11 14 15 17 20 23 29 37 41 42 43 43 42 44 48 53 56 52 50 44 38 38 36 37 35 34 32 30 26 22 24 27 30 31 29
12 11 9 9 8 3 6 10 9 2 7 8 7 8 6 7 11 11 12 12 12 14 20 31 41 43 45 44 45 46 51 51 48 48 44 42 41 39 38 35 35 34 30 25 25 28 32 33 34
19 11 2 2 1 4 4 5 9 7 6 6 6 8 11 13 14 15 17 18 18 18 18 17 19 25 37 45 49 47 48 50 50 45 46 43 43 43 38 37 35 34 34 29 28 29 33 35 36
18 15 5 4 2 3 3 7 3 15 6 10 10 11 11 13 15 17 18 19 20 20 21 21 21 22 23 25 28 34 46 52 49 49 44 44 44 40 38 41 38 36 36 34 31 32 34 36 37
13 12 11 2 1 2 4 6 7 8 4 5 10 14 17 19 20 22 24 26 27 28 28 30 32 31 30 29 31 33 35 39 45 42 48 49 44 43 45 42 40 40 40 38 35 36 38 38 36
8 10 6 6 2 3 4 8 7 8 4 6 8 12 16 22 24 26 29 31 34 36 37 39 39 40 37 37 40 41 41 38 41 40 43 42 42 44 44 43 41 40 38 39 39 39 39 40 36
14 12 7 6 3 3 1 3 6 8 4 10 18 25 30 30 31 32 35 38 38 42 46 44 44 41 41 39 43 41 40 35 36 41 39 39 39 38 38 37 37 36 37 39 41 40 42 36 39
18 16 14 4 4 4 2 5 8 5 6 20 24 28 22 19 22 23 26 29 32 30 32 30 30 34 36 37 39 35 33 32 33 32 36 38 37 37 35 35 36 36 38 40 39 43 40 39 42

GFSSGP_700_spd_060.txt.gz
Wind_Speed
24 22 20 18 11 12 16 12 10 9 6 8 7 8 9 9 7 4 3 17 16 15 13 11 9 8 7 6 8 9 8 7 7 6 7 7 6 6 7 7 6 6 6 5 5 4 3 4 3
26 24 21 19 16 20 21 18 10 9 5 8 8 8 6 7 8 5 3 12 16 15 17 12 12 9 7 6 8 9 8 7 7 7 7 7 7 7 6 6 6 6 5 5 4 3 3 5 3
28 26 24 20 23 31 23 19 13 11 8 9 9 7 5 5 8 7 7 13 14 17 18 15 13 11 8 5 7 6 7 7 7 8 8 8 7 7 6 6 5 4 4 4 4 4 4 3 2
30 29 28 27 28 31 32 17 10 11 10 11 12 6 8 8 6 10 9 11 12 15 16 15 14 12 7 4 5 5 6 7 7 7 7 7 7 7 6 6 6 5 5 4 4 3 2 1 1
32 32 32 30 39 37 28 26 21 14 12 11 13 12 7 7 10 10 13 12 10 13 15 15 15 13 8 5 4 3 2 4 7 7 6 6 6 7 7 7 6 5 5 4 4 3 3 3 3
33 35 30 39 39 36 33 24 19 22 15 16 12 14 11 8 10 10 11 14 15 13 14 16 16 14 10 8 4 2 3 1 3 5 5 6 8 8 7 6 5 5 5 5 4 4 4 4 5
34 38 40 39 38 37 31 26 25 20 20 19 13 14 12 8 11 13 14 13 15 17 15 17 17 16 13 11 6 6 4 5 2 3 3 3 4 7 8 6 5 5 5 5 4 4 4 5 5
34 35 38 39 38 37 30 29 24 22 23 23 17 16 16 13 10 15 13 13 14 13 16 19 19 17 16 13 11 10 6 7 7 4 4 5 4 3 6 7 6 5 5 5 5 5 6 6 6
34 35 40 40 37 35 32 30 26 26 25 24 22 18 19 15 14 12 14 16 15 12 17 16 19 19 19 15 13 12 10 9 9 8 7 7 7 6 4 3 5 5 4 4 5 6 6 7 7
37 42 43 38 35 33 32 32 20 23 25 25 23 20 24 21 19 17 15 17 19 16 13 14 16 19 18 16 17 16 13 12 12 10 10 10 9 8 7 6 4 3 4 3 4 4 5 6 7
41 45 42 36 32 31 34 30 27 26 26 25 17 23 23 23 22 21 19 15 15 16 19 17 18 19 20 17 17 17 15 15 14 13 12 12 12 11 10 9 9 7 7 7 7 6 6 6 8
40 42 40 37 31 34 36 33 32 30 27 25 22 21 22 22 23 23 20 19 17 19 19 18 17 21 21 19 18 16 17 17 16 15 14 14 15 14 13 12 12 12 11 10 10 10 8 7 8
41 40 38 36 34 37 35 35 34 35 27 30 28 26 24 24 25 24 23 22 23 22 20 20 21 19 19 20 19 18 18 17 16 17 16 16 16 16 16 16 15 14 14 14 12 12 12 11 11
32 38 38 33 36 37 37 37 36 36 30 34 34 29 27 27 28 29 29 28 27 26 23 24 25 25 23 21 22 21 20 19 18 18 17 18 18 18 18 18 17 17 16 16 15 14 15 15 15
32 14 28 36 33 31 33 39 42 33 32 34 37 36 31 31 31 31 31 31 29 28 30 30 31 32 31 28 25 22 21 19 21 20 19 18 18 19 20 19 18 18 18 17 16 15 15 17 18
22 30 23 26 31 34 28 39 29 28 35 32 32 39 41 35 34 34 35 35 34 35 36 34 33 32 33 33 32 30 29 27 25 22 21 19 18 20 20 18 18 19 19 18 17 17 18 20 20
21 17 28 20 21 24 30 34 29 29 31 31 30 36 43 45 43 39 38 39 38 40 38 36 37 35 33 34 35 33 32 30 27 25 23 21 19 20 20 19 20 21 20 19 20 21 20 21 20
22 19 13 23 23 23 28 35 34 31 28 28 30 33 37 44 47 46 44 44 43 43 42 41 41 40 37 36 35 33 32 30 29 25 25 24 22 23 22 22 22 22 21 20 21 21 21 21 21
20 18 16 13 19 18 25 31 33 27 28 30 29 25 26 31 34 41 46 49 51 50 46 44 45 44 42 40 38 36 33 32 31 30 29 27 27 27 27 24 24 23 22 22 23 23 23 22 22
18 17 13 12 15 18 23 29 29 27 29 27 25 22 23 28 31 34 38 42 49 50 52 55 50 47 46 44 44 43 39 38 35 33 31 31 31 30 29 27 26 25 25 26 26 23 24 24 23
23 18 16 13 13 15 21 27 21 20 21 19 19 23 28 31 31 30 34 35 38 45 42 42 45 55 55 52 50 48 46 46 45 40 38 35 34 34 31 31 29 29 27 28 27 24 25 26 24
14 13 13 13 10 6 6 7 16 15 15 16 10 13 14 16 18 22 28 31 35 38 38 37 36 38 47 54 57 55 53 52 50 47 41 39 39 39 37 35 33 31 31 30 29 27 26 28 25
9 10 9 7 9 10 11 4 6 5 3 4 14 16 13 11 12 14 15 16 19 30 35 36 36 36 38 45 53 56 60 59 56 53 50 46 43 38 35 33 33 32 34 32 31 29 26 24 27
11 9 4 4 3 1 3 9 4 5 13 10 8 8 9 6 8 10 11 13 15 17 21 27 31 36 39 40 42 44 46 48 50 52 54 53 47 46 43 39 36 34 33 34 33 32 29 27 31
12 9 1 3 2 3 3 6 7 7 10 9 6 7 9 10 10 11 11 12 15 16 16 15 16 19 24 30 36 42 44 43 41 42 41 47 46 48 44 41 39 36 33 33 34 35 34 29 30
15 9 3 4 2 2 7 7 4 10 7 7 7 10 11 12 13 14 15 16 16 17 17 19 20 19 21 21 22 26 31 36 42 45 42 39 40 44 45 43 39 38 37 36 36 36 36 33 33
10 8 9 3 1 1 5 5 5 4 7 6 7 11 13 14 17 19 22 24 25 25 25 26 26 26 26 27 28 30 30 31 30 29 33 39 43 41 40 41 41 40 39 39 37 36 37 36 39
6 9 6 6 2 3 5 6 6 11 7 6 8 12 16 18 21 23 27 30 33 33 33 33 35 36 35 36 37 37 36 35 35 35 34 36 36 40 41 44 43 41 42 40 39 39 40 40 42
12 12 5 7 3 3 1 3 7 12 1 6 14 21 24 27 30 32 32 33 37 39 40 41 42 44 45 45 42 42 42 40 37 34 35 36 37 37 38 38 40 40 41 41 40 41 40 39 41
14 14 11 4 5 5 2 2 9 14 5 19 22 23 23 22 22 24 27 29 32 34 36 38 39 38 38 38 42 43 46 44 41 39 39 36 34 37 37 38 37 36 35 38 39 40 38 38 36

GFSSGP_700_spd_063.txt.gz
Wind_Speed
24 22 20 17 11 11 15 12 12 5 8 11 9 12 14 10 7 6 5 15 14 15 13 10 8 9 9 8 8 11 9 7 7 6 7 7 7 7 7 7 7 7 7 7 7 7 6 6 4
26 24 22 20 16 18 19 17 11 11 6 8 11 9 11 10 7 5 7 13 12 17 17 13 11 10 10 9 8 9 8 7 8 8 7 7 7 7 7 6 7 7 7 7 5 4 6 7 6
28 26 24 22 23 28 21 19 13 11 8 7 11 13 10 7 7 6 6 13 17 19 19 16 14 13 10 8 8 8 9 7 7 8 8 8 8 8 7 7 7 7 7 6 5 4 5 5 4
31 29 28 27 29 30 30 16 12 14 12 8 13 11 11 6 5 8 9 13 17 17 20 18 15 14 11 6 8 7 7 7 8 7 7 7 8 8 8 8 8 7 6 5 4 3 4 4 2
33 33 33 30 38 36 28 26 9 15 14 10 12 13 11 7 5 7 11 10 15 16 19 18 17 16 11 6 4 5 4 4 6 7 7 8 9 8 8 8 7 7 6 6 5 5 5 3 2
35 37 27 36 41 37 34 26 21 24 16 10 14 16 14 7 4 5 10 16 13 16 17 17 18 18 13 11 7 2 2 1 3 4 5 6 8 10 8 6 6 6 6 5 5 5 5 5 4
37 40 39 37 40 37 34 28 27 20 19 18 16 17 16 9 5 6 10 14 18 16 18 18 18 18 15 12 9 5 1 1 3 0 2 2 3 6 8 7 6 5 4 4 4 5 5 4 4
35 38 31 41 42 39 33 30 26 23 21 20 18 18 18 12 8 8 8 14 15 17 16 19 19 19 17 15 13 9 6 4 6 4 2 2 2 1 3 5 5 5 4 4 4 4 4 4 4
36 33 35 42 40 37 32 29 25 25 24 22 22 20 21 17 14 9 10 12 14 14 16 18 19 20 19 17 15 13 12 8 8 7 6 5 4 4 3 2 2 2 3 3 3 4 4 4 4
37 42 43 39 37 32 31 29 24 24 26 25 25 22 23 23 18 15 11 9 12 12 10 15 15 19 20 19 16 15 15 13 10 10 9 8 8 8 7 6 6 4 4 3 3 3 2 2 3
40 44 42 36 33 31 28 26 26 26 22 24 24 25 23 25 24 20 16 14 11 14 14 14 13 15 18 18 18 17 18 17 14 13 12 11 11 11 10 10 9 9 9 8 7 7 6 5 4
40 43 39 40 31 32 29 32 31 26 22 25 24 23 26 24 26 24 23 21 17 13 16 18 17 17 18 19 18 17 18 19 16 16 16 14 13 13 13 13 13 13 13 13 11 10 10 9 8
41 38 39 35 36 31 30 35 32 28 25 27 26 25 25 28 26 28 27 24 21 20 20 19 20 19 18 19 19 18 18 18 18 18 18 17 16 15 16 16 16 16 16 16 15 14 12 12 12
31 39 32 32 31 33 35 36 35 31 29 29 28 28 28 29 29 28 28 26 24 23 23 21 22 23 22 20 20 19 20 20 20 20 19 19 18 18 19 19 19 18 18 18 17 15 14 14 15
33 17 30 36 32 32 35 39 44 34 30 31 31 30 32 32 33 30 30 30 29 27 26 24 25 24 23 25 24 24 23 21 21 22 21 21 21 21 21 22 21 20 20 19 18 17 16 16 16
23 24 19 24 32 35 31 35 14 21 33 31 30 32 33 34 35 33 33 34 33 32 32 31 31 30 30 29 28 29 27 26 25 25 23 24 23 22 22 22 22 21 20 20 19 18 18 19 19
24 23 33 22 22 23 31 35 31 29 25 21 26 31 34 38 39 38 37 38 38 37 36 35 35 35 33 30 28 29 30 31 31 30 29 27 25 23 23 23 23 22 21 21 20 20 21 21 21
30 26 16 29 26 24 26 33 31 23 22 22 26 28 30 36 39 42 42 41 40 40 41 41 40 38 34 35 31 30 32 31 31 31 31 28 26 25 24 24 24 23 22 23 21 22 22 22 23
20 24 22 15 22 20 27 28 28 26 27 27 25 22 24 30 34 40 46 49 47 47 46 45 45 42 40 39 37 33 31 29 29 29 29 28 28 27 27 25 26 24 24 24 25 25 25 24 24
15 18 18 14 16 19 19 23 24 20 22 22 23 22 22 28 33 36 41 47 52 52 52 51 49 45 45 44 42 41 35 35 30 31 31 31 31 31 31 31 30 29 27 27 27 26 26 26 26
20 19 18 11 13 13 16 20 15 15 18 19 20 22 24 26 28 32 35 38 42 46 47 50 50 50 51 53 50 47 43 43 39 36 34 32 32 31 31 32 32 32 32 31 29 29 29 27 27
27 23 17 14 8 5 3 4 4 9 11 13 16 16 17 21 24 26 28 32 35 37 39 40 40 42 44 44 49 54 53 47 44 43 41 39 37 36 35 35 35 35 34 34 33 31 31 30 29
16 22 11 9 7 6 7 3 3 7 5 8 14 14 12 11 11 13 14 17 21 28 34 36 35 34 37 38 41 42 49 53 52 51 48 46 45 43 39 38 35 36 40 38 36 34 34 33 32
16 14 10 7 5 3 7 9 3 9 12 11 10 10 10 10 7 8 10 12 14 16 19 24 29 34 37 38 36 34 34 38 43 48 52 53 54 53 52 51 46 43 38 37 36 36 36 35 35
14 15 3 1 1 3 6 9 3 10 12 9 9 9 9 8 7 7 9 11 12 13 13 15 17 20 27 34 38 38 38 38 38 38 39 39 39 39 41 44 44 43 43 41 39 36 36 37 37
16 11 2 4 3 2 8 6 6 9 11 10 9 7 7 8 10 12 15 16 15 15 16 17 17 18 20 22 27 32 35 36 38 38 40 41 41 38 37 38 42 44 44 43 41 38 35 35 37
14 8 8 5 2 0 5 4 4 9 13 9 5 7 10 12 14 15 16 18 20 21 23 24 24 25 26 25 25 28 30 31 31 31 32 33 35 39 44 42 39 40 39 43 43 40 38 38 38
7 11 6 6 3 3 3 4 8 16 12 7 5 8 12 15 18 21 24 27 29 31 31 32 32 31 32 33 34 34 35 35 36 36 34 33 32 31 31 34 40 45 42 41 40 43 41 39 39
12 11 5 5 3 3 1 2 12 17 10 6 3 12 17 19 21 22 25 28 28 27 28 29 32 35 37 39 39 39 43 43 41 40 40 38 38 35 33 32 37 41 44 43 41 41 41 40 40
11 10 10 4 5 4 1 1 13 18 13 9 15 21 20 22 17 19 22 24 25 28 28 27 28 29 31 34 36 37 37 39 41 44 44 44 40 37 35 35 40 41 42 41 40 39 39 41 43

GFSSGP_700_spd_066.txt.gz
Wind_Speed
22 21 18 15 8 10 16 10 11 7 9 14 11 13 13 14 12 9 9 18 16 14 14 11 8 8 10 9 10 10 8 8 8 6 7 7 7 7 7 7 8 8 7 6 5 5 4 4 3
25 23 20 19 15 17 19 15 12 9 11 13 13 14 15 9 13 10 10 14 21 18 18 14 9 9 9 9 8 9 8 7 6 6 6 6 6 6 5 6 6 6 5 5 5 6 5 6 5
28 25 21 15 21 27 19 15 14 13 11 10 13 12 13 12 11 10 9 16 17 20 20 17 13 11 11 10 9 8 7 6 6 6 5 5 5 5 6 6 5 5 4 4 3 4 6 4 3
31 28 27 23 25 25 22 10 17 16 14 11 15 9 12 11 11 10 10 13 20 20 22 20 17 14 12 10 9 8 6 5 5 5 5 5 6 6 6 5 6 5 5 4 4 4 5 4 3
34 29 26 27 32 25 24 19 10 16 17 14 16 10 14 11 10 13 10 11 17 18 21 20 19 16 14 11 3 6 5 3 4 5 6 8 7 5 5 5 5 6 6 5 5 5 4 3 2
37 33 27 33 33 29 29 27 26 17 19 13 13 17 14 13 12 13 15 11 14 16 18 20 20 19 16 14 10 4 2 1 2 4 4 5 6 8 7 6 5 5 5 5 5 5 4 3 3
41 35 37 30 32 28 31 30 28 24 22 17 15 14 16 14 11 11 13 16 13 16 18 20 20 21 18 16 14 10 5 3 4 3 2 1 2 4 6 6 6 5 5 4 4 4 3 2 2
40 27 31 33 33 33 25 32 28 28 22 23 18 13 13 18 13 12 13 16 18 15 18 21 21 22 21 19 17 15 9 5 5 6 3 1 2 1 2 4 5 4 5 4 4 3 3 2 2
40 27 34 35 30 28 27 28 28 28 25 24 24 22 21 20 16 14 13 14 18 17 15 17 21 22 22 21 19 17 15 11 8 8 8 6 5 4 4 3 3 2 2 3 3 3 3 2 3
40 33 33 27 28 28 32 27 26 26 25 26 26 24 25 25 20 17 13 13 14 16 16 18 17 21 23 24 22 20 18 16 14 12 11 10 8 8 8 7 7 6 5 4 4 4 5 5 6
42 35 28 35 34 29 26 26 26 22 24 24 25 27 27 29 26 21 19 15 15 17 17 13 17 19 22 22 22 20 19 18 17 16 14 14 13 12 11 11 11 10 10 10 9 9 9 9 8
38 41 29 31 31 29 30 28 25 26 18 23 25 27 28 31 31 28 24 21 18 17 19 19 18 17 18 21 21 20 19 20 20 20 18 17 17 15 14 14 14 14 14 14 14 13 13 12 12
41 21 39 28 28 26 31 30 26 29 26 24 26 26 28 31 32 32 30 27 25 23 21 21 21 20 19 20 21 20 20 20 22 22 21 20 20 19 18 17 17 17 17 18 17 17 16 15 15
28 30 25 36 26 31 27 29 31 31 27 29 27 27 28 30 32 32 31 30 29 26 26 23 23 25 23 21 21 22 21 21 22 23 23 23 23 22 21 21 21 21 21 20 20 19 18 18 17
23 16 32 21 34 32 29 37 43 35 27 29 31 28 29 31 30 31 31 32 31 29 29 28 25 24 26 25 23 22 22 22 22 24 25 25 25 25 24 25 24 24 24 23 23 22 21 20 19
22 19 15 33 34 30 31 39 23 32 33 33 31 30 32 33 35 34 33 34 34 33 32 32 28 25 26 26 26 26 28 27 26 24 26 26 25 26 26 27 27 27 26 25 24 23 22 21 21
25 21 28 14 28 30 34 25 22 17 13 26 35 34 33 35 38 38 38 39 38 37 36 35 33 31 30 32 32 31 32 32 33 32 30 29 27 27 28 29 29 29 28 27 26 24 24 24 23
29 32 20 24 23 25 27 29 26 16 30 29 23 22 28 34 36 39 42 42 41 41 41 39 39 38 36 37 37 37 36 33 34 34 35 35 34 33 32 31 30 30 29 28 27 26 25 25 25
20 23 15 19 24 22 23 21 26 26 25 24 22 22 25 30 33 39 42 43 44 46 46 46 45 43 43 42 41 39 37 34 33 31 32 33 35 35 35 33 32 31 28 28 27 28 28 28 27
15 19 19 15 22 19 13 19 25 23 22 23 25 27 29 30 33 36 40 42 45 47 48 48 47 45 45 45 42 41 38 38 36 34 31 32 32 32 33 34 34 33 30 30 31 31 30 31 30
18 18 19 11 16 20 14 14 15 19 20 22 23 23 25 27 29 33 36 41 44 48 50 51 50 50 50 48 47 46 45 45 43 40 35 33 31 31 32 35 34 35 35 35 35 34 33 33 31
24 20 17 16 13 6 11 4 10 14 17 19 19 20 21 23 25 28 31 33 36 38 40 43 46 49 50 49 52 53 52 50 46 45 43 39 36 33 34 35 34 35 36 36 38 36 36 37 35
16 23 20 17 11 5 8 5 7 10 12 17 18 17 16 15 17 20 23 24 25 27 31 35 37 38 40 39 41 42 44 44 40 43 47 45 43 40 41 41 39 40 39 39 39 39 40 41 40
20 24 18 10 7 4 8 8 9 12 13 14 15 16 15 13 12 12 13 14 15 16 17 21 26 32 37 38 38 37 38 37 37 36 40 45 49 50 47 47 46 45 45 42 42 40 41 44 44
22 25 5 3 4 1 9 8 2 16 16 16 16 15 13 11 11 11 11 12 13 14 14 15 16 18 19 24 33 38 40 40 39 34 34 35 39 41 41 42 44 47 48 50 50 48 44 42 43
22 9 5 5 6 5 7 6 6 17 17 17 15 12 11 11 12 13 14 15 16 16 17 18 18 19 20 21 22 25 30 36 41 42 43 42 42 42 41 40 40 41 45 48 49 49 47 44 45
17 6 6 6 5 2 6 5 6 16 20 15 12 11 11 12 13 15 16 17 18 20 21 22 23 24 25 26 27 28 28 29 31 34 38 41 42 42 41 42 41 42 42 44 44 45 47 46 47
13 13 4 4 5 4 6 5 7 23 19 13 8 6 7 10 13 15 18 20 23 26 27 28 30 32 33 33 33 33 33 32 32 33 34 34 36 36 36 37 38 42 44 44 43 42 43 45 48
11 12 5 6 2 2 4 3 12 23 20 14 8 3 6 10 13 16 19 22 24 26 28 29 28 28 29 31 34 37 38 39 39 40 40 40 39 39 39 39 39 38 37 39 42 45 44 45 44
13 11 11 4 4 3 2 2 18 20 20 13 4 9 12 16 18 20 19 20 21 22 23 24 24 24 22 23 26 29 32 35 37 38 41 42 42 42 41 40 41 43 42 39 40 45 45 43 44

GFSSGP_700_spd_069.txt.gz
Wind_Speed
22 19 18 14 9 11 18 18 11 7 8 9 14 10 8 12 10 12 12 17 12 15 12 10 7 9 10 10 10 9 8 7 6 5 5 5 5 6 7 7 7 7 6 6 5 5 4 4 3
24 20 19 12 16 21 20 17 12 9 8 9 13 12 13 9 12 14 10 17 20 17 16 13 9 9 10 9 8 8 7 7 5 5 5 5 6 7 7 7 7 6 6 5 5 5 5 5 5
26 23 14 14 22 27 19 15 17 11 12 9 6 13 9 11 17 15 12 11 20 20 19 15 12 10 10 8 7 7 6 5 5 4 5 5 6 6 6 7 6 5 4 5 5 6 4 3 3
30 26 25 24 24 26 23 14 11 15 13 13 10 6 13 15 16 13 13 13 18 22 21 18 15 12 11 9 6 5 5 4 5 5 5 6 5 6 6 6 6 5 5 5 5 4 2 2 2
33 22 26 26 29 24 21 17 11 14 12 9 15 7 7 13 15 13 13 12 20 22 21 21 19 16 14 13 7 6 5 5 4 5 6 6 7 5 5 5 5 5 6 6 5 3 3 2 2
35 29 26 34 30 30 26 23 14 14 14 11 14 8 9 13 14 15 11 11 17 20 20 23 21 19 17 15 11 6 4 3 2 3 3 5 6 6 6 5 5 5 5 4 4 3 3 3 3
37 31 37 32 32 29 29 24 24 19 16 14 10 9 10 16 15 16 14 12 13 17 19 21 21 21 19 17 15 10 6 3 2 2 2 1 1 3 5 6 5 5 5 5 5 4 4 4 3
34 28 34 34 34 31 26 27 24 21 20 15 13 11 10 18 17 17 15 16 14 14 17 20 22 23 22 19 18 15 11 6 4 5 5 3 2 2 1 3 4 4 5 5 5 5 4 4 3
26 31 37 38 35 30 22 24 23 20 24 22 18 14 17 19 18 18 17 17 19 16 15 19 21 23 24 22 20 19 16 12 9 8 10 8 6 4 4 4 3 3 4 4 3 3 4 3 3
33 32 37 29 30 30 24 23 19 20 24 21 21 22 23 20 21 20 18 17 19 17 15 13 15 21 23 24 22 21 19 18 15 13 12 12 11 9 8 8 7 6 6 5 5 5 6 6 6
39 32 28 22 28 25 30 34 18 21 19 24 23 20 29 25 23 22 20 20 19 20 19 17 17 18 21 22 23 22 21 20 19 17 16 15 14 13 12 11 11 11 11 10 11 11 10 10 10
28 41 22 24 27 29 31 25 21 21 16 18 19 25 30 27 27 26 23 21 21 22 22 20 17 17 18 20 22 22 22 21 21 20 20 19 18 17 17 15 14 14 15 15 15 15 15 14 14
29 21 26 22 16 28 30 28 24 19 21 24 31 28 26 27 30 31 28 25 24 24 24 24 23 20 19 19 21 23 23 22 22 23 23 22 22 20 20 19 18 17 17 18 18 18 18 18 17
23 27 15 24 16 21 25 23 23 25 20 26 28 27 26 30 31 35 35 31 28 26 24 24 25 25 23 22 21 21 22 23 23 23 24 25 24 25 23 23 22 21 21 21 21 22 21 21 20
23 16 28 17 23 21 21 25 35 28 28 27 27 27 28 31 33 35 36 35 33 30 29 27 27 26 25 25 25 24 24 25 24 23 23 26 26 27 26 26 26 24 24 24 25 25 25 24 24
27 23 21 30 18 25 26 36 23 27 30 29 24 23 30 31 31 34 35 35 34 35 34 32 30 30 28 25 26 27 26 25 25 26 25 25 26 27 28 28 29 28 27 27 28 28 28 27 26
27 21 27 18 29 21 28 31 23 23 24 30 29 26 27 32 32 35 35 35 38 38 36 35 33 32 31 28 28 29 28 28 28 28 30 30 29 28 29 28 29 30 30 30 31 30 30 29 28
27 32 25 28 17 30 28 29 13 19 22 16 19 22 28 32 32 35 36 39 39 38 38 37 37 36 35 34 33 33 34 34 34 32 32 34 35 34 33 33 32 32 34 33 33 31 30 30 30
23 22 27 18 20 18 32 25 25 19 22 22 27 22 20 28 33 38 40 42 43 42 42 41 41 40 40 40 38 38 38 37 38 35 33 32 35 37 36 36 36 37 37 35 33 33 32 32 32
18 24 27 16 20 21 17 25 22 21 26 26 24 22 22 23 28 35 40 42 43 43 44 45 45 44 45 44 46 43 42 42 42 40 37 36 35 37 38 37 36 36 36 37 34 33 32 33 33
24 20 23 16 18 15 10 19 22 22 21 25 29 27 31 33 32 32 34 39 40 42 43 45 46 47 47 47 47 49 46 48 45 43 40 37 37 37 37 37 35 35 36 36 35 34 33 34 35
22 21 18 19 18 12 18 3 17 20 23 24 26 27 29 28 30 32 33 35 37 40 42 43 44 45 46 47 48 49 50 48 48 47 46 44 42 41 40 37 37 37 37 37 35 37 36 37 39
15 22 17 17 17 9 13 7 11 16 16 20 23 24 23 23 25 26 27 30 30 31 33 34 35 37 38 40 43 46 49 49 45 44 44 44 45 44 43 41 41 42 41 41 40 39 40 39 40
23 18 16 11 9 6 13 14 13 16 16 17 18 19 19 19 18 18 18 20 20 21 22 23 26 31 35 36 37 38 38 39 39 39 37 38 40 42 45 46 45 46 47 46 45 45 44 42 43
29 27 7 5 4 4 12 10 2 17 16 15 14 18 18 17 15 14 14 14 15 15 16 17 18 19 20 23 26 30 35 38 38 37 35 36 37 38 39 42 50 51 52 53 52 50 50 47 47
34 25 3 5 9 9 8 9 7 15 19 20 18 17 16 15 14 14 15 15 15 16 16 16 17 18 19 20 20 21 23 26 31 35 38 40 39 39 39 36 38 42 46 49 51 51 51 50 49
16 11 7 2 4 6 11 8 9 16 20 18 17 16 15 14 13 14 15 16 18 19 20 21 21 22 23 24 25 26 27 27 28 30 32 34 36 38 39 38 40 42 44 46 46 46 47 48 48
8 9 4 3 5 5 8 7 7 21 21 20 17 15 13 12 12 13 15 17 20 22 24 25 26 27 29 31 31 32 32 32 33 32 33 33 34 35 34 35 36 36 38 41 45 47 47 47 46
8 7 6 2 2 3 5 4 6 15 20 18 17 13 8 7 9 11 14 17 20 22 24 27 29 30 31 30 30 31 33 35 36 37 38 38 39 39 40 40 40 40 40 40 42 43 46 47 48
10 6 8 4 3 2 3 3 12 19 21 20 14 9 7 8 11 15 17 18 19 21 22 23 25 24 23 24 24 23 24 27 30 33 37 39 40 42 42 44 45 45 45 44 44 44 43 42 43

GFSSGP_700_spd_072.txt.gz
Wind_Speed
25 15 14 16 9 10 16 16 8 8 8 12 12 14 11 9 8 10 10 12 9 13 11 11 9 10 10 9 8 8 7 7 6 6 6 6 6 6 7 6 7 7 7 7 7 8 7 5 4
35 17 18 13 13 19 18 15 17 10 10 16 17 15 14 5 13 8 8 14 15 15 15 12 10 11 11 9 8 8 7 7 7 6 6 7 6 7 7 7 7 8 8 9 7 8 7 7 6
44 19 20 12 19 24 20 15 15 10 13 14 5 10 7 8 12 15 9 13 18 16 17 15 12 11 10 8 8 8 7 6 7 6 6 6 7 7 8 8 8 8 9 10 7 6 5 5 4
28 30 22 21 21 26 22 14 17 11 17 14 13 9 15 15 15 19 13 12 15 20 18 17 14 12 11 7 6 7 8 6 6 5 5 5 5 7 7 8 8 9 9 8 6 5 4 4 4
36 38 34 27 24 22 20 20 12 14 8 5 13 6 9 15 14 16 15 16 15 19 22 20 18 15 13 10 7 5 6 7 7 6 7 7 8 6 5 6 7 8 7 7 7 6 6 6 5
36 37 29 29 30 24 22 18 13 16 11 13 13 11 8 12 17 15 15 15 21 20 23 23 20 18 16 14 9 6 6 5 5 5 4 5 7 8 8 7 7 6 6 6 6 6 6 6 5
39 38 37 35 29 25 25 20 15 14 15 14 11 11 11 15 14 17 14 13 16 20 21 23 22 20 18 16 12 9 5 4 2 3 3 4 4 5 7 7 7 6 7 6 7 6 6 5 5
42 31 31 33 32 30 26 22 24 21 17 10 13 15 13 13 16 17 16 13 14 15 19 22 23 22 21 19 16 14 11 6 3 0 2 2 3 2 3 5 6 6 6 5 5 5 5 5 6
34 28 32 35 34 29 20 21 24 25 20 18 18 17 10 11 17 17 16 16 14 14 16 19 21 22 22 21 20 17 15 12 7 6 5 6 4 3 2 3 3 3 4 5 5 5 5 5 5
32 37 45 36 28 28 28 20 18 22 27 27 16 21 18 17 18 17 17 18 13 15 16 13 18 20 23 23 22 21 20 16 13 10 9 9 9 8 7 6 6 6 6 6 6 6 6 7 7
33 41 45 38 24 27 28 22 22 20 19 28 20 23 22 22 21 22 22 22 17 17 18 20 16 16 19 21 22 22 21 20 18 15 15 14 12 12 12 11 10 10 11 11 11 11 11 10 10
26 38 27 22 25 23 26 31 33 22 16 13 22 21 26 26 25 24 25 22 21 20 20 20 21 21 19 17 20 22 23 21 21 20 18 17 16 15 15 15 15 14 13 13 14 14 15 15 15
31 25 20 24 16 26 24 31 30 38 16 19 24 27 27 28 26 26 27 24 24 24 24 23 23 21 18 19 19 21 22 21 21 21 20 20 20 20 20 18 18 18 18 16 17 17 18 18 18
20 24 13 25 17 19 24 27 32 29 22 22 28 28 31 28 26 29 29 27 26 26 26 25 24 23 22 20 18 19 20 21 22 22 21 21 22 23 23 22 21 21 20 21 20 22 22 21 22
32 20 24 21 19 14 23 29 34 30 24 22 29 31 29 28 29 28 29 32 28 27 27 24 25 23 25 24 22 20 21 21 21 22 22 22 23 24 25 25 24 24 23 23 23 24 25 25 25
23 23 25 25 23 18 21 28 28 25 30 33 26 27 29 27 30 29 30 31 34 32 31 29 27 25 24 25 26 24 25 24 24 23 23 23 23 24 25 26 25 25 25 25 26 27 27 28 28
29 22 26 14 26 23 29 41 33 10 20 29 29 27 20 27 29 28 29 31 33 35 37 35 32 29 27 28 29 27 26 26 27 27 25 25 24 26 28 28 27 26 26 26 26 27 29 29 30
36 32 26 33 23 31 33 32 10 34 24 26 26 29 28 24 28 28 30 33 35 37 35 34 33 32 30 31 32 32 30 29 30 28 28 29 29 28 29 31 32 33 33 30 29 29 30 31 31
18 25 22 16 21 23 32 29 28 20 33 26 24 22 21 30 32 31 31 34 36 39 38 37 37 36 37 35 35 34 34 32 32 32 33 34 34 32 30 30 32 34 37 36 35 34 33 31 32
28 20 21 18 25 22 20 31 31 26 30 30 23 24 22 22 21 25 34 37 38 40 40 39 39 39 39 39 40 37 37 36 37 37 37 37 37 37 36 35 33 33 36 38 36 36 35 32 31
23 21 21 21 20 17 17 20 26 35 26 29 31 31 32 32 32 31 35 38 39 39 40 40 41 42 42 41 41 44 43 43 41 42 41 40 40 40 39 38 37 35 36 36 37 35 36 34 32
30 25 14 19 23 14 24 6 27 32 33 31 29 30 29 34 33 35 33 33 34 35 36 37 38 39 41 43 44 46 47 47 45 43 44 44 43 42 43 44 41 40 40 39 38 39 37 39 36
27 26 17 17 22 11 15 8 12 18 29 31 27 29 33 34 33 32 31 32 32 33 34 34 35 36 36 37 38 40 44 45 46 42 39 38 39 41 42 44 45 43 44 43 42 41 42 42 42
26 26 15 19 16 5 17 19 15 25 29 27 24 30 27 26 27 25 25 26 26 26 27 27 28 28 30 31 32 35 36 38 40 41 38 34 35 36 36 35 38 44 48 48 45 44 44 46 44
21 20 5 3 3 4 20 19 15 18 15 21 26 24 23 21 21 19 18 19 19 19 20 20 21 21 22 24 26 28 30 33 36 38 39 37 36 35 35 35 34 36 39 46 50 49 49 48 50
25 17 3 4 4 4 10 9 9 19 19 19 18 21 17 19 18 17 17 17 16 17 17 17 18 19 19 19 20 21 22 23 25 27 30 32 34 35 37 38 37 36 37 37 39 42 46 49 48
25 25 21 4 5 7 10 8 13 22 24 24 21 16 19 18 18 17 17 17 17 17 17 18 19 20 21 22 21 22 22 23 24 24 26 28 29 32 33 33 32 32 33 35 39 42 44 45 45
16 25 11 3 2 3 8 14 11 28 28 26 23 20 18 17 16 15 15 16 17 18 19 20 22 23 24 25 26 27 28 28 29 30 30 31 31 32 33 34 35 35 35 35 37 37 39 42 43
10 9 6 8 3 1 3 2 7 14 25 24 21 21 19 17 15 14 14 14 15 18 21 22 24 25 27 29 29 31 31 31 31 30 31 32 33 33 35 36 38 38 39 40 40 41 42 43 43
9 7 6 2 2 1 2 2 3 11 18 20 22 18 15 13 10 10 11 13 15 17 20 22 24 24 24 26 25 26 27 28 26 27 27 28 30 31 33 35 37 38 39 41 42 43 45 47 47

GFSSGP_700_spd_075.txt.gz
Wind_Speed
35 19 17 16 11 9 18 18 10 6 13 18 18 14 12 10 8 9 11 14 16 14 13 12 12 12 10 8 6 6 6 6 6 7 7 7 7 7 8 8 9 8 7 6 8 8 7 6 5
28 33 20 15 12 15 18 22 11 8 13 14 16 16 12 6 8 7 9 16 16 16 15 14 13 13 11 10 8 7 6 6 7 7 7 7 8 8 9 9 9 8 8 7 7 7 8 7 6
33 41 24 15 17 22 16 21 6 12 15 13 15 16 13 13 13 8 11 16 17 18 18 16 14 14 12 9 9 10 7 6 7 7 7 7 8 9 9 10 9 9 9 8 7 7 7 6 5
34 35 39 20 18 26 19 18 11 20 17 16 14 16 15 16 16 11 13 14 18 19 20 18 16 15 12 8 7 7 11 8 7 7 7 7 7 7 8 8 8 9 9 10 10 8 7 6 5
34 34 32 41 29 28 28 20 2 15 16 14 14 11 13 14 13 16 18 16 17 21 22 20 18 16 13 8 6 5 7 10 9 7 7 8 8 8 7 7 8 9 9 10 11 10 8 7 7
37 35 34 45 36 27 34 19 12 12 10 14 20 11 13 14 16 16 20 19 16 21 23 22 20 18 16 11 7 5 4 6 10 10 8 7 8 8 9 9 9 9 8 9 8 8 7 7 6
37 40 39 35 37 33 29 16 10 18 14 15 17 15 14 12 13 17 15 18 20 20 24 24 23 20 18 15 10 8 5 4 5 8 8 7 7 7 8 9 9 8 8 9 8 8 8 7 7
38 36 39 30 31 34 33 20 14 17 15 18 18 13 15 13 14 17 17 16 18 20 22 25 23 22 20 18 16 12 10 6 1 3 6 7 7 7 6 6 8 8 8 8 8 7 6 7 7
35 29 31 35 36 35 31 18 12 22 20 17 14 17 10 13 15 17 18 17 18 17 20 23 24 23 22 21 19 16 13 10 6 4 1 2 3 5 5 5 4 5 6 8 8 8 8 8 8
38 42 43 37 38 34 27 26 29 21 29 22 15 19 16 14 16 17 15 16 15 15 17 20 21 22 22 22 21 20 17 14 10 10 9 5 5 5 5 5 6 7 7 7 7 8 8 8 8
36 45 42 43 37 29 24 20 16 23 18 31 22 13 18 18 16 19 16 18 16 13 16 16 19 21 21 20 21 20 20 18 17 15 13 12 10 10 10 9 8 8 8 9 10 11 12 12 12
34 37 41 41 28 25 20 15 15 21 12 30 26 15 16 23 20 17 20 19 15 16 16 17 20 17 16 17 18 20 20 20 20 19 18 17 14 13 13 13 12 12 12 12 12 12 14 15 15
40 33 34 27 28 37 23 23 26 24 15 20 20 18 19 22 25 21 19 20 19 19 18 18 18 20 21 22 20 18 18 19 20 20 20 20 17 16 17 17 16 16 16 16 16 16 15 16 17
32 31 15 25 28 42 25 24 27 30 22 19 17 13 21 24 26 28 24 22 21 22 21 21 19 19 18 18 17 18 20 20 20 20 21 21 19 18 18 19 20 19 20 19 19 20 19 19 20
20 19 24 17 21 32 32 29 34 34 33 28 26 17 21 23 27 26 26 28 28 26 24 23 22 21 20 18 19 20 18 18 17 18 19 20 20 20 21 21 21 22 22 23 22 22 23 22 22
22 23 19 24 18 23 33 36 34 31 33 34 33 32 27 28 29 29 27 26 32 31 28 26 23 22 22 22 21 21 21 21 20 21 21 20 19 19 20 19 19 20 22 24 24 24 24 25 24
26 19 31 24 25 27 31 35 31 26 31 34 30 33 35 34 31 29 27 26 28 31 33 32 31 28 25 25 25 23 22 22 22 22 22 21 21 21 21 21 22 24 25 25 25 25 26 26 27
41 36 31 25 35 29 31 35 24 32 23 37 36 32 29 26 29 28 26 27 27 31 33 36 36 33 30 28 28 28 27 27 27 24 24 25 25 24 25 25 25 26 27 28 28 29 31 31 32
22 32 17 29 13 26 28 26 28 27 39 33 24 24 29 28 25 24 26 27 30 31 32 33 36 34 35 32 31 31 31 30 30 28 27 27 27 28 29 29 29 29 29 28 29 30 31 31 32
19 23 28 11 17 24 23 23 19 30 33 42 39 30 26 27 30 31 33 33 32 33 34 37 34 33 34 35 35 34 33 34 34 33 32 32 32 32 33 32 32 31 33 33 31 31 30 31 33
26 21 19 17 14 25 23 26 25 26 31 34 36 29 29 29 32 36 37 36 37 37 36 36 35 37 37 38 39 39 37 37 37 36 36 35 35 36 36 36 37 36 35 35 35 34 34 35 34
26 25 16 12 18 19 20 7 25 29 31 35 34 34 33 31 32 34 35 34 31 33 36 36 36 36 38 39 41 42 41 41 39 38 39 39 40 41 40 39 39 40 41 41 39 38 37 38 37
20 17 15 18 21 14 19 13 29 12 34 38 37 36 32 39 43 40 38 36 33 32 33 34 34 34 35 37 39 40 40 39 39 39 39 39 41 42 41 43 44 45 44 43 41 41 40 43 43
22 25 14 7 18 5 21 26 13 29 26 32 35 36 35 35 38 38 38 36 33 33 34 33 32 32 32 32 33 35 37 36 37 37 37 34 34 33 35 36 36 37 38 37 38 40 43 45 46
26 18 4 4 6 5 22 21 27 18 20 22 32 37 36 36 35 32 30 29 28 28 27 27 26 25 25 26 27 29 31 33 35 36 37 36 34 33 33 34 34 32 32 32 34 35 36 38 42
20 21 6 4 4 4 12 12 15 25 21 21 26 30 30 29 27 24 23 22 22 21 20 21 20 20 20 21 23 23 23 23 24 26 28 30 31 32 31 31 31 31 32 33 35 37 37 37 37
20 18 20 2 1 4 9 8 11 16 19 21 23 23 24 23 21 20 19 18 17 18 19 20 20 20 21 22 23 23 23 23 24 24 25 26 26 26 26 27 28 30 31 31 32 34 35 37 39
15 23 10 8 1 4 6 9 13 24 25 25 25 19 21 21 20 18 18 17 18 19 20 21 21 22 24 24 25 26 26 26 26 27 28 29 29 30 30 30 30 30 32 33 35 35 36 38 39
21 22 15 10 6 3 2 6 19 23 28 31 25 22 20 20 18 17 17 16 17 18 18 20 21 23 25 25 26 28 28 29 30 31 32 32 32 32 31 31 31 32 34 35 36 36 39 40 41
14 18 20 8 7 6 5 2 7 18 27 29 25 24 22 18 16 16 16 15 15 16 17 19 21 24 25 25 27 28 28 29 29 29 28 29 29 29 28 27 28 29 28 29 31 32 35 35 34

GFSSGP_700_spd_078.txt.gz
Wind_Speed
25 24 18 17 13 12 19 14 14 14 12 16 16 18 14 16 24 17 18 22 20 19 14 14 13 12 10 8 6 6 6 5 5 5 6 6 7 7 8 8 7 6 5 6 7 6 5 5 3
30 30 22 16 15 17 23 19 13 9 13 18 16 17 16 14 12 14 18 21 20 18 15 15 15 14 12 11 9 7 6 6 6 6 6 7 7 8 9 8 8 8 7 6 7 7 7 6 5
34 32 31 27 21 25 27 24 13 9 10 14 19 15 17 15 14 11 17 20 20 18 18 17 17 16 13 10 11 11 7 6 6 6 6 6 7 7 8 8 9 10 9 7 6 6 6 5 6
33 30 33 35 29 34 32 23 15 14 12 13 15 22 19 18 16 15 16 20 22 20 20 19 18 17 14 11 8 9 13 10 8 7 7 7 6 7 7 8 10 10 10 9 8 7 7 7 8
35 34 33 35 42 38 35 24 13 12 14 19 17 20 21 21 21 17 17 18 20 23 23 22 20 19 16 12 9 7 8 12 12 9 8 8 8 9 9 9 9 9 9 9 10 10 9 10 10
35 39 26 39 46 46 35 28 16 11 12 15 15 17 20 20 20 17 20 18 18 23 24 24 22 21 18 13 10 6 4 7 10 13 11 9 9 10 10 10 10 10 11 10 10 10 11 11 10
37 40 35 38 46 44 37 31 19 11 13 13 17 20 21 20 22 18 18 22 19 24 26 26 24 23 21 16 11 8 4 3 6 9 12 12 11 10 10 10 10 11 10 10 10 11 10 10 10
36 38 38 34 45 46 39 39 22 10 12 15 18 25 23 23 20 20 18 21 22 22 28 28 27 24 22 19 14 11 7 5 3 3 7 11 11 11 10 10 9 10 10 11 11 10 10 10 9
37 36 40 45 38 42 36 43 22 17 18 10 22 20 20 20 20 22 23 22 25 25 27 30 29 26 23 20 18 14 11 8 7 5 2 2 7 7 9 8 7 8 8 7 8 8 9 10 11
35 39 43 43 40 36 27 52 34 22 17 12 16 19 20 19 18 19 20 19 21 20 23 28 28 26 23 21 18 16 14 12 12 11 8 5 4 2 2 4 4 5 6 6 6 7 8 9 9
37 43 42 40 36 29 25 44 39 26 22 7 18 22 22 20 18 21 19 17 16 17 18 22 25 24 21 20 21 20 19 18 16 15 12 10 9 8 8 8 8 8 7 6 6 8 9 10 11
38 42 37 31 26 27 27 33 41 28 24 9 13 22 20 19 18 17 22 18 17 15 13 14 17 20 20 20 20 20 20 20 20 19 17 14 13 12 12 12 13 12 11 11 11 11 11 12 13
40 35 37 34 25 35 17 29 24 28 20 4 13 22 22 17 18 19 19 20 18 17 15 14 14 15 16 16 17 18 20 20 20 19 19 18 17 16 16 16 15 15 15 15 16 16 16 16 16
32 31 25 24 31 36 33 15 18 21 21 8 12 22 26 20 18 20 18 18 20 20 18 17 16 15 14 15 16 17 16 16 16 17 18 18 18 17 18 18 17 16 16 18 19 19 19 19 19
8 30 17 24 29 28 36 38 26 25 21 20 13 19 22 24 22 20 19 20 19 20 21 21 20 18 16 16 15 14 14 14 15 16 17 17 16 17 18 18 17 17 17 18 19 19 20 21 21
29 15 30 22 20 21 26 46 39 28 29 30 23 20 20 18 19 21 22 22 24 25 25 24 23 21 21 20 18 17 16 16 17 18 18 18 18 20 19 19 18 18 18 18 18 19 20 21 22
28 27 27 31 26 25 32 41 45 33 34 33 25 27 26 25 27 28 27 25 25 27 27 27 26 26 24 22 22 21 19 18 18 18 18 18 19 19 20 18 18 19 20 21 23 24 25 25 26
32 27 28 28 31 28 31 35 25 36 33 37 38 36 34 33 32 30 28 28 28 29 31 31 30 30 30 29 28 26 24 23 22 20 21 21 21 22 22 22 22 24 25 24 25 25 25 26 28
25 31 19 29 25 30 30 29 34 27 37 40 33 38 33 35 32 34 36 34 31 31 32 32 33 33 32 32 31 29 28 28 27 25 24 25 24 24 24 24 26 28 27 26 26 27 28 27 27
27 28 28 10 15 30 30 29 22 23 36 36 44 32 38 33 33 33 32 33 33 31 31 31 33 36 36 37 37 36 34 32 31 30 30 29 29 29 29 29 30 31 30 29 30 30 30 30 31
19 23 31 19 17 24 25 31 29 28 27 37 40 43 33 31 31 29 35 34 33 31 30 31 34 34 32 33 34 36 36 37 35 34 33 31 32 32 34 34 33 32 33 34 33 32 33 34 34
18 18 19 26 14 15 23 8 28 34 33 34 40 45 49 45 35 32 31 36 36 35 35 34 34 35 35 35 35 36 37 37 35 36 36 36 36 37 39 39 38 37 37 38 38 38 39 38 38
23 17 15 21 18 14 20 12 21 14 25 35 39 41 46 41 39 35 35 36 36 34 32 30 31 34 35 36 38 38 39 39 39 39 40 40 40 41 42 42 41 40 42 43 43 40 38 37 38
23 24 18 15 15 8 24 24 19 27 31 24 33 37 41 40 41 40 39 38 38 38 36 34 33 33 34 34 35 37 38 38 38 38 38 37 38 40 41 40 39 38 38 38 35 34 35 35 35
22 23 4 3 5 5 15 21 37 15 22 25 26 33 41 44 41 41 42 43 44 42 38 36 35 33 31 32 33 34 35 35 36 35 36 35 35 35 34 33 30 33 34 34 34 32 33 34 35
27 22 6 5 4 3 8 16 28 17 28 18 23 23 35 41 38 37 37 36 34 34 33 30 29 27 26 27 28 29 30 31 31 32 32 31 30 29 29 28 27 28 29 31 32 32 32 32 33
27 21 17 1 2 1 9 14 17 19 21 22 18 23 27 32 34 33 32 29 26 26 26 25 24 23 23 23 24 25 26 26 26 26 26 25 25 25 24 24 25 26 28 29 29 30 31 32 34
19 25 13 10 3 4 5 10 18 16 21 22 21 22 27 30 28 27 25 23 22 22 22 22 22 22 23 24 25 26 27 27 27 28 28 27 27 27 27 28 28 29 31 31 31 32 33 34 36
20 21 13 9 6 4 1 7 12 22 21 17 23 22 20 20 21 21 20 20 19 20 20 21 23 24 26 27 28 29 29 29 30 31 31 31 32 32 32 32 31 32 32 32 32 32 33 32 32
26 20 25 10 7 7 2 5 8 14 20 19 19 21 19 16 17 18 17 17 17 18 18 19 21 22 24 26 28 29 29 29 30 31 32 33 33 33 31 30 30 30 30 30 30 29 27 26 29

GFSSGP_700_spd_081.txt.gz
Wind_Speed
22 19 20 19 15 12 20 16 11 17 27 21 19 16 13 13 21 25 13 19 18 13 9 12 11 10 9 8 7 7 6 5 5 6 6 6 6 7 7 8 8 8 9 10 10 9 9 9 8
26 23 21 20 18 18 20 21 18 13 18 16 16 17 14 13 19 25 15 21 20 18 14 13 12 11 12 11 9 7 6 6 7 7 7 7 8 8 9 10 10 9 9 9 10 10 10 10 10
32 26 22 22 23 27 23 23 19 12 19 17 14 17 15 15 20 18 19 23 21 21 17 16 14 12 13 12 13 12 7 7 7 7 7 7 7 8 9 10 11 11 10 10 10 11 10 10 9
36 34 32 25 27 31 28 28 22 14 20 16 12 16 18 16 16 21 24 26 23 21 20 19 19 15 12 10 11 13 14 10 8 8 7 7 7 7 8 9 10 11 11 12 13 12 13 12 10
36 35 36 42 39 33 34 22 25 16 18 16 16 17 19 18 18 21 23 26 25 23 23 21 21 18 14 11 10 9 12 14 14 10 9 9 10 10 11 11 11 11 11 11 12 13 12 12 12
38 39 26 30 42 41 38 33 19 18 19 13 14 15 19 21 22 20 20 21 24 25 25 24 23 21 16 12 10 8 8 9 12 15 14 12 11 12 12 12 12 12 12 13 13 13 13 13 13
41 44 37 40 37 38 40 41 30 20 20 16 13 18 19 21 25 23 23 20 22 26 27 26 24 23 20 15 12 9 7 6 8 10 13 14 14 14 13 13 12 12 13 12 12 11 11 11 11
40 41 45 37 41 42 38 45 36 27 18 11 12 12 20 20 24 24 26 24 21 24 29 28 27 25 23 18 15 12 8 6 6 7 8 10 13 14 14 13 13 13 12 12 11 11 11 11 12
37 36 38 46 40 39 35 40 43 29 20 12 11 12 18 22 24 25 24 28 26 25 30 30 29 26 24 22 18 15 11 8 8 5 4 4 5 8 12 11 9 10 11 11 11 10 10 11 11
35 43 45 45 41 37 38 33 49 44 26 14 7 16 17 21 24 25 26 26 27 27 27 30 31 29 27 24 21 17 13 11 11 10 7 5 4 3 1 2 4 5 6 5 6 8 9 10 11
36 46 39 33 39 42 37 30 45 49 37 13 8 15 16 21 23 23 24 24 21 21 26 28 32 31 28 24 20 18 17 16 15 13 12 10 9 8 7 7 7 7 7 7 7 6 7 8 10
35 34 35 25 29 36 34 33 39 54 31 13 14 21 22 23 23 22 23 23 21 23 24 22 28 29 27 24 23 22 21 20 19 18 15 14 13 12 11 11 11 11 11 11 11 11 12 13 13
36 19 28 26 21 27 30 33 37 48 46 21 13 25 26 24 23 20 23 21 20 18 18 17 17 22 24 23 21 20 20 20 20 20 19 18 17 16 15 15 14 13 14 14 14 15 15 15 16
26 23 17 24 23 23 28 29 35 39 53 23 19 22 23 22 21 22 19 24 20 20 17 16 15 15 14 15 16 17 17 17 18 18 18 17 18 17 17 16 15 15 15 15 16 16 17 18 18
12 28 15 29 28 30 20 22 35 27 46 32 19 13 22 21 23 19 19 19 22 21 19 17 16 17 15 14 15 16 15 16 16 16 16 16 17 17 17 16 15 16 16 16 17 17 18 19 19
23 16 31 23 31 28 27 36 30 20 19 32 21 13 20 28 20 21 19 18 18 19 20 20 19 18 17 17 16 16 15 14 14 15 14 16 16 16 15 16 15 16 17 17 18 19 20 21 22
32 19 31 22 27 28 29 29 27 33 22 26 20 18 15 20 24 23 21 18 18 19 22 22 22 21 20 20 20 19 19 16 14 15 16 17 18 18 16 16 17 18 18 18 19 20 21 22 24
38 28 22 33 25 24 29 23 19 36 37 24 19 24 18 22 24 25 25 22 23 23 23 25 26 26 24 24 24 23 23 21 19 18 18 19 19 17 18 19 20 21 21 21 22 23 24 23 25
31 38 17 25 23 24 24 28 15 25 32 22 28 29 29 27 26 26 27 26 27 27 26 25 27 28 30 30 28 28 26 25 24 22 22 23 23 22 22 22 22 23 24 25 26 26 26 27 28
25 33 27 20 20 28 26 27 28 24 27 32 26 29 31 32 32 32 35 32 32 31 29 27 27 29 31 32 31 31 28 29 29 29 30 27 25 26 26 26 26 28 29 29 29 30 30 32 30
23 29 29 18 27 16 25 31 31 30 36 35 38 43 39 34 41 35 34 32 30 30 31 31 29 29 29 30 32 32 34 36 35 33 31 29 28 29 30 31 31 32 33 33 32 33 34 34 32
21 23 25 22 16 19 20 6 22 33 37 37 41 46 48 46 40 40 38 33 33 33 32 30 30 30 31 30 31 33 35 35 33 32 33 33 33 33 33 34 35 35 37 37 37 36 36 37 39
14 21 19 23 17 10 16 10 25 22 31 42 40 40 51 45 45 39 38 32 31 32 34 33 32 31 32 33 34 34 36 36 37 37 37 37 38 38 38 39 41 40 41 41 41 40 41 40 38
15 19 18 18 12 6 18 20 16 27 29 27 35 36 39 45 50 47 44 38 34 32 32 32 31 30 30 31 32 34 34 35 36 37 39 39 39 40 41 41 42 41 40 39 39 38 37 34 33
20 19 5 3 5 4 11 19 29 9 12 19 24 25 30 41 44 47 45 39 37 36 34 34 35 35 35 35 35 35 35 35 35 35 36 37 37 38 38 39 39 37 34 32 34 35 34 32 32
30 25 5 6 4 3 6 11 25 16 18 22 16 21 28 32 41 41 40 39 38 39 40 41 43 41 39 37 35 34 34 35 35 35 36 36 36 35 36 37 37 35 32 32 34 34 33 32 30
29 28 14 3 3 2 8 15 28 29 23 18 17 21 26 30 36 42 39 37 38 39 39 37 34 33 32 30 28 28 29 30 31 31 31 30 29 28 27 27 27 26 26 27 28 28 29 29 30
26 25 13 8 2 3 5 11 17 13 13 17 19 22 22 23 25 30 34 33 33 32 30 28 28 27 26 25 26 26 26 27 28 29 28 28 28 27 26 26 26 27 27 28 29 30 31 31 33
19 22 13 11 6 4 1 6 6 11 17 20 11 17 17 19 18 22 27 29 27 25 24 24 24 24 25 25 27 28 28 29 29 30 31 31 31 30 30 30 30 31 31 32 33 32 32 33 33
24 21 27 8 5 9 3 10 18 14 9 11 12 12 16 15 17 20 21 22 21 22 22 23 23 24 25 26 28 29 29 30 31 32 32 32 32 33 33 33 33 32 32 31 31 31 31 30 29

GFSSGP_700_spd_084.txt.gz
Wind_Speed
24 22 22 21 15 13 21 16 17 19 24 28 17 17 15 17 18 16 9 13 18 10 9 12 12 11 10 9 8 8 8 8 7 7 8 8 9 10 11 12 11 12 13 13 14 14 13 12 12
27 24 23 23 17 20 19 24 14 16 20 26 22 17 14 17 14 17 12 15 19 14 11 12 13 13 13 11 9 9 9 9 8 9 9 8 10 12 13 13 13 14 14 14 14 14 13 13 13
29 26 26 23 24 24 19 23 17 13 15 15 16 16 16 15 14 15 19 17 20 18 14 13 12 14 14 14 14 11 10 10 9 9 9 9 10 11 12 12 13 14 15 15 15 15 13 13 13
33 28 27 24 25 29 25 20 22 14 13 20 19 17 16 15 13 16 19 21 21 21 17 16 11 14 14 14 15 16 14 12 11 10 10 10 10 11 11 12 12 13 13 14 14 14 14 14 14
38 33 31 32 32 28 27 22 22 16 17 18 18 14 14 15 15 19 21 26 25 23 22 20 15 14 14 13 12 14 16 18 16 13 12 12 12 12 13 13 14 14 14 13 13 13 14 15 16
38 40 27 39 44 38 31 31 18 24 15 13 18 18 15 16 17 20 25 27 27 26 25 23 21 17 15 13 11 9 11 14 16 18 16 15 15 14 14 14 14 14 13 13 12 12 12 13 12
41 44 39 40 48 46 39 30 32 21 17 10 15 17 15 13 19 22 25 27 28 28 26 25 23 21 17 14 12 11 10 10 12 14 16 18 17 15 16 16 15 14 14 13 13 13 14 13 13
43 43 43 41 43 42 40 38 33 30 22 10 13 14 18 17 20 24 25 27 27 29 28 27 25 24 21 17 15 13 12 12 12 13 12 14 13 15 16 14 14 16 16 16 14 14 14 13 13
38 34 41 50 48 48 37 35 37 38 31 15 12 15 19 18 21 24 28 28 27 27 29 29 28 27 25 20 18 16 14 12 10 9 9 8 7 8 10 11 11 11 11 12 13 14 14 13 13
33 42 43 45 46 39 34 36 31 42 36 22 10 18 19 18 22 24 25 28 28 26 29 31 30 28 27 24 20 18 15 13 12 11 8 7 5 3 2 1 3 5 5 3 3 3 5 6 8
34 41 41 41 39 42 37 37 36 40 46 30 13 18 19 23 22 21 21 22 24 28 26 30 32 31 29 27 24 20 18 16 15 13 11 9 8 7 6 5 5 5 5 6 6 7 7 8 9
34 32 37 26 31 36 37 32 33 30 49 39 20 19 24 23 21 20 21 23 24 26 28 27 32 33 31 29 25 21 19 19 18 16 14 13 12 11 11 10 10 9 9 9 9 9 10 11 12
36 19 30 31 28 28 33 37 35 29 45 44 25 21 25 28 24 22 21 22 21 19 25 26 27 30 31 29 27 26 24 23 22 19 17 16 15 15 14 14 13 13 12 12 12 12 12 13 14
35 19 16 23 23 22 25 31 33 35 32 51 33 17 25 27 25 23 22 21 23 21 20 23 23 25 27 28 27 24 23 23 22 20 19 18 18 18 17 16 15 14 14 13 13 13 14 15 15
14 33 18 22 27 20 21 25 32 31 34 47 47 27 23 28 27 23 18 21 20 19 18 18 19 20 21 23 24 22 20 19 18 17 17 17 16 17 17 15 14 14 14 13 13 14 15 16 16
24 22 31 23 27 27 27 31 29 28 33 31 39 30 23 28 24 24 22 20 24 23 23 18 17 18 19 19 18 18 17 16 16 16 16 15 15 16 15 14 15 16 14 14 16 16 15 17 18
28 21 36 23 26 29 28 26 29 28 25 28 42 27 21 24 20 22 21 20 21 24 23 22 20 18 19 17 18 18 19 17 17 16 15 15 15 16 16 17 17 16 16 16 17 18 18 19 21
34 21 26 24 24 28 29 29 20 22 29 23 25 41 19 23 24 23 22 21 21 21 21 22 21 20 20 21 21 21 20 20 19 17 16 16 16 17 16 16 18 18 19 20 21 22 22 22 23
37 23 22 28 17 28 27 25 23 21 21 27 23 52 35 23 24 27 27 20 20 21 22 22 22 21 23 22 23 22 21 22 20 19 19 19 20 20 21 21 21 21 22 22 24 25 26 26 26
28 32 21 20 24 20 22 22 14 19 21 27 28 29 29 23 21 24 19 20 19 24 22 22 22 23 25 27 27 27 27 26 26 26 27 25 23 24 25 24 24 26 27 26 27 29 30 30 29
23 35 33 20 24 20 23 24 27 26 25 25 27 28 24 35 31 26 26 27 29 28 27 27 26 25 26 27 28 28 29 29 28 28 28 27 29 29 29 28 29 29 30 30 31 31 33 33 33
27 26 34 22 24 14 20 7 29 31 34 33 32 31 32 29 28 28 30 29 31 27 27 27 26 26 28 27 28 28 29 29 29 30 30 31 31 31 31 31 32 32 32 33 33 35 35 36 38
19 24 28 20 13 16 15 9 20 15 33 40 39 39 38 37 34 34 34 34 40 35 30 29 29 27 27 27 27 28 29 31 33 33 33 33 32 32 33 34 35 35 36 38 38 38 39 39 38
21 28 23 16 11 4 17 19 12 25 29 27 32 38 43 42 44 44 42 41 39 40 35 31 31 31 31 30 29 29 29 30 33 34 35 35 35 36 38 39 39 39 40 40 39 38 38 37 36
28 29 7 4 5 5 12 17 23 8 11 16 24 30 39 40 39 47 48 45 40 38 37 32 31 31 31 31 29 29 30 31 32 33 35 37 37 38 38 39 39 40 40 40 38 37 36 36 34
29 19 7 6 5 4 8 10 15 10 19 18 15 19 23 32 37 38 42 44 43 39 37 34 34 34 34 34 34 34 35 35 35 35 36 37 37 37 36 36 37 38 39 38 37 38 37 36 34
19 20 5 6 5 2 7 6 16 12 10 13 17 15 17 23 29 31 36 40 38 37 36 38 38 38 38 39 39 37 35 34 33 33 33 33 33 34 33 32 32 31 32 31 31 31 30 29 30
23 25 10 3 3 2 3 4 10 7 10 10 9 17 17 17 20 27 31 37 37 34 35 36 37 38 37 36 34 31 30 30 29 29 29 29 29 29 29 28 28 27 27 26 27 28 28 29 30
23 26 11 7 3 4 0 3 5 3 13 12 11 10 16 16 15 20 24 29 32 34 33 32 33 33 33 30 28 27 28 28 28 29 30 30 30 30 30 30 29 30 30 31 32 32 32 33 31
20 23 27 8 5 3 1 5 4 12 9 8 8 12 10 13 13 14 16 19 22 26 28 27 25 26 25 26 26 27 28 29 29 30 31 32 32 32 32 32 32 32 33 34 34 34 33 31 29

GFSSGP_700_spd_087.txt.gz
Wind_Speed
27 25 23 21 15 14 21 18 16 22 26 27 15 16 15 13 18 9 11 11 17 12 10 12 12 12 11 11 10 10 10 10 11 11 12 12 13 12 14 14 15 16 16 15 15 14 14 14 14
30 27 26 25 16 22 21 24 18 18 22 26 27 17 17 15 16 15 7 14 19 15 13 14 14 13 12 12 11 11 11 11 11 12 12 13 13 13 14 15 16 16 16 15 15 14 14 14 14
32 29 28 27 23 27 18 24 16 17 17 22 24 24 19 18 17 16 15 16 21 18 13 13 14 15 15 14 13 12 11 12 11 11 12 13 13 12 13 15 16 17 17 16 16 16 16 16 16
34 32 28 28 30 33 22 20 22 17 13 18 20 21 20 18 17 16 17 21 23 20 15 14 14 15 17 18 17 15 13 13 12 12 13 13 13 13 13 14 14 15 15 15 15 16 16 15 15
36 33 32 31 34 34 31 19 21 20 14 19 22 20 21 18 16 17 20 25 26 23 20 15 14 14 16 18 20 20 20 17 15 15 15 15 14 14 15 15 15 15 15 16 15 16 15 15 14
40 37 29 37 42 30 29 28 18 21 17 20 21 20 21 18 18 18 25 30 29 26 25 21 16 14 15 16 17 18 18 19 20 19 17 17 16 16 16 16 16 15 15 15 14 14 14 13 13
41 46 38 46 44 36 33 30 26 24 16 16 20 21 21 19 18 21 25 29 31 29 27 26 19 15 15 15 15 17 16 16 16 18 19 20 17 17 18 18 18 17 16 15 15 15 14 14 14
45 44 45 41 45 48 40 32 28 25 20 12 16 21 22 24 22 20 23 26 29 29 29 28 25 18 17 15 15 15 15 15 14 14 16 16 17 18 17 16 15 16 17 18 18 17 17 16 15
44 33 40 53 46 48 42 38 33 28 25 18 14 21 23 24 24 24 21 24 27 29 30 29 28 24 19 18 17 16 15 14 13 13 12 12 12 13 12 11 12 12 11 10 11 11 11 11 10
42 47 46 44 44 40 41 38 33 34 33 29 19 20 25 25 26 24 25 23 25 28 30 30 30 28 24 21 19 18 16 15 13 12 10 9 9 7 6 5 4 4 5 4 4 3 4 4 4
40 48 44 30 41 35 39 38 36 33 30 32 27 20 24 27 27 27 25 23 23 24 29 32 32 31 28 25 22 20 18 16 15 13 10 9 8 6 5 4 3 3 4 4 4 5 5 6 6
39 43 41 34 28 41 42 35 32 31 35 28 27 22 25 27 29 28 28 28 25 23 25 30 34 33 31 29 27 24 21 18 18 16 14 12 11 10 9 9 8 8 8 8 8 9 9 9 9
39 33 32 34 20 27 35 35 35 33 33 33 32 31 24 25 29 29 27 27 26 23 23 27 32 35 33 32 31 28 24 23 21 19 17 16 15 14 13 13 12 12 11 11 11 11 11 11 11
35 30 20 24 33 15 25 34 32 34 32 36 35 38 30 27 30 28 26 24 24 23 21 26 29 33 34 33 32 30 29 28 24 22 21 19 18 18 17 16 15 15 14 13 12 12 13 13 12
20 35 18 24 23 26 29 29 38 33 33 32 37 43 32 22 28 28 26 24 22 22 21 23 24 26 31 32 32 31 31 28 26 25 23 21 20 20 19 17 16 15 14 14 14 14 14 15 13
23 30 26 21 26 23 28 33 30 30 31 31 28 45 36 24 26 27 26 24 25 25 24 23 19 22 28 30 30 30 28 26 24 23 21 18 18 17 17 15 15 15 15 15 15 15 14 14 15
33 23 40 21 25 27 26 24 22 27 27 29 31 40 41 33 28 29 29 25 25 25 26 25 19 16 18 24 27 27 25 23 22 20 18 17 16 16 15 15 16 16 17 16 16 16 17 18 19
36 18 32 33 27 29 27 28 25 27 26 24 26 26 39 44 31 29 30 28 25 27 28 30 25 21 17 18 20 22 22 22 21 19 18 17 17 17 16 16 17 17 17 18 19 20 21 21 23
37 25 25 32 22 27 28 29 28 24 19 26 26 27 31 37 34 33 34 28 24 25 26 29 29 26 24 23 20 20 19 20 20 18 18 18 18 19 18 18 19 20 20 21 22 23 24 25 27
32 32 21 26 22 21 23 23 23 26 25 22 23 24 30 38 41 39 41 27 28 25 22 25 26 20 26 21 21 23 23 22 22 21 21 23 22 20 20 21 22 24 25 26 26 27 28 29 29
27 33 26 28 25 20 20 25 24 23 22 22 25 27 30 43 40 44 39 35 31 26 22 14 16 19 21 24 28 28 28 26 26 24 25 25 26 26 27 28 28 28 28 28 29 30 31 32 32
25 29 26 20 31 12 19 6 24 27 26 25 24 29 28 31 46 38 31 35 30 28 22 21 23 24 22 24 24 25 27 28 28 29 29 30 30 31 32 32 32 32 32 31 31 33 34 35 35
13 25 31 17 22 17 17 9 13 16 35 32 28 27 27 26 26 36 30 28 29 32 28 25 27 25 23 23 24 25 25 27 29 30 32 32 33 32 32 32 32 32 34 34 35 36 37 38 39
21 26 22 19 15 7 19 19 9 20 21 28 29 26 26 27 30 28 37 36 37 33 31 31 28 26 25 26 26 25 25 27 28 30 31 32 33 34 34 35 36 36 37 38 39 41 40 39 38
25 36 9 6 6 4 14 17 22 6 11 22 24 25 29 27 31 31 36 35 36 33 31 32 33 32 29 30 30 29 28 29 28 28 29 30 32 34 35 36 37 38 39 40 40 40 39 37 36
39 31 8 7 6 4 8 9 14 13 16 8 12 23 27 28 33 38 37 38 41 34 36 35 35 36 32 31 31 30 30 29 29 30 33 34 35 37 37 37 37 36 36 37 37 38 37 36 34
31 16 6 10 8 4 6 4 3 0 11 11 16 13 15 24 27 34 40 40 38 35 39 39 38 33 33 32 33 33 32 33 34 35 35 34 34 34 34 34 35 34 34 33 32 32 32 30 28
17 18 6 4 4 2 0 3 6 7 3 7 16 20 15 17 21 23 29 33 39 35 35 35 36 38 35 36 36 36 36 36 35 33 32 30 31 30 29 28 29 28 27 27 27 28 29 27 27
13 17 6 6 4 3 3 2 9 5 3 3 8 15 18 20 20 20 22 29 31 33 35 34 33 33 35 35 36 37 36 34 32 31 30 29 29 29 28 29 29 29 29 29 29 30 30 30 30
17 15 20 7 5 4 3 2 5 7 8 11 4 12 13 16 17 17 18 24 27 30 32 33 33 32 33 34 33 32 31 31 30 30 30 30 30 30 31 31 31 31 31 31 32 33 33 33 32

GFSSGP_700_spd_090.txt.gz
Wind_Speed
29 27 24 22 13 13 21 16 22 23 26 23 20 18 17 15 13 8 11 12 16 11 10 11 13 12 11 12 13 12 12 12 12 12 12 12 13 13 14 14 15 15 15 14 14 13 13 12 12
30 28 26 26 16 21 24 19 20 22 28 30 21 20 17 11 20 9 14 16 18 14 12 11 13 13 12 13 13 13 13 13 12 12 12 13 13 14 15 15 15 14 14 14 14 13 13 12 12
32 30 27 20 23 28 23 21 20 21 24 26 28 21 21 20 19 18 11 20 21 19 14 13 13 13 13 13 14 14 13 13 13 13 12 12 13 14 15 15 15 15 15 15 15 15 15 14 14
33 32 30 24 30 27 19 14 23 21 19 23 25 28 23 21 20 19 16 25 24 22 17 15 15 15 15 15 14 14 14 14 13 13 13 12 13 14 14 14 14 14 15 14 15 15 15 15 15
35 35 24 29 32 26 19 15 25 20 19 20 21 22 29 24 21 20 20 29 28 24 20 17 16 17 16 17 17 16 16 15 15 15 15 14 15 15 15 14 14 14 15 14 14 14 14 13 12
37 38 27 36 37 24 20 19 20 23 19 18 20 21 26 26 23 23 22 33 31 27 24 21 18 16 16 17 18 18 19 18 18 17 16 16 16 16 15 15 15 14 13 13 13 13 13 13 13
42 38 37 41 35 26 24 31 19 22 21 19 22 19 26 27 26 23 26 35 33 32 28 25 22 20 19 18 17 17 19 20 21 20 18 17 16 16 17 17 17 15 14 14 14 14 14 13 13
42 34 39 36 37 35 23 31 33 22 19 19 23 20 23 27 27 25 29 36 35 34 32 28 26 24 21 20 19 18 17 17 17 17 17 18 18 16 16 17 17 16 17 16 16 15 14 14 13
46 31 40 42 37 37 27 30 29 31 21 17 18 21 22 25 26 28 29 35 37 36 35 32 29 28 25 23 20 20 17 14 14 14 13 13 14 14 14 13 13 11 11 10 9 8 7 7 6
42 39 41 35 33 32 29 30 26 26 25 20 17 20 24 23 28 28 28 31 35 35 36 35 32 30 28 26 22 21 19 16 14 13 12 11 11 11 9 7 6 5 4 3 2 1 1 2 3
40 41 35 29 29 26 28 31 30 34 24 25 24 19 19 26 29 30 30 28 28 32 34 35 34 31 29 29 26 24 23 19 17 15 14 13 11 10 8 6 5 5 4 4 4 4 4 5 6
36 41 27 25 30 27 26 28 35 33 25 23 24 25 21 24 29 32 32 29 28 31 30 34 35 34 32 29 28 26 25 23 20 17 16 14 13 11 10 10 9 9 8 8 8 8 8 8 8
40 22 25 31 25 25 25 29 27 32 33 30 26 23 27 23 29 31 32 30 30 30 29 30 33 35 34 32 31 29 28 26 24 21 19 18 17 16 15 14 13 13 12 12 11 11 11 11 11
27 27 19 25 27 24 26 30 32 31 30 29 26 25 24 25 24 32 33 32 30 29 29 28 29 34 35 35 33 31 30 29 27 25 23 22 21 19 18 18 17 16 15 14 13 13 13 13 13
20 26 19 21 26 28 25 25 42 23 31 32 28 27 30 29 26 28 31 33 32 30 30 29 28 31 35 35 35 33 32 32 30 29 27 25 24 23 22 21 20 18 17 15 15 15 15 15 16
27 16 30 22 23 27 24 25 23 30 31 32 30 29 30 38 34 28 30 32 33 34 30 28 28 30 33 34 36 34 34 33 32 31 29 27 26 24 23 22 20 18 17 16 16 16 16 16 16
26 22 37 21 24 23 31 23 22 28 31 32 32 32 32 36 37 35 32 30 33 33 32 31 27 26 28 31 33 34 34 34 32 30 28 27 25 23 21 20 19 17 17 17 17 17 17 18 19
35 30 35 25 27 24 27 20 17 26 30 29 29 33 33 40 43 40 32 31 32 31 34 31 26 25 28 31 31 30 32 33 31 29 27 24 22 21 21 20 19 19 19 18 18 19 20 21 22
25 28 34 29 20 25 25 26 20 21 27 28 29 31 32 34 34 42 33 32 32 33 34 33 30 27 25 22 23 26 26 27 27 24 22 21 21 21 21 21 21 20 20 20 22 22 23 24 25
17 29 23 26 20 24 22 23 23 23 27 26 28 28 33 32 37 45 39 35 35 31 33 33 32 30 28 24 24 26 26 24 23 22 23 23 23 22 21 20 21 22 23 24 25 26 27 27 28
23 30 25 26 22 18 17 21 25 25 31 29 28 28 30 38 38 42 40 37 38 35 30 32 33 35 35 36 33 29 30 30 27 24 24 24 24 24 25 26 27 27 27 27 28 28 29 30 32
22 27 21 24 23 15 19 8 23 26 27 30 28 28 30 35 40 36 37 38 41 39 28 28 29 21 31 43 35 25 29 27 26 26 26 28 30 31 31 30 31 31 31 32 32 33 33 34 34
11 24 22 20 21 12 16 10 13 16 27 26 27 28 29 36 40 44 39 37 42 40 42 30 26 21 19 17 42 17 24 23 26 28 29 33 35 32 32 32 33 34 36 35 34 35 36 37 37
15 28 18 17 15 8 16 19 11 15 20 25 24 26 28 34 37 47 41 35 44 41 43 37 35 26 24 21 23 24 26 27 28 30 30 33 33 34 34 34 35 36 37 36 36 38 39 39 40
19 26 7 7 7 6 13 14 15 6 8 21 20 24 25 26 28 31 40 48 40 41 34 33 34 36 34 26 27 25 25 25 26 27 30 31 31 31 31 33 35 36 37 38 39 40 41 41 41
25 25 7 8 9 10 7 11 13 11 17 8 21 25 25 28 30 29 32 31 42 44 38 31 33 32 30 29 30 32 33 34 31 29 29 29 29 31 33 35 36 37 38 39 40 40 40 39 38
7 21 10 7 6 7 9 6 3 8 15 16 12 15 24 28 25 28 32 32 30 36 36 30 32 32 30 31 33 35 33 31 31 29 29 31 33 34 36 36 36 36 36 36 36 37 37 37 36
8 13 7 4 6 5 5 5 3 7 9 11 14 18 17 16 21 25 26 31 35 34 40 34 32 34 34 34 33 33 34 32 33 33 33 33 33 34 34 33 32 31 31 30 30 30 30 30 30
9 16 4 5 2 1 5 5 10 9 8 8 11 18 22 22 19 23 23 24 32 36 37 38 38 31 33 34 34 34 35 36 37 38 38 37 36 35 34 33 32 31 30 30 29 30 30 31 31
13 16 9 3 3 4 1 6 9 12 9 7 5 11 17 19 20 20 21 21 24 33 38 38 36 33 33 34 34 34 35 36 37 37 37 36 35 35 34 34 33 32 32 32 32 33 33 32 32

GFSSGP_700_spd_093.txt.gz
Wind_Speed
29 27 24 21 12 16 27 26 20 19 20 17 16 15 14 14 13 12 11 10 14 10 9 10 11 12 12 12 12 12 12 12 12 12 12 12 12 13 13 13 12 13 12 12 11 12 11 11 12
32 28 26 17 19 26 28 26 23 17 17 21 20 17 17 8 17 8 13 16 17 14 11 11 12 13 13 13 13 12 12 12 13 13 13 12 13 13 13 13 13 13 13 12 12 11 11 12 12
34 31 19 20 25 31 28 27 18 21 26 24 18 19 12 11 20 12 17 21 19 16 14 13 11 12 12 13 13 13 13 13 12 12 13 13 13 14 13 14 14 14 13 13 13 13 14 14 14
34 32 26 28 30 35 24 20 19 20 19 24 17 16 24 22 23 18 17 25 22 19 17 15 14 13 13 13 13 13 13 13 13 12 12 13 13 14 14 15 15 14 14 14 14 14 14 14 14
34 31 29 30 35 30 26 11 22 17 14 21 25 16 19 25 21 22 16 27 25 22 19 17 16 15 14 14 13 12 12 12 12 13 13 13 13 13 13 14 14 14 14 13 13 12 12 12 12
36 34 28 36 39 31 28 15 17 16 13 17 19 15 25 28 24 23 21 30 28 25 22 20 20 19 18 17 16 14 13 12 13 14 15 14 13 14 15 14 13 13 12 12 12 12 13 13 13
40 36 36 42 38 34 25 20 19 18 13 19 20 14 23 32 28 25 23 31 33 29 26 24 22 22 22 21 20 19 17 15 14 14 15 15 14 14 15 14 14 14 14 14 13 13 13 13 13
40 31 38 38 38 36 26 22 19 18 14 19 21 11 17 29 31 28 26 34 33 29 30 28 26 24 24 23 23 22 21 19 17 16 15 14 15 16 16 16 16 16 16 14 14 13 12 12 11
37 29 38 42 36 34 27 27 21 18 14 22 24 22 21 26 30 30 29 36 37 34 33 31 29 27 26 26 25 24 23 21 18 16 15 15 16 16 15 13 13 12 12 10 9 8 7 6 5
35 40 40 36 31 32 31 28 24 22 14 21 26 18 19 21 25 31 30 38 41 40 36 33 31 30 28 28 27 25 23 21 18 17 15 12 12 12 12 10 8 6 5 4 3 2 3 4 5
33 40 37 28 35 27 23 27 21 20 21 16 20 27 18 21 22 27 29 34 40 39 38 35 33 31 30 28 28 27 26 24 21 18 16 14 12 12 9 7 5 4 3 3 4 5 5 6 7
25 50 29 31 34 30 21 27 30 22 21 18 12 23 21 22 24 25 30 32 36 38 37 37 35 33 32 30 29 28 27 26 23 21 18 16 14 12 10 9 8 7 7 8 8 8 8 9 9
32 23 30 24 30 30 33 27 23 26 21 18 15 25 21 21 22 26 27 30 32 36 36 36 34 34 33 32 31 30 29 27 25 22 20 18 16 14 13 13 12 12 12 12 12 12 11 10 11
26 24 15 27 28 19 28 22 22 24 23 20 20 22 21 23 22 24 28 29 27 31 33 34 35 35 35 34 32 31 29 29 28 25 23 21 19 18 17 17 17 17 17 16 15 14 13 13 12
20 17 19 22 28 18 16 22 31 24 19 20 21 24 25 23 25 22 27 29 30 30 30 34 32 35 35 35 35 33 32 31 30 28 26 25 23 22 21 21 21 20 20 19 17 16 15 15 14
26 12 28 26 24 26 18 29 28 26 24 23 21 21 25 28 24 27 25 29 32 34 33 31 33 33 33 34 34 34 34 33 33 31 29 27 26 25 24 24 24 23 21 19 17 16 16 17 16
32 23 29 28 27 24 26 27 23 28 24 21 24 23 23 22 25 31 27 28 31 34 34 33 32 32 32 33 35 34 34 34 34 33 32 30 28 27 27 26 24 23 20 18 18 18 18 18 18
27 31 32 36 26 26 28 25 17 21 27 27 23 24 23 26 25 32 33 28 30 35 34 33 32 32 33 33 33 35 32 33 34 35 34 32 30 28 26 24 22 21 19 19 19 20 19 20 21
15 32 27 33 27 30 27 30 23 19 23 23 24 24 25 25 25 25 33 34 32 34 35 35 34 32 34 34 33 34 33 32 34 32 31 30 28 27 25 22 23 21 20 21 21 21 21 22 24
10 19 28 28 19 24 24 25 26 17 20 23 23 24 25 23 23 27 37 39 35 36 35 33 34 35 32 33 32 31 31 32 32 31 28 25 25 23 23 23 23 22 22 23 24 24 24 26 26
27 20 26 34 18 19 18 23 24 26 24 20 22 24 24 23 25 28 35 41 41 42 37 34 34 38 33 29 28 28 26 28 30 28 28 26 23 22 20 23 23 24 25 26 27 27 27 28 29
13 20 20 27 20 18 20 9 27 29 28 28 26 25 25 23 27 29 32 37 43 41 38 37 37 35 39 33 32 31 34 32 32 36 31 27 27 24 24 25 26 27 29 30 31 32 32 33 33
11 15 18 23 21 18 18 12 19 26 29 27 27 26 24 25 28 34 28 38 38 42 38 38 41 36 32 34 34 31 31 39 38 45 41 33 34 26 25 28 27 28 33 34 34 35 36 35 35
17 19 16 18 17 9 18 22 16 16 25 24 24 25 25 28 32 28 37 37 41 42 42 40 39 43 30 26 32 48 42 35 35 40 42 42 36 34 25 27 29 30 34 36 37 37 37 37 37
17 17 6 5 5 6 20 17 4 10 10 18 21 22 23 27 28 32 29 41 39 40 38 37 38 39 33 37 23 19 22 40 40 35 29 21 21 26 29 28 29 34 35 36 37 38 39 38 39
21 18 4 6 8 12 7 10 12 17 13 12 25 24 23 23 27 30 32 36 40 37 34 39 39 38 37 31 30 27 23 20 22 22 19 21 25 28 29 29 30 33 35 36 38 39 39 39 39
14 13 4 4 5 11 11 8 8 19 17 16 14 23 27 30 30 30 35 34 43 44 42 41 40 37 36 34 35 29 33 31 27 22 28 23 30 32 29 32 35 37 37 38 38 39 37 37 37
13 15 3 2 4 5 6 14 7 7 9 14 17 13 17 25 27 27 30 33 39 34 37 47 46 48 31 28 26 28 31 33 31 30 30 31 32 33 34 35 35 35 34 34 34 33 33 33 33
17 11 6 4 3 4 6 7 9 11 11 12 17 17 18 18 20 22 26 29 32 35 35 33 43 37 34 23 23 32 32 32 31 31 31 33 34 35 36 36 36 35 34 32 32 31 31 31 31
12 13 9 6 4 2 2 5 13 12 10 9 10 14 18 21 20 22 22 25 26 28 34 35 33 34 33 34 33 31 33 34 34 34 35 36 37 38 37 37 37 35 34 33 33 33 33 32 32

GFSSGP_700_spd_096.txt.gz
Wind_Speed
31 25 23 21 15 17 23 28 19 21 23 20 16 14 5 10 11 16 12 12 15 11 11 11 12 13 13 12 12 11 11 11 11 12 12 13 13 13 13 13 12 11 11 12 12 12 12 12 12
31 28 25 20 17 21 27 26 24 24 21 21 21 20 7 12 17 11 18 16 17 14 12 12 12 13 13 12 12 12 12 12 12 12 13 14 14 14 14 14 13 13 13 13 12 12 12 13 14
32 32 24 23 23 28 27 25 26 23 23 20 20 21 11 7 8 15 17 19 19 16 14 13 12 13 13 12 11 12 11 11 12 12 13 14 14 14 14 14 13 13 14 14 14 15 14 15 14
34 32 28 25 27 42 26 20 28 30 30 23 19 17 20 14 18 12 17 20 21 18 16 14 13 14 13 13 12 12 12 11 11 11 13 14 14 14 15 15 14 15 15 15 15 14 14 14 13
35 31 31 25 34 33 28 15 26 30 32 29 21 15 21 22 18 15 16 22 22 20 18 16 15 15 15 14 14 13 12 12 10 10 11 13 13 14 14 14 14 15 15 14 13 13 12 13 13
35 36 25 30 35 32 31 21 16 21 20 23 25 15 20 25 21 21 15 25 24 21 20 19 18 17 17 16 15 14 14 13 12 12 12 12 13 15 14 14 14 14 14 13 14 13 13 13 13
42 37 32 43 35 30 28 24 25 15 19 25 26 19 22 26 26 22 19 25 26 27 23 21 20 20 20 19 17 17 16 16 15 14 14 14 13 13 14 13 14 14 13 14 14 15 15 15 14
40 27 37 36 37 33 29 25 22 21 20 20 20 22 25 29 28 24 24 30 29 29 27 24 24 22 22 21 21 19 18 17 16 16 15 14 15 14 14 14 16 16 16 15 15 14 13 13 12
40 40 35 40 32 31 31 24 24 20 22 22 26 24 29 25 32 28 26 26 31 33 30 27 26 25 24 23 22 21 20 19 19 18 17 17 16 17 16 16 15 14 13 12 11 10 9 8 8
32 39 42 46 31 31 28 34 28 23 19 24 28 23 19 23 28 31 29 29 33 33 32 30 29 27 26 25 24 22 21 21 20 19 18 17 16 15 13 12 11 8 7 6 5 4 5 5 6
37 45 37 41 35 25 20 34 33 32 19 21 30 28 22 21 25 29 29 32 38 34 34 32 31 30 26 28 25 24 22 21 20 19 17 14 14 12 10 7 5 2 0 2 3 4 5 6 7
26 50 36 34 34 20 22 43 26 31 22 13 22 24 24 22 23 25 28 30 38 40 37 34 33 32 30 29 27 27 25 23 20 18 17 15 13 11 10 6 4 4 4 5 7 7 8 8 9
31 25 36 32 31 22 17 36 19 33 22 22 18 25 25 24 23 24 26 26 34 37 39 37 33 33 31 31 29 28 27 24 22 19 17 16 14 12 10 8 8 8 8 9 10 11 10 11 11
24 28 17 31 38 19 24 36 26 25 17 29 11 21 23 25 21 25 27 25 26 34 36 36 33 32 33 32 31 29 29 26 24 23 20 18 16 15 13 12 11 12 12 13 13 13 13 12 12
23 22 27 24 34 29 21 27 28 27 19 24 19 20 19 27 22 20 23 25 26 25 32 32 36 35 34 31 30 29 30 28 27 25 23 21 20 19 17 17 16 16 16 17 16 16 15 14 14
24 19 19 28 23 22 26 29 26 20 21 20 21 20 19 23 21 22 19 23 25 28 23 32 37 31 33 34 31 30 31 31 30 28 27 26 25 23 21 21 19 20 20 18 18 17 16 16 16
23 12 28 16 26 21 20 14 20 21 21 19 23 18 19 23 23 22 21 20 24 26 26 28 29 33 30 33 33 33 33 32 31 31 31 30 29 27 25 24 24 23 21 19 17 17 17 17 17
19 20 17 22 24 23 21 21 12 15 23 22 21 22 21 17 22 30 23 22 22 25 27 29 28 28 30 30 32 31 33 34 35 35 35 35 33 30 28 28 27 23 20 19 18 18 18 18 17
21 23 22 20 25 29 25 20 19 15 27 27 21 24 24 26 20 19 33 26 23 23 28 28 30 30 31 31 31 32 34 33 34 35 36 35 35 34 31 29 26 23 21 18 19 19 19 18 20
8 22 26 19 26 23 34 26 25 15 27 26 29 26 27 23 21 26 34 30 28 27 25 28 29 31 30 30 30 33 32 32 31 32 32 31 30 30 29 27 25 23 20 19 21 20 20 22 22
19 15 23 23 24 28 20 24 24 26 25 28 27 24 23 24 27 20 29 33 30 30 30 28 29 31 30 32 30 31 32 33 34 33 32 29 38 39 31 25 23 23 20 21 22 22 22 24 26
10 11 18 20 27 13 28 10 33 33 25 20 28 31 29 27 22 24 29 31 31 33 33 31 32 31 31 32 34 31 27 30 31 29 30 31 31 30 29 30 29 25 23 24 23 22 25 26 28
13 12 16 17 25 16 20 1 11 29 32 31 31 28 34 32 28 26 30 34 34 29 33 36 36 37 34 35 36 37 32 29 30 30 28 32 33 32 30 29 29 27 29 30 32 26 26 25 32
11 9 17 10 21 5 17 17 13 22 39 36 31 33 30 31 33 28 31 37 38 36 31 33 37 35 37 37 40 43 41 45 41 38 31 32 34 36 37 36 29 26 30 34 31 24 22 28 34
14 8 5 4 2 2 21 15 8 13 20 21 24 23 23 27 25 29 39 42 41 36 35 36 36 39 37 37 38 36 42 34 29 37 33 37 41 40 39 38 30 21 21 21 19 26 26 34 35
16 7 1 3 4 6 15 6 16 9 10 22 23 24 21 24 25 28 31 34 37 34 34 32 35 37 39 39 36 39 39 45 37 40 25 39 39 40 53 36 40 19 21 27 28 28 33 37 38
15 11 5 5 4 8 8 6 17 12 12 14 26 26 27 23 23 29 35 37 35 33 30 31 32 33 37 33 29 23 21 21 25 27 23 20 22 19 23 14 20 25 29 31 33 35 36 37 37
5 15 2 0 3 3 6 14 7 19 20 16 18 28 30 32 29 25 23 29 32 32 31 31 30 32 31 36 35 34 27 27 28 26 27 25 27 24 23 26 31 33 33 33 33 32 33 34 33
14 8 6 3 3 1 4 3 10 15 13 13 16 17 19 28 31 31 30 27 32 34 32 31 38 39 38 38 39 46 43 26 23 25 26 28 28 29 31 32 34 35 35 35 36 35 33 32 32
11 12 9 1 5 5 4 3 10 11 10 8 12 16 15 16 19 23 27 30 32 31 28 31 33 34 35 43 43 39 37 31 20 25 28 29 30 32 34 36 38 38 37 37 36 35 35 33 32

GFSSGP_700_spd_099.txt.gz
Wind_Speed
29 25 26 27 21 17 29 31 30 27 23 19 16 16 14 21 23 18 17 20 18 15 15 15 13 13 13 12 12 11 11 11 11 12 12 12 13 13 12 12 11 12 13 13 13 13 12 12 13
31 26 30 27 21 26 33 35 30 28 21 20 20 12 14 17 16 22 20 23 19 15 14 14 14 13 13 13 12 12 12 12 12 13 14 14 14 14 14 14 14 14 13 12 12 13 13 14 15
33 33 33 30 26 36 42 35 26 27 14 23 23 14 14 19 14 24 19 24 20 18 16 15 14 13 13 13 13 13 13 12 13 13 14 14 15 15 15 15 14 14 13 14 15 15 14 14 14
34 37 35 27 37 48 46 41 32 24 23 20 24 29 13 15 16 21 21 25 22 20 18 16 15 14 13 14 14 14 14 14 14 13 14 14 15 15 15 15 16 16 15 16 15 14 13 13 12
35 40 33 37 43 50 42 30 18 18 27 25 23 25 22 18 17 21 20 23 24 22 20 18 16 15 15 14 14 14 15 14 14 14 14 15 15 16 15 16 16 15 15 14 14 13 13 13 13
36 41 31 35 53 48 43 31 6 30 30 28 25 25 17 22 16 18 24 29 26 23 21 19 17 16 16 16 16 15 15 15 15 16 14 14 15 16 16 16 16 14 14 14 14 14 14 15 16
44 39 24 40 47 45 42 34 21 25 31 29 31 28 20 23 20 24 22 28 27 23 21 20 19 18 18 17 17 16 16 16 15 16 16 15 15 16 15 15 15 14 15 16 17 17 17 16 16
34 21 45 32 38 38 39 24 29 29 24 29 34 30 29 27 22 25 22 28 28 27 23 21 20 19 19 19 19 18 17 16 15 16 17 17 15 15 15 16 16 17 18 17 16 15 14 14 13
39 40 29 48 42 42 33 30 27 24 28 27 30 34 27 26 26 25 28 25 29 30 27 24 23 21 20 20 19 19 19 17 16 16 17 18 18 18 18 18 16 16 16 15 13 12 10 10 10
32 36 46 34 31 36 32 27 30 26 27 28 34 41 28 26 27 26 27 29 32 32 30 27 26 24 22 21 20 19 20 20 19 18 18 18 20 19 18 17 14 12 11 9 7 7 7 8 8
38 38 22 38 29 40 28 30 31 33 27 28 36 34 31 28 25 29 29 27 28 35 33 31 29 27 25 24 22 22 21 20 20 20 18 16 16 16 14 11 9 6 5 4 4 5 6 7 8
34 41 31 25 29 27 24 32 28 31 27 29 30 28 27 24 30 32 32 30 29 33 35 34 33 29 29 29 27 25 23 21 20 18 18 15 12 11 10 7 4 2 0 2 4 6 7 8 7
31 24 28 29 27 24 25 34 32 28 28 26 31 28 27 26 26 29 33 31 31 34 37 36 34 32 31 30 29 28 25 23 20 18 17 16 14 10 8 7 5 2 3 6 7 8 9 10 9
20 30 22 17 32 24 21 24 40 33 25 29 24 27 28 26 25 26 27 30 31 34 37 36 35 34 32 31 30 29 27 24 22 19 18 17 14 13 11 8 7 6 7 8 9 10 11 10 9
26 17 24 19 30 29 10 25 37 34 27 31 24 23 30 28 28 27 26 25 28 30 34 35 33 32 32 31 30 30 28 26 23 21 19 19 18 16 14 13 12 11 11 12 12 12 12 11 11
19 18 23 25 22 32 18 24 40 36 35 28 25 23 30 32 25 26 29 28 28 25 26 30 33 32 30 31 31 30 28 27 26 24 23 22 21 20 19 18 17 17 16 15 15 14 13 12 12
20 10 27 22 23 24 32 19 31 34 38 21 30 21 23 31 28 24 22 26 30 29 27 23 27 29 25 24 24 29 30 28 28 27 28 28 27 25 25 24 22 22 20 19 18 16 14 14 13
22 13 25 24 23 22 36 21 10 35 28 24 20 24 19 24 26 23 23 21 24 28 28 27 26 31 44 39 34 34 34 31 31 32 32 32 32 30 29 28 27 26 24 22 21 17 15 15 15
26 27 12 23 20 22 34 21 20 15 27 26 15 27 22 18 17 20 22 22 23 25 28 27 26 24 27 34 39 37 30 32 35 35 36 35 34 33 32 31 30 29 27 25 22 19 17 17 18
9 18 20 18 15 20 26 20 23 20 12 15 13 16 24 20 18 18 22 24 24 24 25 25 24 24 24 24 24 27 26 28 30 31 33 33 32 33 32 27 28 28 27 25 23 21 19 18 19
8 8 27 20 13 15 21 25 18 25 24 16 26 23 25 31 25 24 26 28 25 26 25 23 23 22 21 21 25 25 27 29 29 30 30 28 25 24 29 34 31 23 22 23 23 23 22 20 20
8 8 21 22 17 17 20 7 31 30 31 28 31 32 29 30 27 25 26 29 32 28 27 26 24 22 22 24 23 26 27 27 27 26 31 30 29 28 25 30 35 40 39 36 28 33 31 25 24
3 4 17 25 15 16 17 4 19 31 35 35 34 35 30 31 28 30 28 25 28 29 29 30 30 28 26 26 25 27 27 29 28 29 32 36 30 31 30 31 29 29 31 37 37 31 29 29 31
8 12 19 14 13 8 18 14 7 35 43 35 28 24 34 35 28 30 30 29 29 31 30 27 32 33 34 33 30 29 30 31 31 33 33 32 35 30 27 34 31 36 34 33 33 35 31 30 36
11 16 4 4 3 3 18 15 4 6 23 37 30 30 28 41 35 32 33 32 32 27 26 25 26 25 27 32 32 33 35 36 37 38 36 40 45 39 37 40 28 29 26 30 28 38 42 22 23
7 7 3 4 3 3 21 8 6 8 13 20 24 24 30 33 41 38 37 36 33 30 28 28 28 29 31 30 33 34 31 32 29 30 34 37 33 34 34 34 37 36 39 44 49 48 32 20 28
10 3 7 2 6 6 8 4 7 12 11 15 21 23 22 20 28 32 38 37 32 32 32 31 27 28 28 29 30 32 34 36 33 31 31 33 27 23 26 24 18 20 20 22 18 20 22 27 29
2 10 3 4 3 2 5 6 5 13 11 14 20 22 27 25 24 28 28 30 28 29 31 28 26 25 25 27 28 29 28 30 31 33 33 22 19 18 18 23 24 28 27 28 28 30 31 33 33
6 12 2 2 1 3 3 1 10 14 15 18 18 25 27 30 28 30 29 27 30 32 33 30 25 23 24 25 25 24 26 29 33 36 35 36 26 27 30 32 30 30 32 32 34 35 34 34 34
8 7 10 2 2 2 2 3 8 12 12 13 17 21 30 28 29 33 32 29 28 26 26 25 24 24 26 30 30 31 31 37 39 33 41 40 23 25 26 27 29 33 35 37 38 38 38 37 35

GFSSGP_700_spd_102.txt.gz
Wind_Speed
33 29 30 30 24 21 34 37 35 33 32 21 19 15 16 19 25 18 14 23 22 19 19 17 15 14 13 13 12 11 11 11 10 11 11 11 12 14 14 11 8 10 12 13 12 12 13 14 16
36 34 31 32 21 29 35 44 39 36 27 14 29 17 16 22 27 22 22 25 22 18 18 17 16 15 14 12 11 11 12 12 12 13 12 12 13 13 13 13 14 13 13 12 12 14 15 15 16
38 39 34 34 33 36 43 47 43 32 26 15 22 17 19 21 28 18 25 27 24 20 19 18 17 16 15 13 12 12 13 13 15 14 15 14 15 14 15 14 14 13 13 14 15 15 15 15 14
38 39 38 33 37 52 55 47 36 29 20 24 23 25 21 25 25 25 24 25 25 23 20 19 17 16 16 15 14 13 14 14 15 16 16 15 15 15 15 15 15 15 15 14 14 14 14 13 13
35 39 39 32 43 53 54 47 32 34 27 19 24 28 26 17 24 34 26 28 26 25 22 20 18 17 17 16 16 15 15 15 15 16 16 16 16 16 16 16 16 15 15 13 13 14 15 15 16
35 41 21 34 54 56 50 39 38 31 26 24 25 29 32 26 21 32 27 26 27 25 23 21 20 18 18 17 17 16 16 16 16 16 16 16 16 16 16 15 15 15 15 15 15 17 18 18 19
38 37 31 26 55 55 53 41 33 40 29 30 29 28 32 35 24 26 24 25 28 26 24 22 20 19 18 18 18 17 17 17 17 17 17 16 16 16 16 16 16 16 16 17 18 18 17 16 15
37 42 33 31 31 48 51 36 41 48 20 29 31 29 32 33 38 25 27 30 30 29 26 22 21 20 19 18 18 18 17 17 17 17 17 17 17 17 17 17 19 19 18 17 17 16 15 15 14
35 30 55 43 40 37 47 32 42 35 28 30 36 35 28 29 32 33 27 35 31 31 27 25 22 22 20 19 19 19 18 18 18 18 18 17 16 17 19 20 19 19 18 16 15 13 12 11 11
33 40 44 12 35 33 23 33 45 36 32 32 34 28 29 31 32 32 34 32 40 36 31 27 25 23 22 20 19 20 19 19 19 18 19 20 20 20 19 19 17 16 14 12 10 9 8 8 9
35 43 33 39 36 27 24 36 41 31 38 40 37 33 32 31 29 30 32 29 34 32 32 30 28 26 23 22 21 20 20 19 20 20 20 20 20 19 17 16 13 11 8 7 6 6 7 7 8
33 36 43 22 29 25 28 28 35 34 36 36 33 31 33 35 31 31 31 33 31 30 28 33 31 28 26 26 25 23 21 20 20 21 20 19 18 17 15 12 10 7 5 4 4 4 5 7 7
34 35 31 33 16 25 22 35 29 42 32 35 32 30 34 38 31 32 31 30 34 36 38 33 32 31 29 29 27 25 23 22 21 21 20 19 17 14 12 10 7 5 2 1 3 5 6 6 7
28 33 28 19 24 25 25 35 34 34 38 35 34 31 33 32 38 34 34 33 33 33 38 36 34 33 32 29 28 26 25 24 22 22 20 18 16 14 11 8 6 5 5 6 6 6 8 8 9
31 24 29 21 23 24 22 28 42 30 46 39 32 31 31 31 32 36 34 36 33 31 36 37 36 35 33 30 29 28 26 25 23 22 21 18 16 15 13 11 10 10 10 11 10 10 10 10 10
24 19 19 23 16 25 20 19 36 36 41 38 33 33 33 34 33 32 34 38 34 33 31 34 38 36 33 30 31 29 28 26 24 22 22 21 20 18 16 15 15 15 15 15 14 14 14 13 11
19 18 19 22 16 21 33 6 30 46 42 32 36 33 34 30 32 32 34 35 36 34 31 31 31 33 33 32 30 29 26 25 26 25 24 23 22 22 21 21 21 20 20 20 19 19 18 16 14
22 14 21 21 20 18 22 31 11 38 41 32 36 35 34 30 29 29 31 33 34 32 29 27 29 31 31 28 29 24 28 25 27 27 27 28 27 28 27 27 27 26 25 24 22 22 21 19 18
15 19 22 17 19 20 16 28 33 20 39 35 35 37 34 31 23 23 25 31 32 35 34 31 29 29 31 29 30 30 31 31 31 35 32 32 30 30 30 31 31 29 27 26 26 26 24 22 20
14 27 18 17 16 20 17 20 20 21 25 37 34 31 33 28 21 24 25 26 26 28 31 34 31 31 30 33 33 31 29 31 32 32 34 35 34 33 31 31 31 31 26 26 25 25 24 24 23
6 30 21 17 14 13 20 19 21 22 14 10 23 29 23 25 21 22 27 26 25 24 23 27 30 30 29 25 26 26 26 28 28 29 28 29 31 31 30 30 31 30 25 29 30 21 22 23 24
4 21 36 17 8 5 18 5 19 30 15 13 11 20 17 20 23 23 24 25 26 25 22 22 23 25 25 25 27 25 24 28 25 25 28 30 29 28 30 26 28 30 32 33 31 29 30 37 36
3 16 25 20 11 11 16 7 12 28 24 20 24 21 18 25 29 27 26 24 25 26 26 24 24 23 22 21 22 21 23 26 25 27 29 31 31 31 29 32 36 33 34 24 28 35 34 36 41
6 20 22 23 10 1 12 11 7 18 30 33 26 37 33 33 35 34 29 23 24 27 28 28 27 25 25 25 24 23 24 24 25 26 28 29 29 30 32 30 27 35 35 32 38 33 36 37 39
5 27 7 6 5 3 15 12 11 13 19 29 30 35 33 36 35 35 33 26 26 26 26 29 29 28 27 28 27 27 28 29 27 28 28 28 30 30 31 35 37 37 40 41 25 24 23 30 31
3 6 4 3 4 2 17 7 5 10 3 15 23 33 37 37 33 34 31 31 31 29 27 26 29 29 28 26 26 25 25 27 27 26 25 24 25 28 31 27 31 36 29 27 30 33 30 32 40
3 6 7 6 10 7 8 6 7 11 6 13 15 35 29 27 35 37 32 32 31 31 27 24 24 23 24 25 25 25 24 23 25 26 27 27 26 26 29 25 25 27 23 20 23 20 20 23 24
3 11 3 4 4 3 4 2 3 11 5 6 12 16 20 22 25 35 39 35 34 32 28 27 27 25 22 22 23 23 22 23 24 28 28 25 24 27 26 21 21 23 21 23 24 24 26 26 27
6 1 3 4 3 4 4 2 2 13 11 11 10 13 17 22 24 24 36 40 38 35 30 27 28 24 21 21 21 21 22 24 22 21 24 26 29 32 32 36 34 31 29 27 27 29 30 30 32
8 7 2 2 2 5 3 3 6 8 10 12 13 14 16 21 23 20 26 24 21 23 26 26 27 23 19 19 20 20 21 22 22 23 27 29 31 27 31 29 27 26 26 26 27 31 33 34 35

GFSSGP_700_spd_105.txt.gz
Wind_Speed
36 34 34 33 26 19 35 37 40 37 39 42 23 17 19 19 26 18 14 18 23 21 19 18 17 16 15 15 13 11 9 9 9 11 12 14 15 14 12 9 5 9 12 12 11 12 14 15 16
36 34 34 35 25 27 36 47 43 41 28 25 30 26 18 21 19 24 15 24 24 21 18 17 16 16 16 15 13 11 10 10 11 12 13 13 12 12 10 9 11 12 12 12 13 14 15 15 15
37 37 40 36 34 31 45 52 49 40 32 18 31 30 26 24 19 24 20 24 25 22 19 18 17 17 16 14 13 12 11 11 12 13 13 13 12 12 13 14 13 12 13 14 14 14 13 13 13
30 37 40 28 37 52 54 50 49 40 30 22 19 36 25 22 18 26 22 27 27 24 21 19 17 16 16 15 14 13 13 13 13 14 15 15 15 15 14 13 13 14 14 13 13 12 13 15 14
28 34 42 38 42 56 55 50 44 41 32 26 20 32 33 20 22 30 19 29 29 26 22 20 19 18 17 16 15 15 15 15 15 15 16 16 16 15 14 14 14 14 13 13 14 15 15 17 18
26 32 31 30 35 56 57 47 31 37 37 25 22 28 36 27 28 30 24 29 29 26 23 21 20 19 17 17 17 16 16 16 16 16 16 17 17 16 15 15 15 14 15 16 17 18 18 18 17
33 33 43 46 27 51 52 51 31 34 42 33 25 31 30 37 27 32 31 30 31 29 25 23 21 20 19 18 17 17 17 17 17 17 17 17 17 16 16 16 16 17 18 19 18 18 17 16 14
32 32 43 43 42 40 50 45 31 40 47 37 29 31 34 35 32 31 33 32 30 30 27 25 24 22 20 20 19 18 18 18 18 18 17 17 17 17 17 17 18 19 19 18 18 17 17 16 15
35 35 36 43 45 40 28 40 44 35 48 39 28 32 30 33 36 34 36 38 31 32 30 26 24 23 22 21 20 19 19 19 19 19 19 17 17 18 19 20 20 19 18 17 16 15 14 14 13
41 35 43 45 47 39 22 32 43 41 39 39 27 33 29 37 34 37 34 42 33 28 31 29 26 24 23 21 20 20 20 19 19 19 19 19 19 21 21 21 20 18 16 14 12 11 10 10 10
39 46 34 44 33 39 44 26 45 33 45 42 32 33 32 33 36 36 32 29 46 36 32 32 29 27 25 23 22 22 22 20 20 20 20 21 21 21 20 18 16 14 11 9 8 6 6 7 7
33 39 43 39 25 46 40 26 35 31 43 61 43 33 35 38 34 31 34 31 35 40 34 34 32 29 26 25 23 23 22 21 21 21 21 21 21 20 18 16 13 10 8 6 4 3 5 6 6
34 40 54 27 31 29 39 32 29 30 47 57 43 38 34 35 36 34 31 33 28 37 34 34 32 30 28 28 26 24 23 23 23 23 23 21 20 18 16 13 10 7 4 2 1 3 5 6 7
20 34 44 22 28 31 18 25 27 40 49 54 44 41 37 37 38 38 38 38 38 39 35 29 28 31 32 31 28 27 26 24 24 23 23 22 20 17 14 11 8 5 4 3 4 5 7 8 8
25 17 33 41 22 45 37 20 28 45 50 39 45 44 40 38 39 38 37 37 36 35 41 34 28 27 34 32 30 28 27 25 25 23 22 21 18 16 14 11 9 8 8 8 9 9 10 11 10
21 17 19 29 29 31 33 18 24 46 47 36 44 43 41 39 40 39 34 35 35 36 39 41 39 39 34 34 32 31 29 27 26 24 22 21 20 18 16 14 13 13 13 13 14 14 14 14 14
15 20 18 19 28 23 33 24 19 30 41 36 39 41 41 39 38 42 40 34 36 31 31 36 38 32 30 32 33 31 29 28 27 25 24 22 21 20 19 19 18 18 18 18 20 19 19 19 18
0 22 23 19 25 18 27 31 9 27 33 44 39 41 39 39 37 36 41 45 35 36 34 28 36 39 42 37 35 33 30 27 25 24 24 23 23 23 23 23 23 23 23 24 24 24 24 23 23
25 12 21 18 18 19 22 22 33 19 23 37 42 43 40 37 37 36 33 40 40 38 34 32 31 33 37 36 33 32 30 28 26 25 26 23 24 27 29 29 29 29 29 29 29 28 27 26 26
13 13 17 15 18 18 18 17 25 22 14 19 42 46 41 36 36 34 33 33 39 39 32 36 32 29 31 31 27 26 25 27 28 29 27 25 26 29 31 30 30 30 31 31 29 26 24 26 24
8 20 17 16 17 9 9 7 12 17 13 18 33 42 40 38 35 32 27 30 33 38 38 35 30 30 29 30 29 30 28 30 29 25 27 26 26 28 30 30 29 30 31 32 32 27 25 36 32
3 24 15 17 18 6 17 3 15 13 15 22 34 38 44 40 36 32 27 22 25 26 30 30 33 31 32 31 29 28 30 33 30 24 20 22 28 28 29 26 23 29 28 22 29 34 36 36 28
5 23 17 14 14 10 7 6 5 18 15 7 20 31 42 37 35 31 27 25 23 23 21 25 28 30 31 28 26 23 23 22 21 23 24 26 30 28 26 27 26 23 28 30 31 41 39 37 39
8 20 20 8 4 1 12 5 10 23 28 19 3 10 22 48 33 26 25 23 23 23 24 23 24 24 24 23 23 24 22 20 21 21 23 25 28 28 25 24 22 26 26 30 31 25 33 34 31
6 24 6 3 2 3 10 6 10 11 15 18 12 9 21 19 16 17 20 23 25 24 25 24 25 24 24 24 24 22 22 21 21 20 22 24 24 23 23 26 23 25 27 25 24 29 32 28 22
6 5 4 4 3 3 10 4 4 8 9 15 19 20 16 22 21 22 28 27 25 25 25 24 24 26 28 28 25 22 22 22 22 23 23 20 19 21 23 24 26 24 26 29 29 28 28 28 25
1 6 8 10 11 6 3 5 4 3 5 7 19 27 28 25 26 31 30 30 29 26 23 22 22 25 27 27 26 23 22 21 19 19 20 19 18 20 22 19 21 22 20 21 26 24 21 19 22
9 10 6 4 3 4 3 2 3 7 8 8 13 20 33 30 32 31 30 27 26 28 26 24 22 21 21 22 22 23 21 21 20 20 18 19 20 18 17 19 22 24 20 24 25 25 27 27 27
5 6 5 5 4 4 3 1 2 10 9 10 10 13 23 28 30 27 31 32 28 28 28 27 23 22 21 19 20 20 21 21 20 19 20 21 20 19 18 22 25 28 33 33 35 32 29 28 28
8 5 8 4 1 6 4 3 6 6 7 7 6 8 13 18 23 29 30 33 36 32 29 27 26 26 23 21 20 20 21 20 19 20 19 19 18 20 23 24 24 20 21 25 26 26 27 28 30

GFSSGP_700_spd_108.txt.gz
Wind_Speed
34 35 31 30 25 22 34 43 41 41 43 45 36 25 23 22 24 19 10 18 18 22 21 20 18 17 16 15 13 12 10 9 10 11 12 13 14 13 13 10 6 11 12 11 11 13 14 14 15
32 37 34 32 32 23 37 50 46 43 39 41 40 30 23 16 23 22 8 19 21 23 21 19 17 17 16 15 14 12 11 11 11 12 14 14 15 15 11 8 12 13 11 12 13 14 14 13 13
32 36 38 32 28 44 38 50 51 42 35 31 45 31 31 20 20 21 24 16 25 24 20 19 18 17 17 15 13 12 12 12 12 14 14 13 13 13 12 14 14 12 13 13 13 13 12 13 14
32 31 38 43 30 44 52 51 50 45 25 23 26 42 37 20 22 21 25 20 27 26 22 20 18 18 16 15 14 13 12 13 13 13 13 13 14 15 16 15 14 15 14 13 13 12 13 15 16
33 33 38 40 48 33 51 54 42 44 35 24 20 27 42 24 24 28 26 25 28 28 24 21 19 19 18 16 15 14 14 14 14 15 15 15 16 16 16 16 16 15 14 13 15 15 16 18 18
29 32 27 42 50 28 43 52 40 29 43 31 24 22 27 37 26 29 26 27 32 29 26 24 21 20 18 17 16 15 15 16 16 17 17 17 17 17 17 16 15 15 16 16 18 18 18 17 16
36 29 34 42 54 50 41 44 35 33 28 41 28 24 33 35 30 30 30 33 35 31 27 25 23 22 20 18 17 17 17 17 18 18 18 18 18 17 17 16 16 18 19 19 18 17 17 16 15
31 38 29 39 46 48 57 39 33 33 29 36 41 30 36 40 38 31 35 35 35 33 29 26 25 23 21 20 19 19 19 19 19 19 18 18 18 18 18 19 20 22 20 20 20 18 17 16 15
30 33 35 42 40 48 30 46 46 34 29 29 38 34 29 35 40 35 35 35 36 35 31 28 26 24 22 22 21 21 21 20 20 20 19 19 19 19 20 22 22 22 21 20 18 17 15 13 12
32 36 43 39 40 43 31 37 23 44 34 30 44 29 28 33 39 43 40 39 34 36 34 30 27 25 25 23 23 22 22 21 21 21 21 20 20 21 22 23 22 20 19 17 15 14 12 10 9
33 43 41 42 43 38 37 28 54 40 42 29 38 36 29 33 39 38 30 33 38 34 32 31 29 27 26 25 24 24 24 23 23 22 22 22 23 23 23 22 21 18 16 13 11 10 9 8 7
31 38 43 46 34 37 22 37 35 42 45 40 34 36 35 34 41 40 40 32 43 30 33 30 29 28 26 25 25 25 25 24 24 23 23 24 24 23 22 21 18 15 13 10 8 6 6 6 6
27 33 39 42 48 28 23 27 42 44 40 45 37 43 38 35 37 37 38 34 33 30 39 31 29 28 27 27 28 27 26 25 25 25 26 26 25 23 21 19 16 13 9 6 4 3 3 4 4
22 21 35 39 38 35 30 21 41 55 33 43 52 45 37 38 37 37 37 35 33 31 40 38 30 27 29 30 30 29 28 27 28 28 27 27 25 22 19 16 12 9 6 3 1 2 4 6 7
22 22 26 31 38 44 26 41 35 51 35 38 48 49 41 37 40 39 32 34 33 31 35 33 32 30 31 31 32 31 30 30 30 29 28 26 24 21 18 15 11 8 5 4 5 6 7 8 10
18 17 24 25 35 47 18 38 34 47 18 30 45 54 47 41 40 42 39 36 36 33 39 42 30 28 29 33 34 34 33 32 32 30 29 27 24 20 17 14 11 10 8 9 10 10 11 12 13
18 17 25 12 26 44 26 31 35 39 5 28 42 55 51 46 40 40 40 38 39 40 47 46 35 31 30 35 35 36 35 35 33 32 29 27 23 20 18 16 15 14 13 14 15 15 17 17 17
11 10 24 19 25 35 37 31 31 41 32 19 41 54 56 49 45 43 39 44 41 43 39 36 40 41 42 36 34 35 36 35 34 32 29 26 24 22 20 18 18 18 19 20 20 21 22 22 22
16 20 18 17 15 31 30 23 32 41 47 4 30 51 49 51 48 42 43 34 40 42 40 40 48 42 41 36 36 35 35 35 34 32 29 28 25 22 21 21 22 23 24 25 26 27 27 27 25
11 16 10 18 14 25 16 8 14 24 37 30 28 43 46 45 44 48 47 40 38 37 39 37 47 39 44 41 40 39 35 33 32 30 27 24 23 22 22 23 23 25 26 26 27 28 29 30 28
8 8 16 17 12 13 13 9 9 12 21 19 23 33 43 41 42 40 44 46 50 39 32 40 42 46 40 41 37 32 30 28 28 26 26 22 23 22 27 25 24 25 27 25 23 24 25 28 23
8 7 12 12 14 2 13 3 8 2 10 20 13 29 41 37 37 36 36 34 37 39 44 39 39 41 38 45 42 38 29 35 29 22 23 28 21 22 25 22 21 19 19 20 20 19 20 18 31
3 13 8 10 8 11 6 5 3 1 9 7 19 33 40 38 35 34 34 34 32 29 45 43 33 33 31 28 26 26 24 35 38 25 30 34 25 27 23 20 21 19 17 15 22 21 22 28 20
6 16 8 9 5 3 9 4 2 8 10 7 5 32 37 40 34 33 31 31 30 28 26 37 33 39 24 23 26 23 24 23 21 18 21 20 21 22 18 20 19 32 26 23 21 21 23 23 23
14 14 3 4 5 2 5 4 8 5 2 5 10 20 39 40 32 33 32 29 26 20 14 18 22 26 28 29 23 24 22 18 13 18 19 18 17 17 16 14 14 17 18 19 21 23 24 25 23
27 16 3 3 2 1 5 4 6 7 2 6 8 2 26 40 31 33 33 27 24 20 21 19 18 19 19 18 18 20 12 14 16 19 16 16 18 16 14 15 15 17 18 19 22 21 18 22 21
10 12 5 7 8 3 2 4 6 6 6 5 10 8 15 26 31 37 31 24 20 17 18 19 18 18 18 20 20 20 20 19 20 19 18 18 18 17 17 17 18 19 21 21 18 18 21 20 19
14 7 3 4 3 4 5 6 10 8 5 10 15 17 18 21 29 31 15 16 17 18 18 19 19 19 20 22 22 22 23 22 23 23 22 21 20 19 19 17 18 19 20 21 21 24 24 26 27
10 7 6 5 4 3 4 2 11 9 14 11 9 17 22 26 23 16 14 17 19 20 22 23 22 21 21 18 20 23 24 24 22 21 21 20 19 17 16 16 18 19 18 18 19 23 22 24 28
11 11 9 5 3 7 6 6 10 9 11 11 9 8 17 21 18 19 21 22 22 21 20 22 23 20 19 18 19 20 21 22 21 22 21 19 18 16 15 17 18 19 19 20 17 18 21 24 27

GFSSGP_700_spd_111.txt.gz
Wind_Speed
22 28 32 34 30 29 46 32 30 35 40 45 35 40 32 29 30 13 8 20 19 17 21 19 19 19 16 13 13 13 12 11 10 12 15 17 16 14 14 10 8 12 11 10 13 13 14 15 15
23 26 31 39 41 35 38 37 38 38 39 31 37 32 36 31 31 23 10 11 21 20 22 21 19 19 17 15 13 12 12 11 12 13 15 14 16 15 14 11 13 12 11 12 13 14 13 13 13
26 28 31 39 48 53 31 31 39 42 29 28 32 38 42 30 30 28 23 11 19 24 24 22 21 20 19 17 15 13 12 13 14 16 16 15 18 17 12 16 14 12 13 14 13 13 13 14 15
29 30 35 43 49 44 41 34 37 45 43 24 28 33 39 47 25 25 23 24 17 27 25 23 22 21 19 18 16 14 14 14 17 18 17 17 17 15 18 16 15 15 14 13 13 14 15 17 17
29 32 38 43 52 45 42 31 44 39 44 32 22 36 37 42 36 25 23 23 20 29 28 26 24 22 21 19 17 16 15 16 18 19 18 18 18 20 18 16 16 16 14 15 16 17 18 18 18
27 31 30 36 45 50 47 36 41 41 35 44 32 23 36 43 43 29 20 24 25 32 31 28 26 24 22 20 19 18 17 17 18 19 19 20 21 19 18 18 17 16 17 18 19 19 18 17 16
30 33 37 34 32 46 43 50 35 44 38 40 44 25 27 36 40 36 26 27 33 36 34 30 28 27 24 22 20 19 19 19 19 20 21 21 21 21 20 19 18 19 21 21 19 18 17 16 15
29 33 33 29 37 47 41 44 42 45 44 28 42 43 26 29 34 41 33 35 41 40 36 33 31 29 27 25 23 21 21 22 22 22 22 22 22 21 20 20 20 22 21 20 20 19 17 16 15
23 32 30 40 32 40 32 33 42 45 35 34 30 33 33 25 41 45 39 41 44 43 39 35 32 31 28 27 25 24 24 24 24 24 24 24 22 22 22 22 23 22 22 20 19 17 16 14 13
25 32 36 38 40 39 19 29 25 42 44 46 27 35 31 28 36 41 51 43 46 42 41 36 33 32 31 29 27 27 26 26 25 25 25 25 24 23 24 25 24 23 22 19 17 14 12 11 11
27 36 33 35 35 39 26 28 27 28 56 45 34 28 28 31 35 46 50 35 47 43 41 39 35 33 31 30 30 29 28 28 27 27 26 26 26 27 26 25 24 22 20 17 15 13 11 9 8
28 32 31 34 38 36 31 29 31 32 51 44 40 23 35 29 36 41 50 41 45 43 38 39 36 33 32 31 29 29 29 29 29 28 27 27 28 28 26 25 24 21 18 16 13 11 9 7 6
27 28 27 33 33 41 38 31 29 33 37 46 46 26 37 38 37 49 46 37 53 38 36 35 35 33 31 31 30 31 31 30 29 29 29 29 29 28 27 25 22 19 15 12 9 7 6 4 3
26 24 23 27 34 32 37 32 31 29 37 46 45 33 37 43 38 47 45 44 26 37 29 23 28 32 31 31 31 32 32 32 31 31 31 32 31 28 25 22 19 15 12 8 5 3 2 2 2
23 22 25 30 26 32 29 35 35 29 24 34 49 43 37 43 37 31 39 38 27 29 38 23 26 29 30 31 32 33 34 34 33 34 34 33 32 29 24 20 16 13 10 6 4 3 3 4 6
21 23 24 21 23 27 29 36 33 35 25 36 51 58 39 45 34 41 40 43 37 35 33 40 32 33 29 31 33 34 36 35 36 37 36 35 32 28 24 20 17 13 10 8 6 7 8 9 10
14 15 20 26 17 23 32 26 21 30 30 29 45 40 48 44 37 36 40 41 48 34 38 36 42 38 30 32 34 36 36 37 38 38 38 35 32 27 24 20 17 14 11 11 10 11 12 13 14
8 13 18 12 13 20 27 30 17 18 27 28 35 29 44 45 39 37 39 37 26 36 37 41 51 38 33 28 35 38 39 39 40 40 38 36 32 28 25 21 18 16 15 14 15 16 17 18 19
21 24 23 30 18 22 25 31 22 20 17 40 28 15 38 43 43 40 40 38 34 41 47 46 50 49 37 33 34 38 41 41 41 40 38 35 33 29 25 22 20 19 18 19 20 20 20 22 22
19 22 23 24 20 21 24 25 28 19 18 30 49 21 29 40 48 46 40 45 50 51 53 47 49 49 33 37 36 37 39 40 39 39 38 37 34 29 26 23 22 22 22 22 23 21 21 21 20
15 18 20 12 13 20 21 17 18 8 10 21 31 43 24 40 52 48 43 45 44 44 50 51 47 50 46 43 35 38 40 40 40 40 38 35 29 26 23 21 20 22 24 23 20 19 19 15 12
15 4 6 11 11 6 21 6 10 7 6 15 25 37 17 30 55 50 46 40 33 49 46 48 45 48 54 45 40 39 40 40 38 36 34 31 27 24 25 24 24 23 25 19 16 15 9 9 29
6 3 10 9 7 4 10 8 6 7 8 4 14 22 18 34 54 51 45 43 37 40 36 35 27 46 47 54 41 41 40 36 35 36 35 32 29 25 25 28 24 21 18 15 11 13 18 22 15
7 3 15 5 3 4 10 8 7 3 9 9 4 16 23 44 47 42 40 38 38 36 42 47 35 29 36 39 48 48 45 40 48 44 38 38 28 31 29 26 22 14 18 20 12 10 13 15 15
8 5 3 2 3 3 12 15 8 2 3 5 11 13 31 35 36 37 37 36 38 29 34 38 42 34 26 24 47 43 44 42 37 47 49 37 27 22 23 20 13 14 14 12 12 13 17 19 19
13 4 2 2 2 2 8 6 9 5 3 3 2 14 37 33 35 29 24 21 21 25 23 23 28 32 33 29 25 20 33 44 30 35 35 30 19 18 16 16 14 14 14 14 14 16 16 14 16
11 0 7 5 6 4 7 9 15 5 5 11 7 6 31 34 35 30 25 22 20 18 18 14 14 18 21 19 21 9 10 7 9 15 16 13 15 17 16 17 17 15 14 14 15 14 14 17 18
11 3 3 5 3 5 5 9 16 15 7 6 4 7 21 36 37 32 29 25 18 16 14 14 12 10 11 11 9 10 10 12 15 15 15 17 19 19 18 18 17 17 17 17 19 19 21 22 22
11 10 5 6 4 3 3 4 16 18 20 11 7 11 5 36 37 28 31 24 17 15 13 14 12 11 9 9 11 13 15 16 16 18 18 19 19 18 18 18 18 19 19 19 18 18 17 17 18
16 16 15 3 3 7 8 8 15 16 20 20 13 10 7 6 17 25 30 16 15 15 15 16 16 14 12 12 12 14 16 18 19 20 20 20 19 19 19 19 19 19 18 17 15 15 16 18 19

GFSSGP_700_spd_114.txt.gz
Wind_Speed
15 17 22 27 20 27 44 45 31 28 23 28 25 24 23 27 18 15 15 20 28 23 16 21 20 21 20 18 16 16 16 15 15 16 19 17 14 12 11 9 10 11 10 10 13 13 13 13 13
18 19 22 26 28 38 45 35 34 28 24 24 32 31 27 29 26 21 15 13 22 25 19 21 22 23 20 18 17 16 15 15 15 16 18 18 16 14 13 9 13 12 12 12 13 12 12 13 13
20 22 25 23 33 54 41 31 33 29 26 33 28 24 27 25 32 31 21 10 15 23 22 24 23 23 22 20 18 17 15 15 15 17 19 19 17 16 12 13 13 12 14 14 12 12 13 14 14
22 25 31 33 40 30 41 33 25 27 33 35 31 25 27 29 31 32 32 25 15 18 25 25 24 24 22 21 20 18 16 15 16 19 20 19 20 18 15 15 13 15 14 13 13 14 15 16 16
23 29 29 32 43 39 29 28 37 28 30 34 27 26 26 31 41 36 25 26 24 17 27 28 26 25 23 21 19 18 17 17 19 20 19 20 20 17 19 17 16 16 14 14 14 15 17 17 15
25 29 26 38 40 34 32 30 29 37 36 27 31 28 24 33 37 46 38 19 22 22 28 31 29 27 24 23 21 19 19 20 22 21 20 21 21 22 19 19 18 16 15 16 17 17 16 15 14
29 24 35 37 37 34 30 26 35 36 38 36 25 32 27 31 35 35 43 31 19 27 34 34 32 30 27 25 23 21 21 22 24 23 22 23 24 22 21 20 18 17 18 19 18 16 15 14 13
25 24 30 33 36 40 30 28 33 40 38 32 25 31 31 24 26 35 35 40 23 27 36 38 35 33 31 28 25 23 22 23 24 25 25 26 25 24 22 20 20 20 20 19 17 16 15 14 13
21 24 28 30 34 36 23 30 30 33 36 36 30 31 32 29 30 26 43 51 33 31 41 40 38 36 34 31 29 26 25 25 26 27 28 28 27 26 23 22 23 22 21 19 18 17 15 13 12
21 25 30 29 27 29 29 25 24 28 37 40 39 34 41 42 33 29 36 48 43 40 47 41 41 38 36 33 31 30 29 29 29 30 30 29 28 27 26 26 25 24 22 20 17 15 13 12 11
22 30 26 28 24 24 29 32 28 28 35 37 39 46 35 43 33 34 32 42 44 44 48 43 43 40 38 36 35 33 33 34 33 32 32 31 30 29 29 29 28 25 23 19 16 14 11 10 8
26 31 28 32 27 29 32 29 33 33 32 30 35 50 31 43 42 38 34 45 49 44 47 45 44 41 38 36 35 34 35 34 34 34 34 32 31 31 31 30 28 25 22 18 15 12 10 8 7
28 29 28 29 30 33 32 37 34 35 35 32 34 53 50 40 48 42 39 44 61 53 55 46 44 41 37 36 35 35 35 35 35 35 34 32 31 31 31 30 27 24 20 17 14 11 9 6 4
19 23 25 25 29 31 30 34 32 39 34 37 38 50 58 39 43 49 42 44 60 58 52 46 43 41 39 37 35 35 36 37 37 36 35 34 34 33 32 30 27 23 20 16 13 10 8 5 3
20 26 27 31 25 33 23 33 37 41 35 33 38 40 56 47 41 52 52 37 52 46 51 41 38 40 39 37 37 36 37 37 37 37 36 38 37 35 33 30 26 22 18 15 11 8 6 4 3
19 23 25 20 19 20 24 38 30 30 32 37 32 41 56 52 43 48 48 31 46 52 47 39 36 36 36 37 37 37 37 38 38 38 39 40 40 37 33 29 25 21 17 13 10 8 7 6 7
18 21 22 20 17 18 26 24 22 23 32 34 32 25 52 60 42 33 46 50 41 46 57 42 35 34 32 36 37 38 39 39 40 40 41 42 40 37 33 29 25 21 17 14 11 10 10 10 11
15 16 18 18 12 14 20 23 16 23 30 31 32 32 37 61 42 32 36 47 51 42 38 52 41 35 31 33 38 40 41 41 41 40 42 42 40 37 33 29 25 22 18 16 14 14 14 14 15
20 23 28 26 21 18 21 21 20 23 11 21 32 26 35 50 47 37 42 38 53 46 57 64 55 40 36 37 38 41 41 42 42 43 44 43 41 37 34 30 27 23 21 19 18 18 17 17 16
25 26 30 26 21 23 20 23 22 22 21 18 25 27 32 43 47 40 35 25 30 54 52 59 60 52 41 38 37 35 39 41 41 41 42 43 41 38 35 31 28 25 23 22 22 20 19 16 13
25 27 28 26 10 17 14 16 19 24 24 18 18 31 19 31 43 41 37 31 36 46 54 51 53 57 46 41 35 34 39 38 43 45 46 44 42 39 35 32 29 27 24 22 21 19 17 16 16
27 17 18 18 18 11 22 8 25 23 11 13 10 16 29 13 26 45 42 39 29 40 50 48 43 49 42 38 41 39 34 39 41 43 44 43 41 37 34 30 28 23 21 20 20 23 22 13 18
14 17 10 12 15 15 25 3 12 15 7 6 8 12 29 31 28 49 43 37 33 34 42 43 48 52 56 46 48 41 36 35 38 42 41 41 38 35 32 31 28 25 18 18 25 15 18 15 12
12 10 3 6 2 6 5 1 7 4 6 7 4 15 23 32 31 49 41 35 31 35 37 36 34 51 41 51 43 43 36 36 38 39 39 40 37 35 33 29 28 30 28 24 18 19 19 14 16
2 9 2 3 4 5 8 12 11 4 2 4 3 9 15 19 25 37 42 33 33 30 28 32 31 44 41 46 47 50 51 39 41 44 42 40 38 38 36 32 28 28 29 18 18 17 16 18 17
3 10 5 4 4 3 8 6 8 9 3 2 4 16 16 18 29 29 32 33 30 28 21 20 24 38 41 39 40 54 31 38 41 53 44 41 44 39 41 42 33 20 17 18 19 19 20 19 18
3 6 5 1 3 3 6 8 13 10 5 5 9 15 17 24 28 26 37 30 24 21 26 21 35 32 19 23 26 21 38 59 32 50 49 54 36 42 38 42 15 22 21 20 20 20 19 18 19
2 7 4 4 3 4 5 10 16 21 11 4 8 13 26 23 28 31 30 24 22 18 22 18 14 16 24 27 19 18 16 13 31 41 24 41 31 30 27 18 23 23 23 22 22 20 18 18 18
18 8 4 4 4 3 3 6 17 20 16 9 7 10 19 24 33 31 26 24 21 17 17 15 16 15 12 11 9 10 8 10 9 14 16 15 14 16 21 23 25 24 23 23 22 18 16 14 13
20 18 9 3 5 13 11 9 18 21 23 15 11 14 17 23 33 29 32 27 22 20 17 16 16 15 12 9 9 11 10 12 15 16 18 18 20 22 24 24 24 24 24 23 20 18 16 16 16

GFSSGP_700_spd_117.txt.gz
Wind_Speed
13 16 19 21 13 19 33 41 28 24 29 30 29 26 25 26 24 20 17 16 26 27 20 15 17 18 18 19 18 17 16 15 16 18 16 14 11 10 8 6 7 10 8 10 12 12 12 11 11
16 17 19 16 21 30 35 26 31 30 23 22 27 28 27 26 26 38 6 9 19 26 25 19 19 19 20 20 19 18 18 16 15 18 18 14 12 12 10 7 9 9 9 11 11 11 10 11 11
18 18 19 15 29 41 31 22 21 25 29 21 21 27 28 28 23 30 24 12 9 22 24 24 20 21 22 22 22 20 19 18 16 17 20 17 14 13 12 10 11 10 11 12 11 10 11 12 13
19 21 26 26 32 24 27 27 20 20 25 27 25 25 25 27 25 36 37 29 19 17 21 22 22 23 25 24 22 21 20 18 18 17 19 18 16 15 12 14 13 12 12 11 10 11 12 13 14
22 19 25 29 37 33 26 19 19 24 29 30 29 28 24 20 33 31 34 42 35 25 19 23 25 25 26 25 23 22 20 19 18 18 21 20 18 17 14 15 14 14 12 11 12 14 15 14 14
20 22 26 32 34 31 28 27 29 25 32 31 31 33 33 20 32 36 33 44 38 33 24 25 29 29 28 27 24 22 20 19 19 21 22 21 20 17 17 16 15 14 13 13 14 16 15 14 13
23 23 31 33 33 31 26 24 30 31 31 35 29 32 31 29 31 33 35 37 51 24 27 27 33 32 31 29 26 23 21 20 22 23 23 23 22 19 19 18 17 15 15 15 16 15 14 13 13
19 22 34 36 35 36 28 29 28 30 36 30 31 39 31 28 29 38 39 36 53 39 26 31 35 34 34 31 28 25 24 25 25 26 24 24 22 23 21 20 17 16 17 17 15 14 13 13 12
20 25 33 31 30 31 24 28 26 29 31 35 35 35 32 31 33 33 37 38 34 53 30 34 38 37 36 33 30 28 27 29 29 27 25 26 26 25 24 21 19 20 20 18 17 15 14 13 11
20 23 30 26 26 28 25 27 28 28 30 35 36 42 39 34 38 40 37 39 48 63 46 36 40 40 38 36 32 30 30 32 31 29 28 28 28 27 25 23 24 23 21 20 18 15 14 12 11
20 29 26 26 25 25 25 27 25 29 35 28 35 42 41 53 29 37 32 36 37 41 64 42 43 44 42 40 35 34 34 33 34 32 32 32 31 31 28 27 26 25 23 20 17 15 13 11 10
25 28 28 28 28 28 28 28 31 33 35 35 30 32 37 49 33 43 41 36 33 49 64 56 46 49 46 43 38 38 37 36 36 35 35 35 34 31 29 29 28 26 23 20 17 14 12 10 9
26 27 28 30 28 29 28 32 36 35 33 34 34 43 38 40 43 43 45 39 47 45 60 56 44 49 47 44 42 40 41 37 38 38 38 38 35 32 31 31 28 25 23 20 17 14 12 9 7
23 24 26 28 28 28 31 34 32 34 39 35 38 37 45 37 50 36 48 51 40 42 44 68 46 50 50 46 42 39 41 39 40 40 38 35 34 33 34 33 30 27 23 20 17 13 10 7 5
19 26 28 30 28 31 28 36 38 37 31 35 36 39 39 42 54 45 45 52 48 23 48 50 54 46 49 44 44 42 42 43 39 40 39 38 36 35 36 35 32 27 24 20 16 13 11 8 5
20 22 29 29 24 27 26 37 32 28 29 34 39 35 34 39 46 57 42 50 50 55 39 54 46 43 44 44 45 44 41 41 41 41 40 39 39 40 38 35 31 28 23 20 16 13 10 8 7
18 25 26 28 23 23 26 29 28 26 25 34 36 37 34 34 34 59 48 52 43 36 38 48 35 46 45 44 43 41 40 40 41 42 41 41 41 40 39 35 31 28 24 20 16 14 12 10 8
19 20 25 28 21 21 21 32 29 20 23 28 31 31 31 21 41 49 53 48 44 39 33 56 59 40 44 41 42 40 40 41 42 42 41 41 41 42 40 36 32 29 24 21 18 15 13 11 10
24 27 31 31 25 27 29 30 26 24 22 25 26 27 29 28 26 43 53 47 33 44 45 39 51 48 45 42 44 43 43 44 43 43 42 43 44 43 40 37 33 29 25 22 18 15 13 13 13
23 28 37 33 25 25 28 28 21 22 22 18 21 25 28 26 27 35 48 38 24 38 47 45 54 54 41 41 41 40 41 43 43 43 42 44 44 43 42 38 33 29 25 22 19 17 16 16 16
25 29 35 32 25 27 26 31 27 23 21 22 17 20 23 26 26 33 45 34 24 33 43 40 50 48 44 38 38 39 41 43 45 46 44 45 47 46 42 38 34 30 27 23 20 19 18 16 17
32 29 35 38 33 23 18 5 21 19 24 22 18 18 16 17 22 34 43 32 29 37 45 42 51 45 46 41 39 40 41 43 43 44 45 46 47 45 42 39 34 30 26 23 21 18 16 16 15
27 21 22 22 22 23 17 14 6 18 18 16 15 12 17 26 19 32 34 34 30 36 43 45 56 53 54 45 39 34 32 35 38 42 44 44 45 44 43 38 35 31 28 25 20 20 13 3 19
17 20 20 15 22 6 11 22 6 12 12 12 10 12 13 29 25 17 22 34 31 35 51 40 51 48 53 44 40 34 35 37 41 41 41 43 44 44 41 38 35 32 29 27 21 17 17 20 23
10 17 3 7 8 1 2 9 14 10 8 10 7 11 16 20 21 24 28 38 35 29 42 33 25 50 49 48 39 37 38 37 33 35 37 40 42 41 38 37 34 31 29 27 28 24 12 20 23
12 11 7 5 3 4 10 6 13 15 10 7 2 8 12 20 25 23 26 37 31 23 25 30 20 16 61 38 40 33 39 36 33 37 38 39 38 40 42 40 34 33 32 37 36 21 22 20 19
11 11 12 9 6 3 4 3 10 22 17 11 24 18 13 16 16 24 34 39 29 23 15 15 11 29 25 39 43 37 42 44 49 38 40 35 41 41 41 39 41 42 37 27 21 18 22 21 19
9 13 7 8 6 4 6 9 18 26 23 25 24 20 17 21 26 24 34 34 24 20 15 17 14 16 28 27 52 25 48 25 20 36 33 50 49 46 48 39 45 44 47 26 14 24 23 21 21
17 11 7 5 5 4 3 7 23 21 18 21 21 24 26 27 31 35 34 27 21 20 18 20 14 12 12 17 22 16 11 6 3 16 18 36 43 58 49 41 45 36 35 22 27 24 23 24 22
15 18 6 6 6 9 10 13 21 21 27 28 26 23 25 32 29 34 36 29 27 23 19 21 16 13 15 19 19 19 18 16 15 14 15 14 9 21 33 19 22 22 24 27 27 24 24 22 21